[[{"header":{"parameterUnit":"m.s-1","parameterCategory":1,"la1":31.0,"la2":29.5877,"lo1":-88.7671,"lo2":-86.6584,"dy":0.0162,"dx":0.0185,"nx":115,"ny":88,"refTime":"2023-08-15T12:00:00:Z","depth":0,"parameterNumber":2,"parameterNumberName":"U-component_of_WINDS"},"data":[0.0,0.0,0.0,0.0,0.0,0.0,0.0,0.0,0.0,0.0,0.0,0.0,0.0,0.0,0.0,0.0,0.0,0.0,0.0,0.0,0.0,0.0,0.0,0.0,0.0,0.0,0.0,0.0,0.0,0.0,0.0,0.0,0.0,0.0,0.0,0.0,0.0,0.0,0.0,0.0,0.0,0.0,0.0,0.0,0.0,0.0,0.0,0.0,0.0,0.0,0.0,0.0,0.0,0.0,0.0,0.0,0.0,0.0,0.0,0.0,0.0,0.0,0.0,0.0,0.0,0.0,0.0,0.0,0.0,0.0,0.0,0.0,0.0,0.0,0.0,0.0,0.0,0.0,0.0,0.0,0.0,0.0,0.0,0.0,0.0,0.0,0.0,0.0,0.0,0.0,0.0,0.0,0.0,0.0,0.0,0.0,0.0,0.0,0.0,0.0,0.0,0.0,0.0,0.0,0.0,0.0,0.0,0.0,0.0,0.0,0.0,0.0,0.0,0.0,0.0,0.0,0.0,0.0,0.0,0.0,0.0,0.0,0.0,0.0,0.0,0.0,0.0,0.0,0.0,0.0,0.0,0.0,0.0,0.0,0.0,0.0,0.0,0.0,0.0,0.0,0.0,0.0,0.0,0.0,0.0,0.0,0.0,0.0,0.0,0.0,0.0,0.0,0.0,0.0,0.0,0.0,0.0,0.0,0.0,0.0,0.0,0.0,0.0,0.0,0.0,0.0,0.0,0.0,0.0,0.0,0.0,0.0,0.0,0.0,0.0,0.0,0.0,0.0,0.0,0.0,0.0,0.0,0.0,0.0,0.0,0.0,0.0,0.0,0.0,0.0,0.0,0.0,0.0,0.0,0.0,0.0,0.0,0.0,0.0,0.0,0.0,0.0,0.0,0.0,0.0,0.0,0.0,0.0,0.0,0.0,0.0,0.0,0.0,0.0,0.0,0.0,0.0,0.0,0.0,0.0,0.0,0.0,0.0,0.0,0.0,0.0,0.0,0.0,0.0,0.0,0.0,0.0,0.0,0.0,0.0,0.0,0.0,0.0,0.0,0.0,0.0,0.0,0.0,0.0,0.0,0.0,0.0,0.0,0.0,0.0,0.0,0.0,0.0,0.0,0.0,0.0,0.0,0.0,0.0,0.0,0.0,0.0,0.0,0.0,0.0,0.0,0.0,0.0,0.0,0.0,0.0,0.0,0.0,0.0,0.0,0.0,0.0,0.0,0.0,0.0,0.0,0.0,0.0,0.0,0.0,0.0,0.0,0.0,0.0,0.0,0.0,0.0,0.0,0.0,0.0,0.0,0.0,0.0,0.0,0.0,0.0,0.0,0.0,0.0,0.0,0.0,0.0,0.0,0.0,0.0,0.0,0.0,0.0,0.0,0.0,0.0,0.0,0.0,0.0,0.0,0.0,0.0,0.0,0.0,0.0,0.0,0.0,0.0,0.0,0.0,0.0,0.0,0.0,0.0,0.0,0.0,0.0,0.0,0.0,0.0,0.0,0.0,0.0,0.0,0.0,0.0,0.0,0.0,0.0,0.0,0.0,0.0,0.0,0.0,0.0,0.0,0.0,0.0,0.0,0.0,0.0,0.0,0.0,0.0,0.0,0.0,0.0,0.0,0.0,0.0,0.0,0.0,0.0,0.0,0.0,0.0,0.0,0.0,0.0,0.0,0.0,0.0,0.0,0.0,0.0,0.0,0.0,0.0,0.0,0.0,0.0,0.0,0.0,0.0,0.0,0.0,0.0,0.0,0.0,0.0,0.0,0.0,0.0,0.0,0.0,0.0,0.0,0.0,0.0,0.0,0.0,0.0,0.0,0.0,0.0,0.0,0.0,0.0,0.0,0.0,0.0,0.0,0.0,0.0,0.0,0.0,0.0,0.0,0.0,0.0,0.0,0.0,0.0,0.0,0.0,0.0,0.0,0.0,0.0,0.0,0.0,0.0,0.0,0.0,0.0,0.0,0.0,0.0,0.0,0.0,0.0,0.0,0.0,0.0,0.0,0.0,0.0,0.0,0.0,0.0,0.0,0.0,0.0,0.0,0.0,0.0,0.0,0.0,0.0,0.0,0.0,0.0,0.0,0.0,0.0,0.0,0.0,0.0,0.0,0.0,0.0,0.0,0.0,0.0,0.0,0.0,0.0,0.0,0.0,0.0,0.0,0.0,0.0,0.0,0.0,0.0,0.0,0.0,0.0,0.0,0.0,0.0,0.0,0.0,0.0,0.0,0.0,0.0,0.0,0.0,0.0,0.0,0.0,0.0,0.0,0.0,0.0,0.0,0.0,0.0,0.0,0.0,0.0,0.0,0.0,0.0,0.0,0.0,0.0,0.0,0.0,0.0,0.0,0.0,0.0,0.0,0.0,0.0,0.0,0.0,0.0,0.0,0.0,0.0,0.0,0.0,0.0,0.0,0.0,0.0,0.0,0.0,0.0,0.0,0.0,0.0,0.0,0.0,0.0,0.0,0.0,0.0,0.0,0.0,0.0,0.0,0.0,0.0,0.0,0.0,0.0,0.0,0.0,0.0,0.0,0.0,0.0,0.0,0.0,0.0,0.0,0.0,0.0,0.0,0.0,0.0,0.0,0.0,0.0,0.0,0.0,0.0,0.0,0.0,0.0,0.0,0.0,0.0,0.0,0.0,0.0,0.0,0.0,0.0,0.0,0.0,0.0,0.0,0.0,0.0,0.0,0.0,0.0,0.0,0.0,0.0,0.0,0.0,0.0,0.0,0.0,0.0,0.0,0.0,0.0,0.0,0.0,0.0,0.0,0.0,0.0,0.0,0.0,0.0,0.0,0.0,0.0,0.0,0.0,0.0,0.0,0.0,0.0,0.0,0.0,0.0,0.0,0.0,0.0,0.0,0.0,0.0,0.0,0.0,0.0,0.0,0.0,0.0,0.0,0.0,0.0,0.0,0.0,0.0,0.0,0.0,0.0,0.0,0.0,0.0,0.0,0.0,0.0,0.0,0.0,0.0,0.0,0.0,0.0,0.0,0.0,0.0,0.0,0.0,0.0,0.0,0.0,0.0,0.0,0.0,0.0,0.0,0.0,0.0,0.0,0.0,0.0,0.0,0.0,0.0,0.0,0.0,0.0,0.0,0.0,0.0,0.0,0.0,0.0,0.0,0.0,0.0,0.0,0.0,0.0,0.0,0.0,0.0,0.0,0.0,0.0,0.0,0.0,0.0,0.0,0.0,0.0,0.0,0.0,0.0,0.0,0.0,0.0,0.0,0.0,0.0,0.0,0.0,0.0,0.0,0.0,0.0,0.0,0.0,0.0,0.0,0.0,0.0,0.0,0.0,0.0,0.0,0.0,0.0,0.0,0.0,0.0,0.0,0.0,0.0,0.0,0.0,0.0,0.0,0.0,0.0,0.0,0.0,0.0,0.0,0.0,0.0,0.0,0.0,0.0,0.0,0.0,0.0,0.0,0.0,0.0,0.0,0.0,0.0,0.0,0.0,0.0,0.0,0.0,0.0,0.0,0.0,0.0,0.0,0.0,0.0,0.0,0.0,0.0,0.0,0.0,0.0,0.0,0.0,0.0,0.0,0.0,0.0,0.0,0.0,0.0,0.0,0.0,0.0,0.0,0.0,0.0,0.0,0.0,0.0,0.0,0.0,0.0,0.0,0.0,0.0,0.0,0.0,0.0,0.0,0.0,0.0,0.0,0.0,0.0,0.0,0.0,0.0,0.0,0.0,0.0,0.0,0.0,0.0,0.0,0.0,0.0,0.0,0.0,0.0,0.0,0.0,0.0,0.0,0.0,0.0,0.0,0.0,0.0,0.0,0.0,0.0,0.0,0.0,0.0,0.0,0.0,0.0,0.0,0.0,0.0,0.0,0.0,0.0,0.0,0.0,0.0,0.0,0.0,0.0,0.0,0.0,0.0,0.0,0.0,0.0,0.0,0.0,0.0,0.0,0.0,0.0,0.0,0.0,0.0,0.0,0.0,0.0,0.0,0.0,0.0,0.0,0.0,0.0,0.0,0.0,0.0,0.0,0.0,0.0,0.0,0.0,0.0,0.0,0.0,0.0,0.0,0.0,0.0,0.0,0.0,0.0,0.0,0.0,0.0,0.0,0.0,0.0,0.0,0.0,0.0,0.0,0.0,0.0,0.0,0.0,0.0,0.0,0.0,0.0,0.0,0.0,0.0,0.0,0.0,0.0,0.0,0.0,0.0,0.0,0.0,0.0,0.0,0.0,0.0,0.0,0.0,0.0,0.0,0.0,0.0,0.0,0.0,0.0,0.0,0.0,-2.6271,0.0,0.0,0.0,0.0,0.0,0.0,0.0,0.0,0.0,0.0,0.0,0.0,0.0,0.0,0.0,0.0,0.0,0.0,0.0,0.0,0.0,0.0,0.0,0.0,0.0,0.0,0.0,0.0,0.0,0.0,0.0,0.0,0.0,0.0,0.0,0.0,0.0,0.0,0.0,0.0,0.0,0.0,0.0,0.0,0.0,0.0,0.0,0.0,0.0,0.0,0.0,0.0,0.0,0.0,0.0,0.0,0.0,0.0,0.0,0.0,0.0,0.0,0.0,0.0,0.0,0.0,0.0,0.0,0.0,0.0,0.0,0.0,0.0,0.0,0.0,0.0,0.0,0.0,0.0,0.0,0.0,0.0,0.0,0.0,0.0,0.0,0.0,0.0,0.0,0.0,0.0,0.0,0.0,0.0,0.0,0.0,0.0,0.0,0.0,0.0,0.0,0.0,0.0,0.0,0.0,0.0,0.0,0.0,0.0,0.0,-2.7605,-2.7527,-2.7527,-2.735,-2.6934,0.0,0.0,0.0,0.0,0.0,0.0,0.0,0.0,0.0,0.0,0.0,0.0,0.0,0.0,0.0,0.0,0.0,0.0,0.0,0.0,0.0,0.0,0.0,0.0,0.0,0.0,0.0,0.0,0.0,0.0,0.0,0.0,0.0,0.0,0.0,0.0,0.0,0.0,0.0,0.0,0.0,0.0,0.0,0.0,0.0,0.0,0.0,0.0,0.0,0.0,0.0,0.0,0.0,0.0,0.0,0.0,0.0,0.0,0.0,0.0,0.0,0.0,0.0,0.0,0.0,0.0,0.0,0.0,0.0,0.0,0.0,0.0,0.0,0.0,0.0,0.0,0.0,0.0,0.0,0.0,0.0,0.0,0.0,0.0,0.0,0.0,0.0,0.0,0.0,0.0,0.0,0.0,0.0,0.0,0.0,0.0,0.0,0.0,0.0,0.0,0.0,0.0,0.0,0.0,0.0,0.0,0.0,0.0,0.0,0.0,0.0,0.0,-2.8411,-2.8049,-2.7349,0.0,0.0,0.0,0.0,0.0,0.0,0.0,0.0,0.0,0.0,0.0,0.0,0.0,0.0,0.0,0.0,0.0,0.0,0.0,0.0,0.0,0.0,0.0,0.0,0.0,0.0,0.0,0.0,0.0,0.0,0.0,0.0,0.0,0.0,0.0,0.0,0.0,0.0,0.0,0.0,0.0,0.0,0.0,0.0,0.0,0.0,0.0,0.0,0.0,0.0,0.0,0.0,0.0,0.0,0.0,0.0,0.0,0.0,0.0,0.0,0.0,0.0,0.0,0.0,0.0,0.0,0.0,0.0,0.0,0.0,0.0,0.0,0.0,0.0,0.0,0.0,0.0,0.0,0.0,0.0,0.0,0.0,0.0,0.0,0.0,0.0,0.0,0.0,0.0,0.0,0.0,0.0,0.0,0.0,0.0,0.0,0.0,0.0,0.0,0.0,0.0,0.0,0.0,0.0,0.0,0.0,0.0,0.0,0.0,0.0,-2.8411,-2.8411,-2.8411,0.0,-2.7255,0.0,0.0,0.0,0.0,0.0,0.0,0.0,0.0,0.0,0.0,0.0,0.0,0.0,0.0,0.0,0.0,0.0,0.0,0.0,0.0,0.0,0.0,0.0,0.0,0.0,0.0,0.0,0.0,0.0,0.0,0.0,0.0,0.0,0.0,0.0,0.0,0.0,0.0,0.0,0.0,0.0,0.0,0.0,0.0,0.0,0.0,0.0,0.0,0.0,0.0,0.0,0.0,0.0,0.0,0.0,0.0,0.0,0.0,0.0,0.0,0.0,0.0,0.0,0.0,0.0,0.0,0.0,0.0,0.0,0.0,0.0,0.0,0.0,0.0,0.0,0.0,0.0,0.0,0.0,0.0,0.0,0.0,0.0,0.0,0.0,0.0,0.0,0.0,0.0,0.0,0.0,0.0,0.0,0.0,0.0,0.0,0.0,0.0,0.0,0.0,0.0,0.0,0.0,0.0,0.0,0.0,0.0,0.0,0.0,0.0,-2.8787,-2.8411,-2.8308,-2.8137,0.0,0.0,0.0,0.0,0.0,0.0,0.0,0.0,0.0,0.0,0.0,0.0,0.0,0.0,0.0,0.0,0.0,0.0,0.0,0.0,0.0,0.0,0.0,0.0,0.0,0.0,0.0,0.0,0.0,0.0,0.0,0.0,0.0,0.0,0.0,0.0,0.0,0.0,0.0,0.0,0.0,0.0,0.0,0.0,0.0,0.0,0.0,0.0,0.0,0.0,0.0,0.0,0.0,0.0,0.0,0.0,0.0,0.0,0.0,0.0,0.0,0.0,0.0,0.0,0.0,0.0,0.0,0.0,0.0,0.0,0.0,0.0,0.0,0.0,0.0,0.0,0.0,0.0,0.0,0.0,0.0,0.0,0.0,0.0,0.0,0.0,0.0,0.0,0.0,0.0,0.0,0.0,0.0,0.0,0.0,0.0,0.0,0.0,0.0,0.0,0.0,0.0,0.0,0.0,0.0,0.0,0.0,0.0,0.0,0.0,-2.9125,-2.9248,-2.8916,-2.8578,-2.8387,-2.8287,0.0,0.0,0.0,0.0,0.0,0.0,0.0,0.0,0.0,0.0,0.0,0.0,0.0,0.0,0.0,0.0,0.0,0.0,0.0,0.0,0.0,0.0,0.0,0.0,0.0,0.0,0.0,0.0,0.0,0.0,0.0,0.0,0.0,0.0,0.0,0.0,0.0,0.0,0.0,0.0,0.0,0.0,0.0,0.0,0.0,0.0,0.0,0.0,0.0,0.0,0.0,0.0,0.0,0.0,0.0,0.0,0.0,0.0,0.0,0.0,0.0,0.0,0.0,0.0,0.0,0.0,0.0,0.0,0.0,0.0,0.0,0.0,0.0,0.0,0.0,0.0,0.0,0.0,0.0,0.0,0.0,0.0,0.0,0.0,0.0,0.0,0.0,0.0,0.0,0.0,0.0,0.0,0.0,0.0,0.0,0.0,0.0,0.0,0.0,0.0,0.0,0.0,0.0,0.0,0.0,0.0,0.0,0.0,-2.931,-2.9371,-2.9628,-3.0077,-2.9372,-2.8832,0.0,0.0,0.0,0.0,0.0,0.0,0.0,0.0,0.0,0.0,0.0,0.0,0.0,0.0,0.0,0.0,0.0,0.0,0.0,0.0,0.0,0.0,0.0,0.0,0.0,0.0,0.0,0.0,0.0,0.0,0.0,0.0,0.0,0.0,0.0,0.0,0.0,0.0,0.0,0.0,0.0,0.0,0.0,0.0,0.0,0.0,0.0,0.0,0.0,0.0,0.0,0.0,0.0,0.0,0.0,0.0,0.0,0.0,0.0,0.0,0.0,0.0,0.0,0.0,0.0,0.0,0.0,0.0,0.0,0.0,0.0,0.0,0.0,0.0,0.0,0.0,0.0,0.0,0.0,0.0,0.0,0.0,0.0,0.0,0.0,0.0,0.0,0.0,0.0,0.0,0.0,0.0,0.0,0.0,0.0,0.0,0.0,0.0,0.0,0.0,0.0,0.0,0.0,0.0,0.0,0.0,0.0,0.0,0.0,-2.9271,-2.97,-3.0225,-3.0754,-2.952,-2.8711,0.0,0.0,0.0,0.0,0.0,0.0,0.0,0.0,0.0,0.0,0.0,0.0,0.0,0.0,0.0,0.0,0.0,0.0,0.0,0.0,0.0,0.0,0.0,0.0,0.0,0.0,0.0,0.0,0.0,0.0,0.0,0.0,0.0,0.0,0.0,0.0,0.0,0.0,0.0,0.0,0.0,0.0,0.0,0.0,0.0,0.0,0.0,0.0,0.0,0.0,0.0,0.0,0.0,0.0,0.0,0.0,0.0,0.0,0.0,0.0,0.0,0.0,0.0,0.0,0.0,0.0,0.0,0.0,0.0,0.0,0.0,0.0,0.0,0.0,0.0,0.0,0.0,0.0,0.0,0.0,0.0,0.0,0.0,0.0,0.0,0.0,0.0,0.0,0.0,0.0,0.0,0.0,0.0,0.0,0.0,0.0,0.0,0.0,0.0,0.0,0.0,0.0,0.0,0.0,0.0,0.0,0.0,0.0,0.0,-2.9785,0.0,-3.0952,-3.1238,-2.9937,-2.9065,0.0,0.0,0.0,0.0,0.0,0.0,0.0,0.0,0.0,0.0,0.0,0.0,0.0,0.0,0.0,0.0,0.0,0.0,0.0,0.0,0.0,0.0,0.0,0.0,0.0,0.0,0.0,0.0,0.0,0.0,0.0,0.0,0.0,0.0,0.0,0.0,0.0,0.0,0.0,0.0,0.0,0.0,0.0,0.0,0.0,0.0,0.0,0.0,0.0,0.0,0.0,0.0,0.0,0.0,0.0,0.0,0.0,0.0,0.0,0.0,0.0,0.0,0.0,0.0,0.0,0.0,0.0,0.0,0.0,0.0,0.0,0.0,0.0,0.0,0.0,0.0,0.0,0.0,0.0,0.0,0.0,0.0,0.0,0.0,0.0,0.0,0.0,0.0,0.0,0.0,0.0,0.0,0.0,0.0,0.0,0.0,0.0,0.0,0.0,0.0,0.0,0.0,0.0,0.0,0.0,0.0,0.0,0.0,-2.9633,-3.0934,-3.1632,-3.1764,-3.1478,-3.0791,-2.9885,0.0,0.0,0.0,0.0,0.0,0.0,0.0,0.0,0.0,0.0,0.0,0.0,0.0,0.0,0.0,0.0,0.0,0.0,0.0,0.0,0.0,0.0,0.0,0.0,0.0,0.0,0.0,0.0,0.0,0.0,0.0,0.0,0.0,0.0,0.0,0.0,0.0,0.0,0.0,0.0,0.0,0.0,0.0,0.0,0.0,0.0,0.0,0.0,0.0,0.0,0.0,0.0,0.0,0.0,0.0,0.0,0.0,0.0,0.0,0.0,0.0,0.0,0.0,0.0,0.0,0.0,0.0,0.0,0.0,0.0,0.0,0.0,0.0,0.0,0.0,0.0,0.0,0.0,0.0,0.0,0.0,0.0,0.0,0.0,0.0,0.0,0.0,0.0,0.0,0.0,0.0,0.0,0.0,0.0,0.0,0.0,0.0,0.0,0.0,0.0,0.0,0.0,0.0,0.0,0.0,0.0,0.0,0.0,0.0,-3.1436,-3.1506,-3.1452,-3.1335,-3.0424,-2.952,0.0,0.0,0.0,0.0,0.0,0.0,0.0,0.0,0.0,0.0,0.0,0.0,0.0,0.0,0.0,0.0,0.0,0.0,0.0,0.0,0.0,0.0,0.0,0.0,0.0,0.0,0.0,0.0,0.0,0.0,0.0,0.0,0.0,0.0,0.0,0.0,0.0,0.0,0.0,0.0,0.0,0.0,0.0,0.0,0.0,0.0,0.0,0.0,0.0,0.0,0.0,0.0,0.0,0.0,0.0,0.0,0.0,0.0,0.0,0.0,0.0,0.0,0.0,0.0,0.0,0.0,0.0,0.0,0.0,0.0,0.0,0.0,0.0,0.0,0.0,0.0,0.0,0.0,0.0,0.0,0.0,0.0,0.0,0.0,0.0,0.0,0.0,0.0,0.0,0.0,0.0,0.0,0.0,0.0,0.0,0.0,0.0,0.0,0.0,0.0,0.0,0.0,0.0,0.0,0.0,0.0,0.0,0.0,0.0,-3.1131,-3.1131,-3.1073,-3.1043,-3.0279,-2.9435,-2.8483,0.0,0.0,0.0,0.0,0.0,0.0,0.0,0.0,0.0,0.0,0.0,0.0,0.0,0.0,0.0,0.0,0.0,0.0,0.0,0.0,0.0,0.0,0.0,0.0,0.0,0.0,0.0,0.0,0.0,0.0,0.0,0.0,0.0,0.0,0.0,0.0,0.0,0.0,0.0,0.0,0.0,0.0,0.0,0.0,0.0,0.0,0.0,0.0,0.0,0.0,0.0,0.0,0.0,0.0,0.0,0.0,0.0,0.0,0.0,0.0,0.0,0.0,0.0,0.0,0.0,0.0,0.0,0.0,0.0,0.0,0.0,0.0,0.0,0.0,0.0,0.0,0.0,0.0,0.0,0.0,0.0,0.0,0.0,0.0,0.0,0.0,0.0,0.0,0.0,0.0,0.0,0.0,0.0,0.0,0.0,0.0,0.0,0.0,0.0,0.0,0.0,0.0,0.0,0.0,0.0,0.0,0.0,0.0,-3.0296,-3.0568,-3.0687,-3.0568,-3.0387,-2.9543,0.0,0.0,0.0,0.0,0.0,0.0,0.0,0.0,0.0,0.0,0.0,0.0,0.0,0.0,0.0,0.0,0.0,0.0,0.0,0.0,0.0,0.0,0.0,0.0,0.0,0.0,0.0,0.0,0.0,0.0,0.0,0.0,0.0,0.0,0.0,0.0,0.0,0.0,0.0,0.0,0.0,0.0,0.0,0.0,0.0,0.0,0.0,0.0,0.0,0.0,0.0,0.0,0.0,0.0,0.0,0.0,0.0,0.0,0.0,0.0,0.0,0.0,0.0,0.0,0.0,0.0,0.0,0.0,0.0,0.0,0.0,0.0,0.0,0.0,0.0,0.0,0.0,0.0,0.0,0.0,0.0,0.0,0.0,0.0,0.0,0.0,0.0,0.0,0.0,0.0,0.0,0.0,0.0,0.0,0.0,0.0,0.0,0.0,0.0,0.0,0.0,0.0,0.0,0.0,0.0,0.0,0.0,0.0,0.0,-3.0142,-3.0083,-3.0113,-3.0233,-3.0023,-2.9499,0.0,0.0,0.0,0.0,0.0,0.0,0.0,0.0,0.0,0.0,0.0,0.0,0.0,0.0,0.0,0.0,0.0,0.0,0.0,0.0,0.0,0.0,0.0,0.0,0.0,0.0,0.0,0.0,0.0,0.0,0.0,0.0,0.0,0.0,0.0,0.0,0.0,0.0,0.0,0.0,0.0,0.0,0.0,0.0,0.0,0.0,0.0,0.0,0.0,0.0,0.0,0.0,0.0,0.0,0.0,0.0,0.0,0.0,0.0,0.0,0.0,0.0,0.0,0.0,0.0,0.0,0.0,0.0,0.0,0.0,0.0,0.0,0.0,0.0,0.0,0.0,0.0,0.0,0.0,0.0,0.0,0.0,0.0,0.0,0.0,0.0,0.0,0.0,0.0,0.0,0.0,0.0,0.0,0.0,0.0,0.0,0.0,0.0,0.0,0.0,0.0,0.0,0.0,0.0,0.0,0.0,0.0,0.0,-2.9896,-2.9896,-2.9713,-2.9682,-2.9803,-2.9682,-2.9277,0.0,0.0,0.0,0.0,0.0,0.0,0.0,0.0,0.0,0.0,0.0,0.0,0.0,0.0,0.0,0.0,0.0,0.0,0.0,0.0,0.0,0.0,0.0,0.0,0.0,0.0,0.0,0.0,0.0,0.0,0.0,0.0,0.0,0.0,0.0,0.0,0.0,0.0,0.0,0.0,0.0,0.0,0.0,0.0,0.0,0.0,0.0,0.0,0.0,0.0,0.0,0.0,0.0,0.0,0.0,0.0,0.0,0.0,0.0,0.0,0.0,0.0,0.0,0.0,0.0,0.0,0.0,0.0,0.0,0.0,0.0,0.0,0.0,0.0,0.0,0.0,0.0,0.0,0.0,0.0,0.0,0.0,0.0,0.0,0.0,0.0,0.0,0.0,0.0,0.0,0.0,0.0,0.0,0.0,0.0,0.0,0.0,0.0,0.0,0.0,0.0,0.0,0.0,0.0,0.0,0.0,0.0,0.0,-2.9613,-2.9669,-2.9544,-2.9449,-2.9418,-2.9394,-2.9025,0.0,0.0,0.0,0.0,0.0,0.0,0.0,0.0,0.0,0.0,0.0,0.0,0.0,0.0,0.0,0.0,0.0,0.0,0.0,0.0,0.0,0.0,0.0,0.0,0.0,0.0,0.0,0.0,0.0,0.0,0.0,0.0,0.0,0.0,0.0,0.0,0.0,0.0,0.0,0.0,0.0,0.0,0.0,0.0,0.0,0.0,0.0,0.0,0.0,0.0,0.0,0.0,0.0,0.0,0.0,0.0,0.0,0.0,0.0,0.0,0.0,0.0,0.0,0.0,0.0,0.0,0.0,0.0,0.0,0.0,0.0,0.0,0.0,0.0,0.0,0.0,0.0,0.0,0.0,0.0,0.0,0.0,0.0,0.0,0.0,0.0,0.0,0.0,0.0,0.0,0.0,0.0,0.0,0.0,0.0,0.0,0.0,0.0,0.0,0.0,0.0,0.0,0.0,0.0,0.0,0.0,0.0,0.0,-2.9652,-3.0062,-2.9933,-2.9803,-2.964,-2.9361,-2.8998,0.0,0.0,0.0,0.0,0.0,0.0,0.0,0.0,0.0,0.0,0.0,0.0,0.0,0.0,0.0,0.0,0.0,0.0,0.0,0.0,0.0,0.0,0.0,0.0,0.0,0.0,0.0,0.0,0.0,0.0,0.0,0.0,0.0,0.0,0.0,0.0,0.0,0.0,0.0,0.0,0.0,0.0,0.0,0.0,0.0,0.0,0.0,0.0,-2.4649,0.0,0.0,0.0,0.0,0.0,0.0,0.0,0.0,0.0,0.0,0.0,0.0,0.0,0.0,0.0,0.0,0.0,0.0,0.0,0.0,0.0,0.0,0.0,0.0,0.0,0.0,0.0,0.0,0.0,0.0,0.0,0.0,0.0,0.0,0.0,0.0,0.0,0.0,0.0,0.0,0.0,0.0,0.0,0.0,0.0,0.0,0.0,0.0,0.0,0.0,0.0,0.0,0.0,0.0,0.0,0.0,0.0,0.0,0.0,-2.9822,-3.0095,-3.0207,-3.0074,-2.9701,-2.9433,-2.9099,0.0,0.0,0.0,0.0,0.0,0.0,0.0,0.0,0.0,0.0,0.0,0.0,0.0,0.0,0.0,0.0,0.0,0.0,0.0,0.0,0.0,0.0,0.0,0.0,0.0,0.0,0.0,0.0,0.0,0.0,0.0,0.0,0.0,0.0,0.0,0.0,0.0,0.0,0.0,0.0,0.0,0.0,0.0,0.0,0.0,0.0,0.0,0.0,0.0,0.0,0.0,0.0,0.0,0.0,0.0,0.0,0.0,0.0,0.0,0.0,0.0,0.0,0.0,0.0,0.0,0.0,0.0,0.0,0.0,0.0,0.0,0.0,0.0,0.0,0.0,0.0,0.0,0.0,0.0,0.0,0.0,0.0,0.0,0.0,0.0,0.0,0.0,0.0,0.0,0.0,0.0,0.0,0.0,0.0,0.0,0.0,0.0,0.0,0.0,0.0,0.0,0.0,0.0,0.0,0.0,0.0,0.0,-2.9716,-3.0047,-3.0267,-3.0534,-3.046,-2.9968,-2.9726,-2.9333,-2.8704,0.0,0.0,0.0,0.0,0.0,0.0,0.0,0.0,0.0,0.0,0.0,0.0,0.0,0.0,0.0,0.0,0.0,0.0,0.0,0.0,0.0,0.0,0.0,0.0,0.0,0.0,0.0,0.0,0.0,0.0,0.0,0.0,0.0,0.0,0.0,0.0,0.0,0.0,-2.3709,-2.4294,0.0,0.0,0.0,0.0,0.0,0.0,0.0,0.0,-2.4247,0.0,0.0,0.0,0.0,0.0,0.0,0.0,0.0,0.0,0.0,0.0,0.0,0.0,0.0,0.0,0.0,0.0,0.0,0.0,0.0,0.0,0.0,0.0,0.0,0.0,0.0,0.0,0.0,0.0,0.0,0.0,0.0,0.0,0.0,0.0,0.0,0.0,0.0,0.0,0.0,0.0,0.0,0.0,0.0,0.0,0.0,0.0,0.0,0.0,0.0,0.0,0.0,0.0,0.0,0.0,0.0,-2.9831,-2.9778,-3.0227,-3.1247,-3.121,-3.1132,-3.1023,-3.0527,-2.9889,-2.9107,0.0,0.0,0.0,0.0,0.0,0.0,0.0,0.0,0.0,0.0,0.0,0.0,0.0,0.0,0.0,0.0,0.0,0.0,0.0,0.0,0.0,0.0,0.0,0.0,0.0,0.0,0.0,0.0,0.0,0.0,0.0,0.0,0.0,0.0,0.0,0.0,0.0,0.0,0.0,-2.4616,-2.4981,0.0,0.0,0.0,0.0,0.0,0.0,0.0,0.0,-2.3979,0.0,0.0,0.0,0.0,0.0,0.0,0.0,0.0,0.0,0.0,0.0,0.0,0.0,0.0,0.0,0.0,0.0,0.0,0.0,0.0,0.0,0.0,0.0,0.0,0.0,0.0,0.0,0.0,0.0,0.0,0.0,0.0,0.0,0.0,0.0,0.0,0.0,0.0,0.0,0.0,0.0,0.0,0.0,0.0,0.0,0.0,0.0,0.0,0.0,0.0,0.0,0.0,0.0,0.0,0.0,-2.9679,-2.9962,-3.0494,-3.14,-3.1621,-3.1577,-3.1172,-3.0578,-2.9854,0.0,0.0,0.0,0.0,0.0,0.0,0.0,0.0,0.0,0.0,0.0,0.0,0.0,0.0,0.0,0.0,0.0,0.0,0.0,0.0,0.0,0.0,0.0,0.0,0.0,0.0,0.0,0.0,0.0,0.0,0.0,0.0,0.0,0.0,0.0,0.0,0.0,0.0,0.0,0.0,-2.4869,-2.5127,-2.5446,0.0,0.0,0.0,0.0,0.0,0.0,-2.4421,-2.4154,0.0,0.0,0.0,0.0,0.0,0.0,0.0,0.0,0.0,0.0,0.0,0.0,0.0,0.0,0.0,0.0,0.0,0.0,0.0,0.0,0.0,0.0,0.0,0.0,0.0,0.0,0.0,0.0,0.0,0.0,0.0,0.0,0.0,0.0,0.0,0.0,0.0,0.0,0.0,0.0,0.0,0.0,0.0,0.0,0.0,0.0,0.0,0.0,0.0,0.0,0.0,0.0,0.0,0.0,0.0,-2.9665,-3.0283,-3.0845,-3.1441,-3.1902,-3.182,-3.1119,-3.0564,-2.9843,0.0,0.0,0.0,0.0,0.0,0.0,0.0,0.0,0.0,0.0,0.0,0.0,0.0,0.0,0.0,0.0,0.0,0.0,0.0,0.0,0.0,0.0,0.0,0.0,0.0,0.0,0.0,0.0,0.0,0.0,0.0,0.0,0.0,0.0,0.0,0.0,0.0,0.0,0.0,0.0,0.0,-2.5261,-2.5777,-2.5959,0.0,0.0,0.0,0.0,-2.5256,-2.4784,0.0,0.0,0.0,0.0,0.0,0.0,0.0,0.0,0.0,0.0,0.0,0.0,0.0,0.0,0.0,0.0,0.0,0.0,0.0,0.0,0.0,0.0,0.0,0.0,0.0,0.0,0.0,0.0,0.0,0.0,0.0,0.0,0.0,0.0,0.0,0.0,0.0,0.0,0.0,0.0,0.0,0.0,0.0,0.0,0.0,0.0,0.0,0.0,0.0,0.0,0.0,0.0,0.0,0.0,0.0,0.0,-3.0283,-3.0907,-3.1405,-3.1792,-3.19,-3.179,-3.1553,-3.0939,-3.0281,0.0,0.0,0.0,0.0,0.0,0.0,0.0,0.0,0.0,0.0,0.0,0.0,0.0,0.0,0.0,0.0,0.0,0.0,0.0,0.0,0.0,0.0,0.0,0.0,0.0,0.0,0.0,0.0,0.0,0.0,0.0,0.0,0.0,0.0,0.0,0.0,0.0,0.0,0.0,0.0,0.0,-2.5486,-2.5993,-2.6532,-2.6686,0.0,0.0,-2.5793,-2.5141,-2.4886,0.0,0.0,0.0,0.0,0.0,0.0,0.0,0.0,0.0,0.0,0.0,0.0,0.0,0.0,0.0,0.0,0.0,0.0,0.0,0.0,0.0,0.0,0.0,0.0,0.0,0.0,0.0,0.0,0.0,0.0,0.0,0.0,0.0,0.0,0.0,0.0,0.0,0.0,0.0,0.0,0.0,0.0,0.0,0.0,0.0,0.0,0.0,0.0,0.0,0.0,0.0,0.0,0.0,0.0,0.0,-2.9456,-3.0081,-3.0645,-3.1361,-3.2134,-3.1793,-3.158,-3.1698,-3.0729,-3.0006,0.0,0.0,0.0,0.0,0.0,0.0,0.0,0.0,0.0,0.0,0.0,0.0,0.0,0.0,0.0,0.0,0.0,0.0,0.0,0.0,0.0,0.0,0.0,0.0,0.0,0.0,0.0,0.0,0.0,0.0,0.0,0.0,0.0,0.0,0.0,0.0,0.0,0.0,0.0,0.0,0.0,0.0,-2.6383,-2.6688,0.0,0.0,0.0,-2.5988,-2.5585,0.0,0.0,0.0,0.0,0.0,0.0,0.0,0.0,0.0,0.0,0.0,0.0,0.0,0.0,0.0,0.0,0.0,0.0,0.0,0.0,0.0,0.0,0.0,0.0,0.0,0.0,0.0,0.0,0.0,0.0,0.0,0.0,0.0,0.0,0.0,0.0,0.0,0.0,0.0,0.0,0.0,0.0,0.0,0.0,0.0,0.0,0.0,0.0,0.0,0.0,0.0,0.0,0.0,0.0,0.0,0.0,0.0,-2.9918,-3.0626,-3.1357,-3.2167,-3.1777,-3.1601,-3.1746,-3.07,0.0,0.0,0.0,0.0,0.0,0.0,0.0,0.0,0.0,0.0,0.0,0.0,0.0,0.0,0.0,0.0,0.0,0.0,0.0,0.0,0.0,0.0,0.0,0.0,0.0,0.0,0.0,-2.2818,0.0,0.0,0.0,0.0,0.0,0.0,0.0,0.0,0.0,0.0,0.0,0.0,0.0,0.0,-2.6013,-2.6433,-2.6508,-2.6405,0.0,0.0,-2.5955,-2.5711,-2.5196,-2.4657,0.0,0.0,0.0,0.0,0.0,0.0,0.0,0.0,0.0,0.0,0.0,0.0,0.0,0.0,0.0,0.0,0.0,0.0,0.0,0.0,0.0,0.0,0.0,0.0,0.0,0.0,0.0,0.0,0.0,0.0,0.0,0.0,0.0,0.0,0.0,0.0,0.0,0.0,0.0,0.0,0.0,0.0,0.0,0.0,0.0,0.0,0.0,0.0,0.0,0.0,0.0,0.0,0.0,0.0,0.0,-3.0375,-3.1269,-3.168,-3.1604,-3.1966,-3.2052,-3.1701,-3.1142,-3.0466,0.0,0.0,0.0,0.0,0.0,0.0,0.0,0.0,0.0,0.0,0.0,0.0,0.0,0.0,0.0,0.0,0.0,0.0,0.0,0.0,0.0,0.0,0.0,0.0,0.0,0.0,0.0,0.0,0.0,0.0,0.0,0.0,0.0,0.0,0.0,0.0,0.0,0.0,0.0,0.0,0.0,-2.5364,-2.5871,-2.598,-2.5875,0.0,0.0,-2.55,-2.5123,-2.5028,-2.4767,-2.4106,0.0,0.0,0.0,0.0,0.0,0.0,0.0,0.0,0.0,0.0,0.0,0.0,0.0,0.0,0.0,0.0,0.0,0.0,0.0,0.0,0.0,0.0,0.0,0.0,0.0,0.0,0.0,0.0,0.0,0.0,0.0,0.0,0.0,0.0,0.0,0.0,0.0,0.0,0.0,0.0,0.0,0.0,0.0,0.0,0.0,0.0,0.0,0.0,0.0,0.0,0.0,0.0,0.0,-2.9729,-3.0122,-3.0843,-3.1403,-3.1904,-3.164,-3.1603,-3.183,-3.1141,-3.0471,0.0,0.0,0.0,0.0,0.0,0.0,0.0,0.0,0.0,0.0,0.0,0.0,0.0,0.0,0.0,0.0,0.0,0.0,0.0,0.0,0.0,0.0,0.0,0.0,0.0,0.0,0.0,0.0,-2.2815,-2.3006,-2.3006,0.0,0.0,0.0,0.0,0.0,0.0,0.0,0.0,0.0,0.0,-2.5755,-2.5805,-2.6117,0.0,0.0,-2.573,-2.5479,-2.5334,-2.4966,-2.4495,-2.3933,-2.37,0.0,0.0,0.0,0.0,0.0,0.0,0.0,0.0,0.0,0.0,0.0,0.0,0.0,0.0,0.0,0.0,0.0,0.0,0.0,0.0,0.0,0.0,0.0,0.0,0.0,0.0,0.0,0.0,0.0,0.0,0.0,0.0,0.0,0.0,0.0,0.0,0.0,0.0,0.0,0.0,0.0,0.0,0.0,0.0,0.0,0.0,0.0,0.0,0.0,0.0,0.0,0.0,-2.9758,-3.0058,-3.0683,-3.1313,-3.1921,-3.1487,-3.1434,-3.1675,-3.1016,-3.0427,0.0,0.0,0.0,0.0,0.0,0.0,0.0,0.0,0.0,0.0,0.0,0.0,0.0,0.0,0.0,0.0,0.0,0.0,0.0,0.0,0.0,0.0,0.0,0.0,0.0,0.0,0.0,0.0,-2.2991,-2.3203,-2.3203,0.0,0.0,0.0,0.0,0.0,0.0,0.0,0.0,0.0,0.0,-2.6123,-2.5951,-2.6259,-2.642,-2.623,-2.5887,-2.5616,-2.5578,-2.5187,-2.4696,-2.4127,0.0,0.0,0.0,0.0,0.0,0.0,0.0,0.0,0.0,0.0,0.0,0.0,0.0,0.0,0.0,0.0,0.0,0.0,0.0,0.0,0.0,0.0,0.0,0.0,0.0,0.0,0.0,0.0,0.0,0.0,-2.4025,0.0,0.0,0.0,0.0,0.0,0.0,0.0,0.0,0.0,0.0,0.0,0.0,0.0,0.0,0.0,0.0,0.0,0.0,0.0,0.0,0.0,0.0,-2.9888,-3.0198,-3.1033,-3.1388,-3.1272,-3.1709,-3.1733,-3.1315,-3.0795,-3.0423,-3.0181,0.0,0.0,0.0,0.0,0.0,0.0,0.0,0.0,0.0,0.0,0.0,0.0,0.0,0.0,0.0,0.0,0.0,0.0,0.0,0.0,0.0,0.0,0.0,0.0,0.0,0.0,-2.3169,-2.3169,-2.3226,0.0,0.0,0.0,0.0,0.0,0.0,0.0,0.0,0.0,0.0,-2.5953,-2.6282,-2.6282,-2.6306,-2.6276,-2.6047,-2.6008,-2.5923,-2.5731,-2.567,-2.5509,0.0,0.0,0.0,0.0,0.0,0.0,0.0,0.0,0.0,0.0,0.0,0.0,0.0,0.0,0.0,0.0,0.0,0.0,0.0,0.0,0.0,0.0,0.0,0.0,0.0,0.0,0.0,-2.4541,-2.4412,0.0,0.0,0.0,0.0,0.0,0.0,0.0,0.0,0.0,0.0,0.0,-2.9091,-2.946,0.0,0.0,0.0,0.0,0.0,0.0,0.0,0.0,0.0,0.0,0.0,0.0,-3.0089,-3.0573,-3.0876,-3.1192,-3.1556,-3.1722,-3.1727,-3.1545,-3.138,-3.0979,-3.0232,0.0,0.0,0.0,0.0,0.0,0.0,0.0,0.0,0.0,0.0,0.0,0.0,0.0,0.0,0.0,0.0,0.0,0.0,0.0,0.0,0.0,0.0,0.0,0.0,0.0,-2.3642,0.0,0.0,0.0,0.0,0.0,0.0,0.0,0.0,0.0,0.0,0.0,-2.5201,-2.5584,-2.607,-2.6433,-2.6433,-2.6695,-2.6863,0.0,0.0,0.0,0.0,0.0,0.0,0.0,0.0,0.0,0.0,0.0,0.0,0.0,0.0,-2.4884,-2.4863,-2.489,-2.489,-2.489,0.0,0.0,0.0,0.0,0.0,0.0,0.0,0.0,0.0,0.0,0.0,0.0,0.0,0.0,-2.5725,0.0,-2.5352,0.0,0.0,0.0,0.0,0.0,0.0,0.0,0.0,-2.8867,-2.9423,-2.9992,-3.0333,-3.0504,0.0,-3.0504,-2.9772,0.0,0.0,0.0,0.0,0.0,0.0,0.0,0.0,-3.0423,-3.0834,-3.1005,-3.135,-3.1786,-3.1832,-3.1809,-3.1716,-3.1553,-3.1064,-3.0225,-2.9017,-2.8296,0.0,0.0,0.0,0.0,0.0,0.0,0.0,0.0,0.0,0.0,0.0,0.0,0.0,0.0,0.0,0.0,0.0,0.0,0.0,0.0,0.0,0.0,0.0,-2.394,0.0,0.0,0.0,0.0,0.0,0.0,0.0,0.0,0.0,-2.4609,-2.5177,-2.5693,-2.5844,-2.6285,-2.6605,-2.6565,0.0,0.0,0.0,0.0,0.0,0.0,0.0,-2.5726,-2.5547,-2.5659,-2.5771,-2.5771,-2.5927,-2.6061,-2.6061,0.0,0.0,-2.5853,-2.5893,-2.5899,-2.5756,-2.587,-2.5961,-2.5779,-2.5831,-2.5973,0.0,0.0,0.0,0.0,0.0,0.0,0.0,0.0,-2.764,-2.7309,0.0,-2.6581,0.0,0.0,0.0,0.0,0.0,-2.7653,0.0,0.0,-2.9516,-2.9904,-3.0164,-3.023,-3.0206,-3.0182,-3.023,-3.0188,-3.0182,-3.0535,0.0,0.0,0.0,0.0,0.0,0.0,-3.0838,-3.0916,-3.1454,-3.1832,-3.2111,-3.2134,-3.2015,-3.1825,-3.1295,-3.0813,-3.0285,-2.978,-2.9274,-2.8746,-2.7805,0.0,0.0,0.0,0.0,0.0,0.0,0.0,0.0,0.0,0.0,0.0,0.0,0.0,0.0,0.0,0.0,0.0,0.0,0.0,0.0,-2.3912,0.0,0.0,0.0,0.0,0.0,0.0,0.0,0.0,0.0,0.0,-2.5066,-2.5876,-2.6394,-2.6154,0.0,0.0,0.0,0.0,-2.6659,-2.6659,-2.6659,-2.6659,-2.6659,-2.6998,-2.7091,-2.6598,0.0,0.0,-2.7205,-2.7607,-2.7897,-2.7942,-2.7897,-2.754,-2.6173,-2.6285,-2.6419,-2.6035,-2.6326,-2.6397,-2.6017,-2.6326,-2.6688,-3.0903,0.0,0.0,0.0,0.0,-2.9629,-2.9421,-2.9022,-2.8881,-2.8602,-2.8226,-2.8064,0.0,0.0,0.0,0.0,0.0,0.0,-2.9413,-3.0323,-3.0464,-3.1003,-3.1825,-3.1825,-3.1825,-3.1825,-3.1825,-3.1825,-3.1825,-3.1916,-3.1311,-3.0025,0.0,0.0,0.0,0.0,-3.0984,-3.1296,-3.174,-3.2087,-3.2356,-3.2356,-3.2379,-3.2331,-3.18,-3.1526,-3.1318,-3.0468,-2.994,-2.978,-2.8815,0.0,0.0,0.0,0.0,0.0,0.0,0.0,0.0,0.0,0.0,0.0,0.0,0.0,0.0,0.0,0.0,0.0,0.0,0.0,-2.4513,-2.4709,-2.4799,0.0,0.0,0.0,0.0,0.0,0.0,0.0,0.0,0.0,-2.6517,-2.6513,-2.6625,0.0,0.0,-2.7669,-2.7626,-2.7583,-2.7583,-2.7626,-2.7496,0.0,-2.7367,-2.7347,-2.7239,-2.7085,-2.7195,-2.7283,-2.7283,-2.7393,-2.7503,-2.7525,-2.7788,-2.7832,-2.7503,-2.7478,-2.7495,-2.7404,-2.7493,-2.7538,-2.7426,-2.7516,-2.7584,-3.191,-3.1097,-3.1249,-3.1316,-3.1229,-3.1229,-3.0941,-3.0475,-3.0288,-2.9973,-2.9573,-2.9183,-2.9065,-2.9196,-2.9196,0.0,0.0,0.0,-3.0528,-3.1365,-3.1365,-3.1762,-3.2465,-3.2488,-3.2488,-3.2488,-3.2488,-3.2488,-3.2488,-3.2488,-3.1855,-3.0723,0.0,0.0,-3.0921,-3.1225,-3.153,-3.183,-3.2131,-3.2427,-3.2837,-3.2712,-3.2639,-3.2639,-3.2062,-3.1763,-3.1763,-3.0942,-3.0397,-3.0193,-2.9443,-2.8648,0.0,0.0,0.0,0.0,0.0,0.0,0.0,0.0,0.0,0.0,0.0,-2.3377,-2.3631,0.0,0.0,0.0,-2.4585,-2.4697,-2.4988,-2.501,0.0,0.0,0.0,0.0,0.0,0.0,0.0,-2.6598,-2.687,-2.7075,-2.7364,-2.7234,-2.7189,-2.7409,-2.7698,-2.7832,-2.7723,0.0,-2.7723,-2.7679,-2.7591,-2.7547,-2.7547,-2.7568,-2.7719,-2.8134,-2.8178,-2.8265,-2.844,-2.8462,-2.8462,-2.8506,-2.8702,-2.8852,-2.8852,-2.8844,-2.8675,-2.8099,-2.8188,-2.8254,-2.8077,-2.8166,-2.8254,-3.2559,-3.2677,-3.3124,-3.317,-3.2864,-3.2864,-3.2559,-3.2065,-3.1623,-3.1298,-3.0996,-3.0101,-2.9665,-2.9643,-2.9643,0.0,-3.0972,-3.0995,-3.1365,-3.2086,-3.2086,-3.2251,-3.2511,-3.2582,-3.2582,-3.2629,-3.2605,-3.2652,-3.2723,-3.2699,-3.2581,-3.2319,-3.2581,-3.2487,-3.2111,-3.2087,-3.2246,-3.2515,-3.2512,-3.2787,-3.3269,-3.2992,-3.2891,-3.2869,-3.2167,-3.1771,-3.1748,-3.1251,-3.0782,-3.0312,-2.982,-2.9305,-2.8791,0.0,0.0,0.0,0.0,0.0,0.0,0.0,0.0,0.0,0.0,0.0,0.0,0.0,0.0,0.0,-2.515,0.0,-2.5155,-2.5194,0.0,0.0,0.0,-2.6088,-2.6512,-2.6917,-2.7407,-2.792,0.0,0.0,-2.7833,-2.8051,-2.8092,-2.7944,-2.7856,-2.7767,-2.7523,-2.7588,-2.75,-2.7654,-2.7588,-2.7566,-2.7763,-2.8002,-2.8457,-2.9266,-2.9506,-2.9546,-2.9894,-3.0003,-3.0068,-2.9981,-3.009,-3.0068,-3.0139,-2.9981,-2.9698,-2.8392,-2.8571,-2.8792,-2.8396,-2.8639,-2.8924,-3.3358,-3.376,-3.3857,-3.3409,-3.2583,-3.2583,-3.2418,-3.2088,-3.1995,-3.1807,-3.157,-3.1388,-3.1132,-3.0874,-3.0638,-3.0678,-3.0951,-3.0903,-3.1199,-3.1818,-3.2013,-3.2388,-3.2826,-3.3024,-3.3307,-3.3604,-3.3627,-3.3834,-3.4226,-3.4226,-3.4226,-3.4175,-3.4226,-3.3465,-3.1918,-3.2218,-3.2471,-3.2489,-3.2879,-3.3055,-3.2992,-3.2718,-3.2617,-3.2617,-3.2381,-3.2314,-3.2314,-3.1793,-3.143,-3.1345,-3.0538,-2.9797,-2.9328,-2.8813,0.0,0.0,0.0,0.0,0.0,0.0,0.0,0.0,0.0,-2.4645,-2.4623,0.0,-2.489,0.0,-2.6317,-2.6756,-2.6756,-2.6734,0.0,0.0,-2.6866,-2.6976,-2.7085,-2.7195,-2.7459,-2.7941,-2.8337,-2.8642,-2.9014,-2.9449,-2.9663,-2.958,-2.9299,-2.908,-2.8964,-2.9314,-2.9532,-2.9489,-2.9445,-2.951,-2.9419,-2.9428,-2.9413,-2.9672,-2.9547,-2.9492,-2.9599,-2.9621,-2.9621,-2.9621,-2.9621,-2.9621,-2.9642,-2.9621,-2.9535,-2.9192,-2.9505,-2.9838,-2.9729,-2.9773,-2.9812,-3.3412,-3.3568,-3.3568,-3.3146,-3.254,-3.288,-3.2831,-3.2469,-3.2469,-3.2323,-3.2078,-3.1851,-3.1663,-3.1446,-3.13,-3.1363,-3.1636,-3.1587,-3.1855,-3.2353,-3.2527,-3.2848,-3.3344,-3.3475,-3.3737,-3.3935,-3.3987,-3.4146,-3.4418,-3.4418,-3.4388,-3.4366,-3.4418,-3.3873,-3.2805,-3.311,-3.3298,-3.3298,-3.3265,-3.3158,-3.3034,-3.2504,-3.2291,-3.2291,-3.219,-3.2088,-3.2088,-3.1822,-3.1578,-3.1357,-3.0798,-3.0289,-2.9825,-2.9316,-2.8738,0.0,0.0,0.0,0.0,0.0,0.0,0.0,0.0,0.0,0.0,0.0,-2.5677,-2.6152,-2.6801,-2.7149,-2.7149,-2.7238,-2.7326,-2.7326,-2.7523,-2.7719,-2.7916,-2.8156,-2.8462,-2.8896,-2.9248,-2.951,-2.9773,-3.0035,-3.0161,-3.0014,-2.997,-2.9889,-2.986,-3.0057,-3.0161,-3.0063,-3.0014,-2.9965,-2.9867,-2.9719,-2.9706,-2.9899,-2.9821,-2.9785,-2.9998,-3.004,-3.004,-3.004,-3.004,-2.999,-3.004,-3.004,-3.004,-3.004,-3.0242,-3.0292,-2.9953,-2.9867,-2.9768,-3.3224,-3.3022,-3.2954,-3.2808,-3.2634,-3.3242,-3.322,-3.2841,-3.2818,-3.2667,-3.242,-3.1895,-3.1617,-3.1667,-3.1661,-3.1929,-3.238,-3.2447,-3.2663,-3.3064,-3.3138,-3.3361,-3.3785,-3.3838,-3.3913,-3.3981,-3.3981,-3.4003,-3.407,-3.407,-3.407,-3.407,-3.407,-3.407,-3.4123,-3.4283,-3.4321,-3.4261,-3.3548,-3.3242,-3.322,-3.2538,-3.2163,-3.2163,-3.1907,-3.1782,-3.1717,-3.1717,-3.1498,-3.1018,-3.093,-3.0712,-3.027,-2.979,-2.9258,0.0,-2.8132,0.0,0.0,0.0,0.0,0.0,0.0,0.0,0.0,-2.6676,-2.674,-2.6806,-2.7093,-2.7315,-2.7315,-2.7473,-2.7586,-2.7608,-2.7911,-2.8345,-2.8805,-2.9219,-2.9633,-3.0068,-3.0177,-3.0199,-3.015,-3.0242,-3.016,-3.0048,-3.0256,-3.0421,-3.0296,-3.028,-3.0225,-2.9962,-2.9913,-2.997,-2.975,-2.9586,-2.9635,-2.9973,-2.9956,-3.0083,-3.0411,-3.0474,-3.0495,-3.0474,-3.0453,-3.0474,-3.0568,-3.0547,-3.0547,-3.0453,-3.0432,-3.0303,-2.982,-2.9728,-2.9544,-3.3758,-3.3683,-3.333,-3.3099,-3.3025,-3.2549,-3.2443,-3.2544,-3.2566,-3.2392,-3.2066,-3.1542,-3.1294,-3.1338,-3.1478,-3.1589,-3.1696,-3.2083,-3.2298,-3.2384,-3.262,-3.2899,-3.3178,-3.3391,-3.3804,-3.4428,-3.445,-3.4674,-3.5131,-3.5131,-3.5099,-3.5131,-3.5131,-3.5154,-3.5077,0.0,0.0,0.0,-3.3643,-3.344,-3.344,-3.3065,-3.2893,-3.2893,-3.284,0.0,-3.2263,-3.2241,-3.2001,-3.152,-3.1105,0.0,0.0,0.0,0.0,0.0,0.0,0.0,0.0,0.0,0.0,0.0,-2.7795,-2.718,-2.6379,-2.6974,-2.753,-2.7738,-2.8445,-2.894,-2.894,-2.8988,-2.9015,-2.9037,-2.9052,-2.9208,-2.9293,-2.9379,-2.9486,-2.955,-2.9913,-3.0149,-3.017,-3.0419,-3.0653,-3.0559,-3.0687,-3.0709,-3.0653,-3.0611,-3.0653,-3.0623,-3.0487,-3.0551,-3.0572,-3.0118,-2.9818,-2.9953,-2.9588,-2.9399,-2.9481,-2.9448,-2.9448,-2.9448,-2.9396,-2.9448,-2.9448,-2.9396,-2.9501,-2.9448,-2.9448,-2.967,-3.0387,-3.0499,-3.0418,-3.3732,0.0,-3.3179,-3.2964,0.0,-3.228,-3.2171,-3.2381,-3.2243,-3.2162,-3.2066,-3.1825,-3.1593,-3.1455,-3.1529,-3.1527,-3.1419,-3.1671,-3.1957,-3.2277,-3.2462,-3.2809,-3.3298,-3.3463,-3.3736,-3.4086,-3.4086,-3.4272,-3.4513,-3.4513,-3.4534,-3.4513,-3.4534,-3.4513,-3.4513,-3.4367,-3.4294,-3.4173,-3.3822,-3.3658,-3.3658,-3.3309,-3.3124,-3.3124,-3.3124,0.0,0.0,0.0,0.0,0.0,0.0,0.0,0.0,-3.017,0.0,-2.9363,-2.9132,-2.8857,-2.8607,-2.8357,-2.8207,-2.8207,-2.7854,-2.7422,-2.6996,-2.7413,-2.7729,-2.7896,-2.8458,-2.8828,-2.8828,-2.9027,-2.9225,-2.9176,-2.9324,-2.9487,-2.9721,-2.9764,-2.9849,-3.0083,-3.0266,-3.0436,-3.0487,-3.0657,-3.0672,-3.0464,-3.0412,-3.0308,-3.0099,-3.0464,-3.0724,-3.0464,-3.0099,-2.9994,-2.9921,-2.9764,-2.9574,-2.9501,-2.929,-2.9132,-2.9132,-2.9132,-2.9132,-2.9132,-2.9132,-2.9132,-2.9132,-2.9132,-2.9132,-2.9132,-2.9132,-2.9237,-2.9869,-2.9973,-2.9869,-3.3548,-3.3117,-3.303,-3.2717,-3.2208,-3.209,-3.2036,-3.1969,0.0,0.0,0.0,-3.1885,-3.1701,-3.1504,-3.1587,-3.1464,-3.1299,-3.1326,-3.174,-3.2315,-3.2315,-3.2692,-3.3332,-3.3332,-3.3388,-3.3445,-3.3445,-3.3466,-3.3445,-3.3445,-3.3445,-3.3445,-3.3466,-3.3466,-3.3501,-3.3579,-3.3861,-3.4289,-3.3954,-3.3758,-3.3758,-3.3367,-3.3171,-3.3225,-3.3225,-3.3182,-3.3041,-3.2804,-3.2427,-3.1954,-3.1721,-3.1413,-3.0926,-3.0481,-2.995,-2.9415,-2.8972,-2.8502,-2.8045,-2.7943,-2.7841,-2.7739,-2.7515,-2.7507,-2.7794,-2.7834,-2.7874,-2.7945,-2.8208,-2.8371,-2.8371,-2.8776,-2.9027,-2.9027,-2.9207,-2.9476,-2.9833,-2.9947,-3.0022,-3.0432,-3.0422,-3.0516,-3.0443,-3.0443,-3.0402,-3.0045,-2.9981,-2.9843,-2.9546,-2.9993,-3.0297,-3.0034,-2.9684,-2.9293,-2.9373,-2.936,-2.9266,-2.9273,-2.92,-2.9106,-2.9053,-2.8999,-2.8979,-2.9005,-2.8999,-2.9019,-2.9019,-2.9005,-2.8999,-2.8999,-2.8999,-2.8979,-2.8979,-2.8999,-2.9033,-3.3591,-3.3458,-3.3108,-3.2696,-3.2322,-3.1691,-3.1347,-3.1263,-3.1333,-3.1223,-3.1011,-3.0736,-3.0605,-3.057,-3.101,-3.1135,-3.1156,-3.1539,-3.1819,-3.1859,-3.1859,-3.2072,-3.2399,-3.2399,-3.2514,-3.2799,-3.2799,-3.2799,-3.2799,-3.2799,-3.2799,-3.2799,-3.2799,-3.297,-3.3275,-3.3501,-3.3636,-3.3749,-3.3685,-3.3642,-3.3642,-3.3578,-3.3535,-3.3535,-3.3535,-3.3343,-3.2937,-3.2882,-3.2648,-3.22,-3.2104,-3.1813,-3.1262,-3.0826,-3.0331,-2.9756,-2.9298,-2.9003,-2.8898,-2.8476,-2.7999,-2.7519,-2.7412,-2.753,-2.7803,-2.7961,-2.8181,-2.8356,-2.8709,-2.8951,-2.9003,-2.9015,-2.9048,-2.9068,-2.914,-2.9181,-2.9274,-2.9274,-2.9315,-2.9416,-2.9343,-2.9416,-2.953,-2.9457,-2.9619,-2.9776,-2.9823,-2.987,-2.9942,-2.9702,-2.9513,-2.9722,-2.9769,-2.9876,-2.9913,-2.9983,-2.9648,-2.9486,-2.9225,-2.8945,-2.8722,-2.8667,-2.8742,-2.8687,-2.8686,-2.8705,-2.8668,-2.867,-2.8705,-2.8742,-2.8742,-2.8705,-2.8686,-2.8686,-2.868,-3.3388,-3.3084,-3.2874,-3.2508,-3.2035,-3.1717,-3.1418,-3.1237,-3.1094,-3.1164,-3.1354,-3.124,-3.0957,-3.0673,-3.0928,-3.0797,-3.0451,-3.0645,-3.0859,-3.1034,-3.1208,-3.1441,-3.171,-3.1883,-3.2076,-3.219,-3.219,-3.219,-3.219,-3.2227,-3.217,-3.217,-3.217,-3.2305,-3.242,-3.2592,-3.2649,-3.2649,-3.3275,-3.3614,-3.3614,-3.3614,-3.3614,-3.3614,-3.3445,-3.3283,-3.3071,-3.2713,-3.2336,-3.1878,-3.1692,-3.1367,-3.0846,-3.0642,-3.0267,-2.9699,-2.9411,-2.9183,-2.8875,-2.86,-2.8325,-2.8048,-2.8048,-2.8136,-2.8222,-2.7931,-2.7776,-2.7882,-2.8077,-2.8281,-2.8441,-2.8601,-2.8708,-2.8887,-2.9046,-2.9132,-2.9132,-2.9132,-2.9159,-2.9434,-2.9494,-2.9541,-2.9762,-2.9782,-2.9788,-2.9919,-2.9683,-2.9486,-2.9458,-2.9092,-2.9043,-2.9494,-2.9553,-2.9411,-2.9439,-2.9366,-2.9178,-2.901,-2.8897,-2.8785,-2.8634,-2.8578,-2.8578,-2.8578,-2.8578,-2.8578,-2.8578,-2.8615,-2.8578,-2.8578,-2.8578,-2.8578,-2.8578,-2.8578,-2.8595,-3.2991,-3.2514,-3.2514,-3.217,-3.1672,-3.1556,-3.1325,-3.1092,-3.0781,-3.0976,-3.1325,-3.1383,-3.1092,-3.0684,-3.0684,-3.0392,-2.9922,-2.9922,-3.0039,-3.0274,-3.0567,-3.0801,-3.0976,-3.1267,-3.1383,-3.1383,-3.1383,-3.1383,-3.1383,-3.1383,-3.1383,-3.1383,-3.1441,-3.1498,-3.1614,-3.1672,-3.173,-3.1845,-3.2706,-3.3218,-3.3161,-3.3161,-3.3161,-3.3161,-3.297,-3.2856,-3.2856,-3.2342,-3.197,-3.1645,-3.1321,-3.0934,-3.0538,-3.0306,-2.9967,-2.9519,-2.9385,-2.9066,-2.8578,-2.8521,-2.8521,-2.8389,-2.8408,-2.8389,-2.8352,-2.7863,-2.7542,-2.7652,-2.7744,-2.7853,-2.8071,-2.8288,-2.8486,-2.8648,-2.8844,-2.8937,-2.9005,-2.9005,-2.9124,-2.9461,-2.952,-2.9639,-2.9917,-3.0016,-2.9869,-2.9744,-2.9523,-2.9184,-2.8975,-2.8918,-2.9127,-2.9316,-2.9277,-2.9183,-2.8937,-2.8994,-2.8956,-2.8861,-2.8822,-2.8822,-2.8746,-2.8708,-2.8689,-2.8688,-2.8727,-2.8688,-2.8708,-2.8708,-2.8727,-2.8707,-2.8726,-2.867,-2.8707,-2.8707,-2.8653,-3.219,-3.1903,-3.1903,-3.1672,-3.1325,-3.0801,-3.0567,-3.045,-3.0157,-3.0039,-3.0157,-3.0098,-3.0098,-2.9981,-2.9981,-2.9981,-2.9863,-2.9922,-2.9922,-2.9922,-2.9981,-3.0039,-3.0039,-3.0098,-3.0098,-3.0098,-3.0157,-3.0216,-3.0216,-3.0157,-3.0098,-3.0098,-3.0392,-3.0665,-3.0956,-3.1208,-3.1498,-3.1787,-3.1903,-3.196,-3.196,-3.196,-3.196,-3.196,-3.196,-3.1903,-3.1903,-3.1845,-3.1825,-3.1805,-3.1419,-3.1129,-3.0799,-3.0179,-2.9642,-2.9355,-2.8975,-2.8578,-2.8295,-2.8219,-2.82,-2.7879,-2.7915,-2.7934,-2.7934,-2.7823,-2.7995,-2.8333,-2.8446,-2.8389,-2.8521,-2.8539,-2.8539,-2.8612,-2.865,-2.8614,-2.8689,-2.8614,-2.8652,-2.8671,-2.8859,-2.8747,-2.8974,-2.9012,-2.9051,-2.9451,-2.9602,-2.9657,-2.9559,-2.9559,-2.95,-2.95,-2.9331,-2.9429,-2.9521,-2.9749,-2.9519,-2.9381,-2.9359,-2.9245,-2.8972,-2.8932,-2.8965,-2.888,-2.895,-2.8932,-2.8891,-2.8983,-2.8928,-2.8877,-2.8895,-2.8947,-2.8983,-2.8928,-2.8787,-3.1787,-3.1498,-3.1498,-3.1208,-3.0743,-3.0509,-3.0255,-3.0098,-2.9804,-2.9686,-2.9627,-2.945,-2.945,-2.9627,-2.9686,-2.9568,-2.939,-2.939,-2.9331,-2.939,-2.9568,-2.9686,-2.9686,-2.9804,-2.9922,-2.9922,-2.9922,-2.9922,-2.9922,-2.9922,-2.9922,-2.9922,-3.0039,-3.0216,-3.0333,-3.045,-3.0567,-3.0684,-3.0684,-3.0684,-3.0743,-3.1208,-3.1498,-3.1441,-3.115,-3.0976,-3.0976,-3.0801,-3.0684,-3.0684,-3.0567,-3.0392,-3.0333,-2.9985,-2.9715,-2.9423,-2.9058,-2.8772,-2.8674,-2.8655,-2.8597,-2.848,-2.8538,-2.848,-2.848,-2.848,-2.8597,-2.8735,-2.8403,-2.8163,-2.8351,-2.8351,-2.8408,-2.8559,-2.8578,-2.8578,-2.8578,-2.8578,-2.871,-2.8956,-2.9012,-2.9107,-2.9296,-2.9353,-2.937,-2.9423,-2.9611,-2.9608,-2.945,-2.939,-2.9331,-2.9253,-2.9183,-2.9164,-2.9372,-2.939,-2.9331,-2.9213,-2.9213,-2.9094,-2.9035,-2.8975,-2.8975,-2.8975,-2.8975,-2.8975,-2.8998,-2.8975,-2.8975,-2.8975,-2.8975,-2.8975,-2.8975,-2.8975,-2.8851,-3.1498,-3.1228,-3.1092,-3.0743,-3.0274,-3.0216,-3.0039,-2.9745,-2.9509,-2.939,-2.9331,-2.9094,-2.9153,-2.9331,-2.939,-2.9213,-2.9035,-2.8975,-2.8975,-2.9035,-2.9272,-2.939,-2.939,-2.9568,-2.9627,-2.9686,-2.9627,-2.9627,-2.9627,-2.9627,-2.9627,-2.9627,-2.9627,-2.9686,-2.9804,-2.9804,-2.9804,-2.9922,-2.9922,-2.9922,-2.9981,-3.0509,-3.0859,-3.0859,-3.0509,-3.0274,-3.0274,-3.0039,-2.9922,-2.9922,-2.9804,-2.9804,-2.9804,-2.9686,-2.9568,-2.939,-2.9153,-2.8975,-2.8975,-2.8975,-2.8975,-2.8975,-2.8975,-2.8975,-2.8975,-2.8975,-2.8975,-2.892,-2.8502,-2.8247,-2.8383,-2.8383,-2.8498,-2.867,-2.8688,-2.8688,-2.8707,-2.8746,-2.8819,-2.9139,-2.9137,-2.9289,-2.9552,-2.9589,-2.9471,-2.9353,-2.9331,-2.9272,-2.9053,-2.9035,-2.9035,-2.8975,-2.8975,-2.8975,-2.8975,-2.9035,-2.8975,-2.8975,-2.9035,-2.9035,-2.8975,-2.8975,-2.8975,-2.8975,-2.8975,-2.8975,-2.8975,-2.8975,-2.8975,-2.8975,-2.8975,-2.8975,-2.8975,-2.8975,-2.8975,-3.117,-3.0879,-3.0567,-3.0274,-2.9922,-2.9686,-2.9568,-2.9509,-2.9213,-2.9035,-2.9035,-2.9035,-2.8975,-2.9035,-2.9035,-2.9035,-2.8975,-2.8975,-2.8975,-2.8975,-2.9035,-2.9053,-2.8975,-2.9035,-2.9035,-2.9094,-2.9112,-2.9112,-2.9094,-2.9094,-2.9035,-2.9035,-2.9094,-2.9213,-2.945,-2.9509,-2.9627,-2.9804,-2.9863,-2.9863,-2.9863,-2.9686,-2.9745,-2.9981,-2.9922,-2.9922,-2.9922,-2.9922,-2.9863,-2.9922,-2.9627,-2.9509,-2.9509,-2.9213,-2.9035,-2.9053,-2.8975,-2.8975,-2.8975,-2.8975,-2.8975,-2.8975,-2.8975,-2.8975,-2.8975,-2.8975,-2.8975,-2.8975,-2.8902,-2.8906,-2.8906,-2.8832,-2.8888,-2.8947,-2.8943,-2.8983,-2.8943,-2.8928,-2.8979,-2.9039,-2.902,-2.9098,-2.9094,-2.9035,-2.9094,-2.9035,-2.9035,-2.9035,-2.9035,-2.8975,-2.8975,-2.8975,-2.8975,-2.8975,-2.8975,-2.8975,-2.8975,-2.8975,-2.8975,-2.8975,-2.8975,-2.8975,-2.8975,-2.8975,-2.8975,-2.8975,-2.8975,-2.8975,-2.8975,-2.8975,-2.8975,-2.8975,-2.8975,-2.8975,-2.8975,-3.0879,-3.0567,-3.0216,-2.9922,-2.9627,-2.9568,-2.939,-2.9172,-2.9035,-2.8975,-2.8975,-2.8975,-2.8975,-2.8975,-2.8975,-2.8975,-2.8975,-2.8975,-2.8975,-2.8975,-2.8975,-2.8975,-2.8975,-2.8975,-2.8975,-2.8975,-2.8975,-2.8975,-2.8975,-2.8975,-2.8975,-2.8975,-2.8975,-2.9035,-2.9153,-2.9153,-2.9213,-2.9331,-2.9331,-2.9331,-2.9331,-2.9213,-2.9213,-2.9331,-2.9331,-2.9331,-2.9331,-2.9331,-2.9331,-2.9331,-2.9213,-2.9213,-2.9153,-2.9094,-2.8975,-2.8975,-2.8975,-2.8975,-2.8975,-2.8975,-2.8975,-2.8975,-2.8975,-2.8975,-2.8975,-2.8975,-2.8975,-2.8975,-2.8975,-2.8975,-2.8975,-2.8975,-2.8975,-2.8975,-2.8975,-2.8975,-2.8975,-2.8975,-2.8975,-2.8975,-2.8975,-2.8975,-2.8975,-2.8975,-2.8975,-2.8975,-2.8975,-2.8975,-2.8975,-2.8975,-2.8975,-2.8975,-2.8975,-2.8975,-2.8975,-2.8975,-2.8975,-2.8975,-2.8975,-2.8975,-2.8975,-2.8975,-2.8975,-2.8975,-2.8975,-2.8975,-2.8975,-2.8975,-2.8975,-2.8975,-2.8975,-2.8975,-2.8975,-2.8975,-2.8975,-3.0411,-3.0098,-2.9863,-2.9627,-2.9331,-2.9331,-2.9213,-2.8975,-2.8975,-2.8975,-2.8975,-2.8975,-2.8975,-2.8975,-2.8975,-2.8975,-2.8975,-2.8975,-2.8975,-2.8975,-2.8975,-2.8975,-2.8975,-2.8975,-2.8975,-2.8975,-2.8975,-2.8975,-2.8975,-2.8975,-2.8975,-2.8975,-2.8975,-2.8975,-2.8975,-2.8975,-2.8975,-2.8975,-2.8975,-2.8993,-2.8975,-2.8975,-2.8975,-2.8975,-2.8975,-2.8975,-2.8975,-2.8975,-2.8975,-2.8975,-2.8975,-2.8975,-2.8975,-2.8975,-2.8975,-2.8975,-2.8975,-2.8975,-2.8975,-2.8975,-2.8975,-2.8975,-2.8975,-2.8975,-2.8975,-2.8975,-2.8975,-2.8975,-2.8975,-2.8975,-2.8975,-2.8975,-2.8975,-2.8975,-2.8975,-2.8975,-2.8975,-2.8975,-2.8975,-2.8975,-2.8975,-2.8975,-2.8975,-2.8975,-2.8975,-2.8975,-2.8975,-2.8975,-2.8975,-2.8975,-2.8975,-2.8975,-2.8975,-2.8975,-2.8975,-2.8975,-2.8975,-2.8975,-2.8975,-2.8975,-2.8975,-2.8975,-2.8975,-2.8975,-2.8975,-2.8975,-2.8975,-2.8975,-2.8975,-2.8975,-2.8975,-2.8975,-2.8975,-2.8975,-2.8975,-2.9745,-2.9568,-2.9509,-2.9331,-2.9053,-2.9035,-2.8975,-2.8975,-2.8975,-2.8975,-2.8975,-2.8975,-2.8975,-2.8975,-2.8975,-2.8975,-2.8975,-2.8975,-2.8975,-2.8975,-2.8975,-2.8975,-2.8975,-2.8975,-2.8975,-2.8975,-2.8975,-2.8975,-2.8975,-2.8975,-2.8975,-2.8975,-2.8975,-2.8975,-2.8975,-2.8975,-2.8975,-2.8975,-2.8975,-2.8975,-2.8975,-2.8975,-2.8975,-2.8975,-2.8975,-2.8975,-2.8975,-2.8975,-2.8975,-2.8975,-2.8975,-2.8975,-2.8975,-2.8975,-2.8975,-2.8975,-2.8975,-2.8975,-2.8975,-2.8975,-2.8975,-2.8975,-2.8975,-2.8975,-2.8975,-2.8975,-2.8975,-2.8975,-2.8975,-2.8975,-2.8975,-2.8975,-2.8975,-2.8975,-2.8975,-2.8975,-2.8975,-2.8975,-2.8975,-2.8975,-2.8975,-2.8975,-2.8975,-2.8975,-2.8975,-2.8975,-2.8975,-2.8975,-2.8975,-2.8975,-2.8975,-2.8975,-2.8975,-2.8975,-2.8975,-2.8975,-2.8975,-2.8975,-2.8975,-2.8975,-2.8975,-2.8975,-2.8975,-2.8975,-2.8975,-2.8975,-2.8975,-2.8975,-2.8975,-2.8975,-2.8975,-2.8975,-2.8975,-2.8975,-2.8975,-2.9568,-2.945,-2.9272,-2.9094,-2.8993,-2.8975,-2.8975,-2.8975,-2.8975,-2.8975,-2.8975,-2.8975,-2.8975,-2.8975,-2.8975,-2.8975,-2.8975,-2.8975,-2.8975,-2.8975,-2.8975,-2.8975,-2.8975,-2.8975,-2.8975,-2.8975,-2.8975,-2.8975,-2.8975,-2.8975,-2.8975,-2.8975,-2.8975,-2.8975,-2.8975,-2.8975,-2.8975,-2.8975,-2.8975,-2.8975,-2.8975,-2.8975,-2.8975,-2.8975,-2.8975,-2.8975,-2.8975,-2.8975,-2.8975,-2.8975,-2.8975,-2.8975,-2.8975,-2.8975,-2.8975,-2.8975,-2.8975,-2.8975,-2.8975,-2.8975,-2.8975,-2.8975,-2.8975,-2.8975,-2.8975,-2.8975,-2.8975,-2.8975,-2.8975,-2.8975,-2.8975,-2.8975,-2.8975,-2.8975,-2.8975,-2.8975,-2.8975,-2.8975,-2.8975,-2.8975,-2.8975,-2.8975,-2.8975,-2.8975,-2.8975,-2.8975,-2.8975,-2.8975,-2.8975,-2.8975,-2.8975,-2.8975,-2.8975,-2.8975,-2.8975,-2.8975,-2.8975,-2.8975,-2.8975,-2.8975,-2.8975,-2.8975,-2.8975,-2.8975,-2.8975,-2.8975,-2.8975,-2.8975,-2.8975,-2.8975,-2.8975,-2.8975,-2.8975,-2.8975,-2.8975,-2.9331,-2.9272,-2.9094,-2.8975,-2.8975,-2.8975,-2.8975,-2.8975,-2.8975,-2.8975,-2.8975,-2.8975,-2.8975,-2.8975,-2.8975,-2.8975,-2.8975,-2.8975,-2.8975,-2.8975,-2.8975,-2.8975,-2.8975,-2.8975,-2.8975,-2.8975,-2.8975,-2.8975,-2.8975,-2.8975,-2.8975,-2.8975,-2.8975,-2.8975,-2.8975,-2.8975,-2.8975,-2.8975,-2.8975,-2.8975,-2.8975,-2.8975,-2.8975,-2.8975,-2.8975,-2.8975,-2.8975,-2.8975,-2.8975,-2.8975,-2.8975,-2.8975,-2.8975,-2.8975,-2.8975,-2.8975,-2.8975,-2.8975,-2.8975,-2.8975,-2.8975,-2.8975,-2.8975,-2.8975,-2.8975,-2.8975,-2.8975,-2.8975,-2.8975,-2.8975,-2.8975,-2.8975,-2.8975,-2.8975,-2.8975,-2.8975,-2.8975,-2.8975,-2.8975,-2.8975,-2.8975,-2.8975,-2.8975,-2.8975,-2.8975,-2.8975,-2.8975,-2.8975,-2.8975,-2.8975,-2.8975,-2.8975,-2.8975,-2.8975,-2.8975,-2.8975,-2.8975,-2.8975,-2.8975,-2.8975,-2.8975,-2.8975,-2.8975,-2.8975,-2.8975,-2.8975,-2.8975,-2.8975,-2.8975,-2.8975,-2.8975,-2.8975,-2.8975,-2.8975,-2.8975,-2.8993,-2.8975,-2.8975,-2.8975,-2.8975,-2.8975,-2.8975,-2.8975,-2.8975,-2.8975,-2.8975,-2.8975,-2.8975,-2.8975,-2.8975,-2.8975,-2.8975,-2.8975,-2.8975,-2.8975,-2.8975,-2.8975,-2.8975,-2.8975,-2.8975,-2.8975,-2.8975,-2.8975,-2.8975,-2.8975,-2.8975,-2.8975,-2.8975,-2.8975,-2.8975,-2.8975,-2.8975,-2.8975,-2.8975,-2.8975,-2.8975,-2.8975,-2.8975,-2.8975,-2.8975,-2.8975,-2.8975,-2.8975,-2.8975,-2.8975,-2.8975,-2.8975,-2.8975,-2.8975,-2.8975,-2.8975,-2.8975,-2.8975,-2.8975,-2.8975,-2.8975,-2.8975,-2.8975,-2.8975,-2.8975,-2.8975,-2.8975,-2.8975,-2.8975,-2.8975,-2.8975,-2.8975,-2.8975,-2.8975,-2.8975,-2.8975,-2.8975,-2.8975,-2.8975,-2.8975,-2.8975,-2.8975,-2.8975,-2.8975,-2.8975,-2.8975,-2.8975,-2.8975,-2.8975,-2.8975,-2.8975,-2.8975,-2.8975,-2.8975,-2.8975,-2.8975,-2.8975,-2.8975,-2.8975,-2.8975,-2.8975,-2.8975,-2.8975,-2.8975,-2.8975,-2.8975,-2.8975,-2.8975,-2.8975,-2.8975,-2.8975,-2.8975,-2.8975,-2.8975,-2.8975,-2.8975,-2.8975,-2.8975,-2.8975,-2.8975,-2.8975,-2.8975,-2.8975,-2.8975,-2.8975,-2.8975,-2.8975,-2.8975,-2.8975,-2.8975,-2.8975,-2.8975,-2.8975,-2.8975,-2.8975,-2.8975,-2.8975,-2.8975,-2.8975,-2.8975,-2.8975,-2.8975,-2.8975,-2.8975,-2.8975,-2.8975,-2.8975,-2.8975,-2.8975,-2.8975,-2.8975,-2.8975,-2.8975,-2.8975,-2.8975,-2.8975,-2.8975,-2.8975,-2.8975,-2.8975,-2.8975,-2.8975,-2.8975,-2.8975,-2.8975,-2.8975,-2.8975,-2.8975,-2.8975,-2.8975,-2.8975,-2.8975,-2.8975,-2.8975,-2.8975,-2.8975,-2.8975,-2.8975,-2.8975,-2.8975,-2.8975,-2.8975,-2.8975,-2.8975,-2.8975,-2.8975,-2.8975,-2.8975,-2.8975,-2.8975,-2.8975,-2.8975,-2.8975,-2.8975,-2.8975,-2.8975,-2.8975,-2.8975,-2.8975,-2.8975,-2.8975,-2.8975,-2.8975,-2.8975,-2.8975,-2.8975,-2.8975,-2.8975,-2.8975,-2.8975,-2.8975,-2.8975,-2.8975,-2.8975,-2.8975,-2.8975,-2.8975,-2.8975,-2.8975,-2.8975,-2.8975,-2.8975,-2.8975,-2.8975,-2.8975,-2.8975,-2.8975,-2.8975,-2.8975,-2.8975,-2.8975,-2.8975,-2.8975,-2.8975,-2.8975,-2.8975,-2.8975,-2.8975,-2.8975,-2.8975,-2.8975,-2.8975,-2.8975,-2.8975,-2.8975,-2.8975,-2.8975,-2.8975,-2.8975,-2.8975,-2.8975,-2.8975,-2.8975,-2.8975,-2.8975,-2.8975,-2.8975,-2.8975,-2.8975,-2.8975,-2.8975,-2.8975,-2.8975,-2.8975,-2.8975,-2.8975,-2.8975,-2.8975,-2.8975,-2.8975,-2.8975,-2.8975,-2.8975,-2.8975,-2.8975,-2.8975,-2.8975,-2.8975,-2.8975,-2.8975,-2.8975,-2.8975,-2.8975,-2.8975,-2.8975,-2.8975,-2.8975,-2.8975,-2.8975,-2.8975,-2.8975,-2.8975,-2.8975,-2.8975,-2.8975,-2.8975,-2.8975,-2.8975,-2.8975,-2.8975,-2.8975,-2.8975,-2.8975,-2.8975,-2.8975,-2.8975,-2.8975,-2.8975,-2.8975,-2.8975,-2.8975,-2.8975,-2.8975,-2.8975,-2.8975,-2.8975,-2.8975,-2.8975,-2.8975,-2.8975,-2.8975,-2.8975,-2.8975,-2.8975,-2.8975,-2.8975,-2.8975,-2.8975,-2.8975,-2.8975,-2.8975,-2.8975,-2.8975,-2.8975,-2.8975,-2.8975,-2.8975,-2.8975,-2.8975,-2.8975,-2.8975,-2.8975,-2.8975,-2.8934,-2.8934,-2.8975,-2.8975,-2.8975,-2.8975,-2.8934,-2.8916,-2.8874,-2.8856,-2.8856,-2.8797,-2.8856,-2.8856,-2.8797,-2.8916,-2.8874,-2.8916,-2.8934,-2.8975,-2.8975,-2.8975,-2.8975,-2.8975,-2.8975,-2.8975,-2.8975,-2.8975,-2.8975,-2.8975,-2.8975,-2.8975,-2.8975,-2.8975,-2.8975,-2.8975,-2.8975,-2.8975,-2.8975,-2.8975,-2.8975,-2.8975,-2.8975,-2.8975,-2.8975,-2.8975,-2.8975,-2.8975,-2.8975,-2.8975,-2.8975,-2.8975,-2.8975,-2.8975,-2.8975,-2.8975,-2.8975,-2.8975,-2.8975,-2.8975,-2.8975,-2.8975,-2.8975,-2.8975,-2.8975,-2.8975,-2.8975,-2.8975,-2.8975,-2.8975,-2.8975,-2.8975,-2.8975,-2.8975,-2.8975,-2.8975,-2.8975,-2.8975,-2.8975,-2.8975,-2.8975,-2.8975,-2.8975,-2.8975,-2.8975,-2.8975,-2.8975,-2.8975,-2.8975,-2.8975,-2.8975,-2.8975,-2.8975,-2.8975,-2.8975,-2.8975,-2.8975,-2.8975,-2.8975,-2.8975,-2.8975,-2.8975,-2.8975,-2.8975,-2.8975,-2.8975,-2.8975,-2.8975,-2.8975,-2.8975,-2.8975,-2.8975,-2.8975,-2.8975,-2.8916,-2.8815,-2.8815,-2.8975,-2.8975,-2.8975,-2.8874,-2.8636,-2.8576,-2.8457,-2.8259,-2.8199,-2.8259,-2.8259,-2.8199,-2.8259,-2.8259,-2.8517,-2.8636,-2.8636,-2.8815,-2.8975,-2.8975,-2.8975,-2.8975,-2.8975,-2.8975,-2.8975,-2.8975,-2.8975,-2.8975,-2.8975,-2.8975,-2.8975,-2.8975,-2.8975,-2.8975,-2.8975,-2.8975,-2.8975,-2.8975,-2.8975,-2.8975,-2.8975,-2.8975,-2.8975,-2.8975,-2.8975,-2.8975,-2.8975,-2.8975,-2.8975,-2.8975,-2.8975,-2.8975,-2.8975,-2.8975,-2.8975,-2.8975,-2.8975,-2.8975,-2.8975,-2.8975,-2.8975,-2.8975,-2.8975,-2.8975,-2.8975,-2.8975,-2.8975,-2.8975,-2.8975,-2.8975,-2.8975,-2.8975,-2.8975,-2.8975,-2.8975,-2.8975,-2.8975,-2.8975,-2.8975,-2.8975,-2.8975,-2.8975,-2.8975,-2.8975,-2.8975,-2.8975,-2.8975,-2.8975,-2.8975,-2.8975,-2.8975,-2.8975,-2.8975,-2.8975,-2.8975,-2.8975,-2.8975,-2.8975,-2.8975,-2.8975,-2.8975,-2.8934,-2.8934,-2.8934,-2.8975,-2.8975,-2.8975,-2.8916,-2.8916,-2.8916,-2.8916,-2.8797,-2.8696,-2.8636,-2.8576,-2.8498,-2.8498,-2.8498,-2.8439,-2.8277,-2.8277,-2.814,-2.802,-2.802,-2.802,-2.802,-2.802,-2.802,-2.802,-2.8157,-2.8277,-2.8259,-2.8439,-2.8636,-2.8696,-2.8755,-2.8874,-2.8975,-2.8975,-2.8975,-2.8975,-2.8975,-2.8975,-2.8975,-2.8975,-2.8975,-2.8975,-2.8975,-2.8975,-2.8975,-2.8975,-2.8975,-2.8975,-2.8975,-2.8975,-2.8975,-2.8975,-2.8975,-2.8975,-2.8975,-2.8975,-2.8975,-2.8975,-2.8975,-2.8975,-2.8975,-2.8975,-2.8975,-2.8975,-2.8975,-2.8975,-2.8975,-2.8975,-2.8975,-2.8975,-2.8975,-2.8975,-2.8975,-2.8975,-2.8975,-2.8975,-2.8975,-2.8975,-2.8975,-2.8975,-2.8975,-2.8975,-2.8975,-2.8975,-2.8975,-2.8975,-2.8975,-2.8975,-2.8975,-2.8975,-2.8975,-2.8975,-2.8975,-2.8975,-2.8975,-2.8975,-2.8975,-2.8975,-2.8975,-2.8975,-2.8975,-2.8975,-2.8975,-2.8975,-2.8975,-2.8975,-2.8975,-2.8975,-2.8975,-2.8975,-2.8975,-2.8934,-2.8815,-2.8874,-2.8916,-2.8975,-2.8975,-2.8916,-2.8737,-2.8696,-2.8636,-2.8457,-2.8379,-2.8259,-2.8259,-2.802,-2.802,-2.802,-2.796,-2.796,-2.7882,-2.79,-2.784,-2.784,-2.7779,-2.784,-2.784,-2.7779,-2.784,-2.79,-2.796,-2.802,-2.802,-2.8199,-2.8397,-2.8439,-2.8558,-2.8677,-2.8737,-2.8737,-2.8874,-2.8993,-2.8975,-2.8975,-2.8975,-2.8975,-2.8975,-2.8975,-2.8975,-2.8975,-2.8975,-2.8975,-2.8975,-2.8975,-2.8975,-2.8975,-2.8975,-2.8975,-2.8975,-2.8975,-2.8975,-2.8975,-2.8975,-2.8975,-2.8975,-2.8975,-2.8975,-2.8975,-2.8975,-2.8975,-2.8975,-2.8975,-2.8975,-2.8975,-2.8975,-2.8975,-2.8975,-2.8975,-2.8975,-2.8975,-2.8975,-2.8975,-2.8975,-2.8975,-2.8975,-2.8975,-2.8975,-2.8975,-2.8975,-2.8975,-2.8975,-2.8975,-2.8975,-2.8975,-2.8975,-2.8975,-2.8975,-2.8975,-2.8975,-2.8975,-2.8975,-2.8975,-2.8975,-2.8975,-2.8975,-2.8975,-2.8975,-2.8975,-2.8874,-2.8815,-2.8773,-2.8833,-2.8828,-2.887,-2.8924,-2.8924,-2.8817,-2.8715,-2.8773,-2.8797,-2.8833,-2.8773,-2.8558,-2.8457,-2.8397,-2.8277,-2.8199,-2.808,-2.796,-2.7935,-2.802,-2.802,-2.802,-2.784,-2.7581,-2.7581,-2.7418,-2.7254,-2.7254,-2.7254,-2.7254,-2.7254,-2.7254,-2.7297,-2.7539,-2.7702,-2.784,-2.79,-2.796,-2.808,-2.808,-2.814,-2.8259,-2.8259,-2.8259,-2.8319,-2.8618,-2.8916,-2.8975,-2.8975,-2.8975,-2.8975,-2.8975,-2.8975,-2.8975,-2.8975,-2.8975,-2.8934,-2.8916,-2.8916,-2.8856,-2.8916,-2.8856,-2.8856,-2.8856,-2.8916,-2.8916,-2.8975,-2.8975,-2.8975,-2.8975,-2.8975,-2.8916,-2.8916,-2.8916,-2.8975,-2.8975,-2.8975,-2.8975,-2.8975,-2.8975,-2.8975,-2.8975,-2.8975,-2.8975,-2.8975,-2.8975,-2.8975,-2.8975,-2.8975,-2.8975,-2.8975,-2.8975,-2.8975,-2.8975,-2.8975,-2.8975,-2.8975,-2.8975,-2.8975,-2.8975,-2.8975,-2.8975,-2.8975,-2.8975,-2.8975,-2.8975,-2.8975,-2.8975,-2.8975,-2.8916,-2.8975,-2.8975,-2.8815,-2.8636,-2.8553,-2.8589,-2.8516,-2.851,-2.8635,-2.8671,-2.862,-2.8646,-2.8678,-2.8595,-2.8498,-2.8342,-2.8264,-2.824,-2.8303,-2.8119,-2.7935,-2.7895,-2.7852,-2.7609,-2.7539,-2.7539,-2.7539,-2.7358,-2.7039,-2.7056,-2.6874,-2.6631,-2.6571,-2.6571,-2.6571,-2.6571,-2.6709,-2.6813,-2.6995,-2.7237,-2.7478,-2.7556,-2.7599,-2.7702,-2.7762,-2.7822,-2.796,-2.796,-2.802,-2.808,-2.8319,-2.8558,-2.8696,-2.8755,-2.8815,-2.8975,-2.8975,-2.8975,-2.8975,-2.8975,-2.8856,-2.8815,-2.8755,-2.8618,-2.8498,-2.8498,-2.8498,-2.8498,-2.8498,-2.8498,-2.8498,-2.8498,-2.8498,-2.8439,-2.8439,-2.8498,-2.8498,-2.8498,-2.8618,-2.8916,-2.8993,-2.8975,-2.8975,-2.8975,-2.8975,-2.8975,-2.8975,-2.8975,-2.8975,-2.8975,-2.8975,-2.8975,-2.8975,-2.8975,-2.8975,-2.8975,-2.8975,-2.8975,-2.8975,-2.8975,-2.8975,-2.8975,-2.8916,-2.8916,-2.8916,-2.8916,-2.8975,-2.8975,-2.8975,-2.8975,-2.8975,-2.8916,-2.8916,-2.8929,-2.8828,-2.8823,-2.8877,-2.8751,-2.8546,-2.8599,-2.8496,-2.8384,-2.8333,-2.8456,-2.8597,-2.8641,-2.8641,-2.8694,-2.8474,-2.8316,-2.85,-2.8624,-2.8491,-2.8298,-2.8131,-2.7964,-2.7902,-2.7761,-2.7491,-2.6891,-2.6891,-2.6891,-2.6753,-2.651,-2.651,-2.6388,-2.6128,-2.6144,-2.6128,-2.6067,-2.6128,-2.6266,-2.6449,-2.651,-2.6631,-2.6891,-2.6891,-2.7056,-2.722,-2.728,-2.7461,-2.7719,-2.784,-2.7779,-2.7719,-2.7779,-2.802,-2.8319,-2.8397,-2.8558,-2.8618,-2.8737,-2.8797,-2.8737,-2.8677,-2.8558,-2.8517,-2.8397,-2.8217,-2.808,-2.802,-2.802,-2.802,-2.802,-2.802,-2.808,-2.808,-2.808,-2.808,-2.802,-2.802,-2.802,-2.802,-2.8259,-2.8677,-2.8874,-2.8934,-2.8975,-2.8975,-2.8975,-2.8975,-2.8975,-2.8975,-2.8975,-2.8975,-2.8975,-2.8916,-2.8856,-2.8797,-2.8737,-2.8737,-2.8737,-2.8737,-2.8737,-2.8797,-2.8737,-2.8677,-2.8696,-2.8677,-2.8815,-2.8893,-2.8971,-2.8815,-2.8755,-2.8696,-2.8696,-2.8558,-2.8535,-2.8655,-2.8666,-2.8678,-2.8628,-2.8613,-2.8579,-2.8624,-2.8553,-2.8455,-2.8428,-2.8515,-2.8672,-2.8748,-2.8668,-2.8639,-2.8616,-2.8535,-2.8754,-2.8769,-2.8327,-2.8088,-2.8054,-2.7946,-2.7604,-2.7508,-2.7349,-2.6205,-2.625,-2.6205,-2.6189,-2.6128,-2.6128,-2.6128,-2.6006,-2.5945,-2.6067,-2.5945,-2.6006,-2.6006,-2.6128,-2.6205,-2.6189,-2.625,-2.6327,-2.651,-2.6736,-2.6753,-2.6935,-2.7133,-2.7194,-2.7194,-2.7211,-2.7211,-2.7556,-2.7875,-2.7995,-2.808,-2.8199,-2.8199,-2.814,-2.8259,-2.8259,-2.808,-2.808,-2.8055,-2.8073,-2.803,-2.797,-2.797,-2.803,-2.797,-2.8006,-2.7981,-2.7998,-2.8023,-2.7988,-2.8013,-2.7977,-2.802,-2.802,-2.802,-2.8199,-2.8397,-2.8696,-2.8874,-2.8856,-2.8856,-2.8856,-2.8916,-2.8975,-2.8856,-2.8856,-2.8797,-2.8576,-2.8576,-2.8457,-2.8319,-2.814,-2.814,-2.8199,-2.8259,-2.8217,-2.8235,-2.8559,-2.8541,-2.857,-2.8702,-2.8835,-2.8883,-2.869,-2.8517,-2.8457,-2.8355,-2.8331,-2.83,-2.8549,-2.8526,-2.8571,-2.858,-2.8561,-2.8532,-2.8619,-2.8633,-2.8513,-2.8518,-2.8553,-2.8563,-2.8588,-2.8595,-2.8533,-2.8553,-2.85,-2.8486,-2.8345,-2.8001,-2.7925,-2.7966,-2.7674,-2.722,-2.7189,-2.7258,-2.5394,-2.6067,-2.6067,-2.59,-2.5533,-2.5533,-2.5272,-2.5026,-2.4964,-2.4964,-2.4964,-2.4964,-2.5149,-2.5517,-2.5884,-2.6067,-2.6083,-2.6022,-2.6144,-2.63,-2.6361,-2.6405,-2.651,-2.651,-2.651,-2.6671,-2.6789,-2.703,-2.7391,-2.7643,-2.7779,-2.7995,-2.7977,-2.802,-2.797,-2.7977,-2.8041,-2.8053,-2.8123,-2.8122,-2.8122,-2.8122,-2.8122,-2.8105,-2.8105,-2.8105,-2.8105,-2.8122,-2.8139,-2.8139,-2.8122,-2.8139,-2.8139,-2.8139,-2.8201,-2.8404,-2.8527,-2.8559,-2.8409,-2.8475,-2.8553,-2.8457,-2.8457,-2.8379,-2.8439,-2.8475,-2.8475,-2.8259,-2.8217,-2.8175,-2.8055,-2.802,-2.802,-2.7977,-2.8023,-2.8129,-2.826,-2.8357,-2.8506,-2.8552,-2.8579,-2.8735,-2.8803,-2.8664,-2.8524,-2.8549,-2.8595,-2.8614,-2.8624,-2.8685,-2.8622,-2.8442,-2.8511,-2.8518,-2.8501,-2.8592,-2.8571,-2.8544,-2.8387,-2.8437,-2.8422,-2.8426,-2.8393,-2.8361,-2.8344,-2.8309,-2.8221,-2.814,-2.801,-2.7962,-2.793,-2.7572,-2.723,-2.7165,-2.7131,-2.4656,-2.5578,-2.5578,-2.5272,-2.4857,-2.4857,-2.461,-2.4162,-2.4177,-2.4115,-2.4115,-2.4177,-2.4425,-2.4857,-2.5288,-2.552,-2.5662,-2.5708,-2.5912,-2.6006,-2.6101,-2.6257,-2.643,-2.6459,-2.6459,-2.6331,-2.6707,-2.6948,-2.7114,-2.735,-2.7599,-2.8018,-2.8062,-2.807,-2.8035,-2.8027,-2.8044,-2.7927,-2.7855,-2.7849,-2.7866,-2.7882,-2.7882,-2.7899,-2.7933,-2.7933,-2.7933,-2.7899,-2.7899,-2.7882,-2.7849,-2.7832,-2.7832,-2.7815,-2.7957,-2.8209,-2.8334,-2.8286,-2.8263,-2.8288,-2.826,-2.8243,-2.8243,-2.8488,-2.8374,-2.8243,-2.82,-2.8288,-2.8288,-2.821,-2.8078,-2.8053,-2.8044,-2.8079,-2.8044,-2.8246,-2.8368,-2.8359,-2.835,-2.842,-2.8445,-2.8595,-2.8667,-2.8525,-2.8552,-2.865,-2.8729,-2.8895,-2.8794,-2.8702,-2.857,-2.8384,-2.8422,-2.8409,-2.8446,-2.8485,-2.854,-2.8393,-2.8296,-2.8246,-2.8262,-2.8131,-2.8015,-2.8048,-2.7998,-2.7668,-2.7276,-2.7685,-2.7998,-2.7735,-2.7456,-2.7487,-2.732,-2.72,-2.6918,-2.4162,-2.4239,-2.4224,-2.4224,-2.4177,-2.4177,-2.4177,-2.4038,-2.4053,-2.4053,-2.4037,-2.4146,-2.4207,-2.4301,-2.4502,-2.4672,-2.4763,-2.4715,-2.5297,-2.585,-2.6104,-2.6279,-2.6437,-2.6626,-2.6755,-2.6755,-2.6726,-2.6806,-2.7076,-2.7156,-2.7596,-2.8037,-2.8026,-2.8129,-2.8112,-2.8043,-2.7969,-2.7773,-2.7591,-2.7497,-2.7416,-2.74,-2.74,-2.7319,-2.727,-2.7173,-2.7189,-2.74,-2.7433,-2.7449,-2.753,-2.753,-2.7563,-2.7546,-2.7755,-2.7946,-2.8056,-2.8082,-2.8197,-2.8497,-2.8844,-2.8941,-2.8906,-2.8756,-2.8641,-2.8888,-2.8879,-2.8497,-2.8331,-2.8276,-2.8202,-2.8146,-2.7991,-2.794,-2.7888,-2.8009,-2.8129,-2.818,-2.8169,-2.8249,-2.8335,-2.8489,-2.8477,-2.8413,-2.8449,-2.849,-2.8484,-2.858,-2.8473,-2.8412,-2.837,-2.8292,-2.8278,-2.8328,-2.8279,-2.8296,-2.8131,-2.7998,-2.7849,-2.7932,-2.7981,-2.7849,-2.7451,-2.7334,-2.72,-2.6733,-2.6532,-2.6867,-2.7067,-2.7083,-2.7016,-2.6934,-2.6733,-2.6465,-2.628,-2.3355,-2.3168,-2.3168,-2.3417,-2.379,-2.379,-2.3666,-2.3479,-2.3479,-2.3613,-2.3806,-2.4175,-2.4408,-2.4393,-2.4678,-2.4787,-2.4924,-2.4924,-2.5224,-2.5319,-2.5558,-2.5703,-2.5895,-2.5991,-2.5815,-2.5974,-2.61,-2.647,-2.6793,-2.6938,-2.7621,-2.7945,-2.7758,-2.7587,-2.7587,-2.7788,-2.7808,-2.7763,-2.7766,-2.7833,-2.785,-2.785,-2.7833,-2.785,-2.785,-2.785,-2.785,-2.785,-2.785,-2.7768,-2.7735,-2.7654,-2.7572,-2.7654,-2.7719,-2.7914,-2.7962,-2.8108,-2.8202,-2.8477,-2.8501,-2.8563,-2.8546,-2.8598,-2.865,-2.8581,-2.8501,-2.8358,-2.8237,-2.8099,-2.795,-2.768,-2.7504,-2.7554,-2.7621,-2.7785,-2.7933,-2.8,-2.8084,-2.8263,-2.8286,-2.8307,-2.8341,-2.8292,-2.8286,-2.8392,-2.8334,-2.8257,-2.8128,-2.8047,-2.8032,-2.79,-2.7899,-2.7998,-2.7998,-2.7799,-2.7666,-2.7467,-2.7334,-2.7334,-2.7334,-2.6934,-2.6599,-2.6465,-2.6465,-2.6264,-2.613,-2.613,-2.6264,-2.6414,-2.6347,-2.6197,-2.6011,-2.5742,-2.5592,-2.2668,-2.2495,-2.2517,-2.2817,-2.312,-2.3271,-2.3189,-2.303,-2.3068,-2.3183,-2.3428,-2.3919,-2.4136,-2.4201,-2.4461,-2.4665,-2.471,-2.482,-2.5026,-2.5232,-2.5358,-2.5297,-2.5363,-2.5443,-2.5716,-2.5489,-2.5611,-2.611,-2.6506,-2.6757,-2.7055,-2.7176,-2.7148,-2.702,-2.7538,-2.7458,-2.754,-2.7622,-2.7554,-2.7666,-2.7584,-2.7567,-2.7567,-2.7485,-2.7403,-2.7403,-2.737,-2.7288,-2.7387,-2.7403,-2.7469,-2.7501,-2.7584,-2.7666,-2.7799,-2.7865,-2.7998,-2.8064,-2.818,-2.8274,-2.8209,-2.831,-2.8277,-2.826,-2.8209,-2.8192,-2.831,-2.8277,-2.805,-2.7872,-2.7855,-2.7779,-2.7748,-2.7879,-2.7798,-2.7945,-2.8012,-2.8078,-2.8195,-2.8294,-2.8246,-2.8246,-2.8098,-2.8065,-2.7999,-2.8112,-2.8309,-2.8081,-2.7719,-2.7701,-2.7602,-2.7435,-2.7318,-2.74,-2.7533,-2.72,-2.6934,-2.6867,-2.6666,-2.6465,-2.6331,-2.5996,-2.5928,-2.5996,-2.5996,-2.5861,-2.5659,-2.5457,-2.5592,-2.5944,-2.5727,-2.5457,-2.5119,-2.4849,-2.4849,-2.2118,-2.2146,-2.2426,-2.2448,-2.2279,-2.2504,-2.2694,-2.2736,-2.2976,-2.3051,-2.3145,-2.3215,-2.3243,-2.3309,-2.3774,-2.402,-2.4245,-2.4503,-2.4804,-2.5182,-2.5182,-2.5554,-2.5755,-2.571,-2.5568,-2.6017,-2.5935,-2.5905,-2.6151,-2.6182,-2.6264,-2.6331,-2.646,-2.6761,-2.7998,-2.7501,-2.7251,-2.7118,-2.6599,-2.6465,-2.6414,-2.6465,-2.6532,-2.6532,-2.6532,-2.6599,-2.6599,-2.6599,-2.6599,-2.6599,-2.6532,-2.6532,-2.6532,-2.6465,-2.6666,-2.7134,-2.72,-2.7533,-2.8114,-2.8213,-2.813,-2.8278,-2.8243,-2.831,-2.8279,-2.8312,-2.8294,-2.8227,-2.813,-2.813,-2.818,-2.8114,-2.7917,-2.7752,-2.7654,-2.7654,-2.7637,-2.7669,-2.7602,-2.7584,-2.7981,-2.8196,-2.7932,-2.7799,-2.7716,-2.7816,-2.818,-2.7932,-2.74,-2.7134,-2.7067,-2.6934,-2.68,-2.68,-2.68,-2.6398,-2.6197,-2.613,-2.5996,-2.5727,-2.5659,-2.5592,-2.5524,-2.5592,-2.539,-2.5187,-2.4834,-2.4563,-2.4849,-2.5052,-2.4849,-2.4578,-2.4238,-2.417,-2.4292,-2.2104,-2.2107,-2.2217,-2.2185,-2.2138,-2.2637,-2.2874,-2.293,-2.3182,-2.3336,-2.3392,-2.3532,-2.3644,-2.3711,-2.3683,-2.3874,-2.3958,-2.4068,-2.4467,-2.4549,-2.4645,-2.4781,-2.4984,-2.5187,-2.5187,-2.5404,-2.5472,-2.5592,-2.5779,-2.5674,-2.5876,-2.6011,-2.5928,-2.6331,-2.6666,-2.6532,-2.6465,-2.6465,-2.6197,-2.613,-2.6063,-2.6063,-2.5996,-2.5996,-2.5996,-2.5928,-2.5928,-2.5928,-2.5928,-2.5928,-2.5928,-2.5996,-2.5996,-2.5996,-2.6197,-2.6465,-2.6481,-2.6548,-2.68,-2.6851,-2.7318,-2.7799,-2.813,-2.813,-2.8263,-2.8263,-2.8263,-2.813,-2.7733,-2.7666,-2.7517,-2.7051,-2.6753,-2.6686,-2.6604,-2.6604,-2.6635,-2.6635,-2.6666,-2.6599,-2.68,-2.6934,-2.6867,-2.6934,-2.6934,-2.6733,-2.6934,-2.7,-2.6532,-2.6481,-2.6414,-2.6398,-2.6264,-2.6197,-2.6063,-2.5727,-2.5592,-2.5592,-2.5322,-2.4916,-2.4916,-2.5052,-2.4849,-2.4713,-2.4578,-2.4442,-2.4292,-2.4088,-2.402,-2.4088,-2.402,-2.4102,-2.3966,-2.3966,-2.4102,-2.2007,-2.2087,-2.213,-2.2161,-2.2191,-2.2588,-2.2841,-2.2965,-2.3225,-2.3321,-2.3295,-2.3528,-2.3597,-2.3597,-2.3747,-2.3816,-2.3816,-2.3952,-2.402,-2.3966,-2.4034,-2.4238,-2.4306,-2.436,-2.451,-2.4713,-2.4713,-2.4849,-2.4984,-2.5052,-2.5119,-2.5187,-2.539,-2.5255,-2.5457,-2.5592,-2.5928,-2.5928,-2.5794,-2.5592,-2.5524,-2.5457,-2.5457,-2.5322,-2.5255,-2.5322,-2.5322,-2.539,-2.539,-2.5457,-2.5524,-2.5524,-2.5592,-2.5659,-2.5794,-2.5876,-2.6078,-2.6078,-2.6197,-2.6197,-2.6733,-2.7267,-2.7533,-2.7533,-2.7533,-2.7334,-2.74,-2.7267,-2.7067,-2.6934,-2.6733,-2.6145,-2.6145,-2.6078,-2.6078,-2.6145,-2.6145,-2.6213,-2.6213,-2.6078,-2.6011,-2.5996,-2.5861,-2.5928,-2.5996,-2.5794,-2.5592,-2.5659,-2.5794,-2.5809,-2.5742,-2.5659,-2.5524,-2.539,-2.5187,-2.4984,-2.4916,-2.5052,-2.4713,-2.436,-2.436,-2.4442,-2.417,-2.3966,-2.4102,-2.4088,-2.3884,-2.3679,-2.3611,-2.3475,-2.3475,-2.3543,-2.3611,-2.3693,-2.3693,-2.1802,-2.2017,-2.2298,-2.2405,-2.2432,-2.2499,-2.2646,-2.2901,-2.2914,-2.2914,-2.2928,-2.2983,-2.3065,-2.2996,-2.327,-2.3406,-2.3406,-2.3747,-2.3816,-2.383,-2.3761,-2.3898,-2.3966,-2.3952,-2.4102,-2.4034,-2.4102,-2.4238,-2.4088,-2.4306,-2.4306,-2.4156,-2.4374,-2.4374,-2.4645,-2.4984,-2.5322,-2.5255,-2.5119,-2.4916,-2.4781,-2.4645,-2.4578,-2.4442,-2.4374,-2.4374,-2.4374,-2.4306,-2.4238,-2.4306,-2.4428,-2.451,-2.4645,-2.4849,-2.5187,-2.5457,-2.5727,-2.5794,-2.5861,-2.5794,-2.5928,-2.6264,-2.6197,-2.6145,-2.628,-2.6532,-2.6599,-2.6532,-2.6347,-2.6197,-2.6063,-2.5996,-2.5928,-2.5944,-2.5944,-2.5944,-2.5944,-2.5944,-2.5944,-2.5944,-2.5794,-2.5659,-2.539,-2.5322,-2.5187,-2.4984,-2.4849,-2.4984,-2.5119,-2.5255,-2.5119,-2.4781,-2.4631,-2.4428,-2.436,-2.436,-2.4442,-2.4578,-2.4292,-2.3952,-2.3952,-2.3884,-2.3679,-2.3611,-2.383,-2.3747,-2.3475,-2.327,-2.3065,-2.2996,-2.3133,-2.3133,-2.327,-2.3201,-2.3133,-2.2031,-2.2298,-2.2392,-2.2539,-2.2726,-2.2739,-2.2847,-2.2859,-2.2859,-2.2859,-2.2859,-2.2859,-2.2859,-2.2928,-2.2996,-2.3065,-2.3065,-2.3133,-2.3201,-2.327,-2.3338,-2.3406,-2.3475,-2.3611,-2.3761,-2.3898,-2.3966,-2.3898,-2.3966,-2.3966,-2.3966,-2.4034,-2.3898,-2.3898,-2.4034,-2.4306,-2.4442,-2.451,-2.4442,-2.4306,-2.4156,-2.417,-2.4034,-2.3966,-2.3898,-2.3898,-2.3884,-2.3898,-2.3898,-2.4034,-2.4102,-2.417,-2.417,-2.4306,-2.4442,-2.4442,-2.4578,-2.4631,-2.4916,-2.497,-2.5119,-2.5322,-2.539,-2.5742,-2.5928,-2.5996,-2.5928,-2.5794,-2.5674,-2.5592,-2.5524,-2.5457,-2.539,-2.539,-2.539,-2.539,-2.539,-2.539,-2.539,-2.5322,-2.5255,-2.5052,-2.4781,-2.4645,-2.451,-2.4238,-2.417,-2.4306,-2.4442,-2.4578,-2.4578,-2.4238,-2.4088,-2.402,-2.402,-2.4088,-2.4034,-2.4034,-2.3747,-2.3543,-2.3543,-2.3475,-2.327,-2.327,-2.3406,-2.3338,-2.3065,-2.2928,-2.2859,-2.2859,-2.2928,-2.2928,-2.2859,-2.2859,-2.2859,-2.2325,-2.2579,-2.2592,-2.2699,-2.2846,-2.2859,-2.2859,-2.2859,-2.2859,-2.2859,-2.2859,-2.2859,-2.2859,-2.2859,-2.2928,-2.2928,-2.2928,-2.2928,-2.2928,-2.2996,-2.2859,-2.3065,-2.3133,-2.3201,-2.3338,-2.3557,-2.3543,-2.3475,-2.3611,-2.3543,-2.3543,-2.3557,-2.3543,-2.3543,-2.3543,-2.3543,-2.3543,-2.3679,-2.3816,-2.3898,-2.3816,-2.3747,-2.3679,-2.3611,-2.3625,-2.3611,-2.3611,-2.3625,-2.3625,-2.3625,-2.3611,-2.3747,-2.3816,-2.3884,-2.4034,-2.4102,-2.4102,-2.4238,-2.4374,-2.4374,-2.4442,-2.4578,-2.4713,-2.4849,-2.5119,-2.5172,-2.5187,-2.5119,-2.4984,-2.4916,-2.4849,-2.4781,-2.4713,-2.4645,-2.4645,-2.4645,-2.4645,-2.4645,-2.4645,-2.4645,-2.451,-2.4292,-2.4088,-2.4034,-2.3884,-2.3816,-2.3679,-2.3679,-2.3884,-2.4034,-2.4034,-2.3816,-2.3747,-2.3679,-2.3679,-2.3679,-2.3611,-2.3475,-2.3338,-2.3201,-2.3133,-2.3133,-2.3065,-2.2996,-2.2928,-2.2928,-2.2928,-2.2928,-2.2859,-2.2859,-2.2859,-2.2859,-2.2859,-2.2859,-2.2859,-2.2605,-2.2928,-2.2859,-2.2846,-2.2859,-2.2859,-2.2859,-2.2859,-2.2859,-2.2859,-2.2859,-2.2859,-2.2859,-2.2859,-2.2859,-2.2859,-2.2859,-2.2859,-2.2859,-2.2859,-2.2859,-2.2928,-2.2928,-2.2928,-2.3065,-2.2928,-2.2928,-2.3133,-2.2996,-2.2996,-2.3065,-2.2941,-2.2996,-2.3065,-2.3065,-2.3065,-2.3133,-2.3201,-2.3475,-2.3611,-2.3406,-2.3338,-2.3201,-2.2996,-2.2928,-2.2928,-2.2928,-2.2928,-2.2859,-2.2996,-2.3133,-2.3338,-2.3475,-2.3611,-2.3747,-2.383,-2.3761,-2.383,-2.3884,-2.3952,-2.402,-2.402,-2.4034,-2.4088,-2.436,-2.4563,-2.4578,-2.4578,-2.4442,-2.4442,-2.4374,-2.4374,-2.4306,-2.4306,-2.4306,-2.4306,-2.4306,-2.4306,-2.4238,-2.417,-2.402,-2.3816,-2.3679,-2.3543,-2.3488,-2.3406,-2.3338,-2.327,-2.3338,-2.3557,-2.3543,-2.3406,-2.3406,-2.3338,-2.3201,-2.3201,-2.3065,-2.2928,-2.2928,-2.2928,-2.2996,-2.2996,-2.2928,-2.2859,-2.2859,-2.2859,-2.2859,-2.2859,-2.2859,-2.2859,-2.2859,-2.2859,-2.2859,-2.2859,-2.2859,-2.2792,-2.2859,-2.2859,-2.2859,-2.2859,-2.2859,-2.2859,-2.2859,-2.2859,-2.2859,-2.2859,-2.2859,-2.2859,-2.2859,-2.2859,-2.2859,-2.2859,-2.2859,-2.2859,-2.2859,-2.2859,-2.2859,-2.2859,-2.2859,-2.2859,-2.2859,-2.2859,-2.2859,-2.2859,-2.2859,-2.2859,-2.2859,-2.2859,-2.2859,-2.2859,-2.2859,-2.2928,-2.2928,-2.3065,-2.327,-2.3133,-2.2996,-2.2928,-2.2859,-2.2859,-2.2859,-2.2859,-2.2859,-2.2859,-2.2928,-2.2928,-2.2996,-2.2996,-2.3133,-2.3133,-2.3133,-2.327,-2.342,-2.3475,-2.3543,-2.3679,-2.3884,-2.3898,-2.3747,-2.3816,-2.402,-2.402,-2.3966,-2.3966,-2.3966,-2.3898,-2.3898,-2.3898,-2.3898,-2.3898,-2.3898,-2.3898,-2.3884,-2.3816,-2.3679,-2.3611,-2.3475,-2.327,-2.3201,-2.3133,-2.3065,-2.3065,-2.301,-2.2996,-2.3133,-2.3201,-2.3133,-2.3065,-2.2996,-2.2859,-2.2859,-2.2859,-2.2859,-2.2928,-2.2928,-2.2859,-2.2859,-2.2859,-2.2859,-2.2859,-2.2859,-2.2859,-2.2859,-2.2859,-2.2859,-2.2859,-2.2859,-2.2859,-2.2859,-2.2859,-2.2859,-2.2859,-2.2859,-2.2859,-2.2859,-2.2859,-2.2859,-2.2859,-2.2859,-2.2859,-2.2859,-2.2859,-2.2859,-2.2859,-2.2859,-2.2859,-2.2859,-2.2859,-2.2859,-2.2859,-2.2859,-2.2859,-2.2859,-2.2859,-2.2859,-2.2859,-2.2859,-2.2859,-2.2859,-2.2859,-2.2859,-2.2859,-2.2859,-2.2859,-2.2859,-2.2859,-2.2859,-2.2859,-2.2859,-2.2859,-2.2859,-2.2859,-2.2859,-2.2859,-2.2859,-2.2859,-2.2859,-2.2859,-2.2859,-2.2859,-2.2928,-2.2928,-2.2928,-2.2928,-2.2928,-2.2928,-2.2928,-2.2996,-2.3133,-2.327,-2.3338,-2.3475,-2.3543,-2.327,-2.327,-2.3406,-2.3406,-2.3338,-2.3338,-2.3338,-2.3338,-2.3338,-2.3338,-2.3338,-2.3338,-2.3338,-2.3338,-2.3338,-2.3338,-2.327,-2.3201,-2.3133,-2.3065,-2.3065,-2.2996,-2.2996,-2.2928,-2.2928,-2.2859,-2.2926,-2.2913,-2.2926,-2.2966,-2.2899,-2.2859,-2.2859,-2.2859,-2.2859,-2.2859,-2.2859,-2.2859,-2.2859,-2.2859,-2.2899,-2.2899,-2.2859,-2.2859,-2.2884,-2.2886,-2.2859,-2.2859,-2.2859,-2.2873,-2.2831,-2.2817,-2.2859,-2.2859,-2.2859,-2.2859,-2.2859,-2.2859,-2.2859,-2.2859,-2.2859,-2.2859,-2.2859,-2.2859,-2.2859,-2.2859,-2.2859,-2.2859,-2.2859,-2.2859,-2.2859,-2.2859,-2.2859,-2.2859,-2.2859,-2.2859,-2.2859,-2.2859,-2.2859,-2.2859,-2.2859,-2.2859,-2.2859,-2.2859,-2.2859,-2.2859,-2.2859,-2.2859,-2.2859,-2.2859,-2.2859,-2.2859,-2.2859,-2.2859,-2.2859,-2.2859,-2.2859,-2.2859,-2.2859,-2.2859,-2.2859,-2.2859,-2.2859,-2.2859,-2.2859,-2.2859,-2.2859,-2.2859,-2.2859,-2.2928,-2.2928,-2.2996,-2.2928,-2.2928,-2.2873,-2.2886,-2.2968,-2.3008,-2.3008,-2.3048,-2.3048,-2.2954,-2.2954,-2.3023,-2.3023,-2.3023,-2.3023,-2.3023,-2.3023,-2.3023,-2.2954,-2.2954,-2.2954,-2.2954,-2.2954,-2.2886,-2.2886,-2.2886,-2.2873,-2.2873,-2.2899,-2.3006,-2.306,-2.3113,-2.318,-2.3086,-2.2926,-2.2913,-2.2926,-2.2859,-2.2859,-2.2859,-2.2859,-2.2859,-2.2899,-2.2979,-2.2966,-2.2881,-2.2865,-2.2889,-2.2865,-2.2868,-2.2849,-2.2763,-2.2674,-2.2605,-2.2664,-2.2859,-2.2859,-2.2859,-2.2859,-2.2859,-2.2859,-2.2859,-2.2859,-2.2859,-2.2859,-2.2859,-2.2859,-2.2859,-2.2859,-2.2859,-2.2859,-2.2859,-2.2859,-2.2859,-2.2859,-2.2859,-2.2859,-2.2859,-2.2859,-2.2859,-2.2859,-2.2859,-2.2859,-2.2859,-2.2859,-2.2859,-2.2859,-2.2859,-2.2859,-2.2859,-2.2873,-2.2913,-2.2926,-2.2953,-2.2966,-2.2995,-2.2981,-2.2873,-2.2859,-2.2859,-2.2859,-2.2859,-2.2859,-2.2859,-2.2859,-2.2913,-2.2939,-2.2966,-2.2979,-2.2979,-2.3088,-2.3006,-2.2993,-2.3006,-2.3006,-2.3102,-2.3006,-2.3033,-2.3086,-2.314,-2.3247,-2.3287,-2.3464,-2.3397,-2.3102,-2.3048,-2.3048,-2.3048,-2.3048,-2.3048,-2.3048,-2.3048,-2.3048,-2.3048,-2.3048,-2.3048,-2.3048,-2.3062,-2.2993,-2.2993,-2.2993,-2.3006,-2.2993,-2.3046,-2.3126,-2.3164,-2.3244,-2.3323,-2.318,-2.2979,-2.2937,-2.2937,-2.2926,-2.2857,-2.2826,-2.2826,-2.2873,-2.2926,-2.2945,-2.2911,-2.2837,-2.2819,-2.2845,-2.2769,-2.2685,-2.2647,-2.2589,-2.2512,-2.244,-2.2553]},{"header":{"parameterUnit":"m.s-1","parameterCategory":1,"la1":31.0,"la2":29.5877,"lo1":-88.7671,"lo2":-86.6584,"dy":0.0162,"dx":0.0185,"nx":115,"ny":88,"refTime":"2023-08-15T12:00:00:Z","depth":0,"parameterNumber":3,"parameterNumberName":"V-component_of_WINDS"},"data":[0.0,0.0,0.0,0.0,0.0,0.0,0.0,0.0,0.0,0.0,0.0,0.0,0.0,0.0,0.0,0.0,0.0,0.0,0.0,0.0,0.0,0.0,0.0,0.0,0.0,0.0,0.0,0.0,0.0,0.0,0.0,0.0,0.0,0.0,0.0,0.0,0.0,0.0,0.0,0.0,0.0,0.0,0.0,0.0,0.0,0.0,0.0,0.0,0.0,0.0,0.0,0.0,0.0,0.0,0.0,0.0,0.0,0.0,0.0,0.0,0.0,0.0,0.0,0.0,0.0,0.0,0.0,0.0,0.0,0.0,0.0,0.0,0.0,0.0,0.0,0.0,0.0,0.0,0.0,0.0,0.0,0.0,0.0,0.0,0.0,0.0,0.0,0.0,0.0,0.0,0.0,0.0,0.0,0.0,0.0,0.0,0.0,0.0,0.0,0.0,0.0,0.0,0.0,0.0,0.0,0.0,0.0,0.0,0.0,0.0,0.0,0.0,0.0,0.0,0.0,0.0,0.0,0.0,0.0,0.0,0.0,0.0,0.0,0.0,0.0,0.0,0.0,0.0,0.0,0.0,0.0,0.0,0.0,0.0,0.0,0.0,0.0,0.0,0.0,0.0,0.0,0.0,0.0,0.0,0.0,0.0,0.0,0.0,0.0,0.0,0.0,0.0,0.0,0.0,0.0,0.0,0.0,0.0,0.0,0.0,0.0,0.0,0.0,0.0,0.0,0.0,0.0,0.0,0.0,0.0,0.0,0.0,0.0,0.0,0.0,0.0,0.0,0.0,0.0,0.0,0.0,0.0,0.0,0.0,0.0,0.0,0.0,0.0,0.0,0.0,0.0,0.0,0.0,0.0,0.0,0.0,0.0,0.0,0.0,0.0,0.0,0.0,0.0,0.0,0.0,0.0,0.0,0.0,0.0,0.0,0.0,0.0,0.0,0.0,0.0,0.0,0.0,0.0,0.0,0.0,0.0,0.0,0.0,0.0,0.0,0.0,0.0,0.0,0.0,0.0,0.0,0.0,0.0,0.0,0.0,0.0,0.0,0.0,0.0,0.0,0.0,0.0,0.0,0.0,0.0,0.0,0.0,0.0,0.0,0.0,0.0,0.0,0.0,0.0,0.0,0.0,0.0,0.0,0.0,0.0,0.0,0.0,0.0,0.0,0.0,0.0,0.0,0.0,0.0,0.0,0.0,0.0,0.0,0.0,0.0,0.0,0.0,0.0,0.0,0.0,0.0,0.0,0.0,0.0,0.0,0.0,0.0,0.0,0.0,0.0,0.0,0.0,0.0,0.0,0.0,0.0,0.0,0.0,0.0,0.0,0.0,0.0,0.0,0.0,0.0,0.0,0.0,0.0,0.0,0.0,0.0,0.0,0.0,0.0,0.0,0.0,0.0,0.0,0.0,0.0,0.0,0.0,0.0,0.0,0.0,0.0,0.0,0.0,0.0,0.0,0.0,0.0,0.0,0.0,0.0,0.0,0.0,0.0,0.0,0.0,0.0,0.0,0.0,0.0,0.0,0.0,0.0,0.0,0.0,0.0,0.0,0.0,0.0,0.0,0.0,0.0,0.0,0.0,0.0,0.0,0.0,0.0,0.0,0.0,0.0,0.0,0.0,0.0,0.0,0.0,0.0,0.0,0.0,0.0,0.0,0.0,0.0,0.0,0.0,0.0,0.0,0.0,0.0,0.0,0.0,0.0,0.0,0.0,0.0,0.0,0.0,0.0,0.0,0.0,0.0,0.0,0.0,0.0,0.0,0.0,0.0,0.0,0.0,0.0,0.0,0.0,0.0,0.0,0.0,0.0,0.0,0.0,0.0,0.0,0.0,0.0,0.0,0.0,0.0,0.0,0.0,0.0,0.0,0.0,0.0,0.0,0.0,0.0,0.0,0.0,0.0,0.0,0.0,0.0,0.0,0.0,0.0,0.0,0.0,0.0,0.0,0.0,0.0,0.0,0.0,0.0,0.0,0.0,0.0,0.0,0.0,0.0,0.0,0.0,0.0,0.0,0.0,0.0,0.0,0.0,0.0,0.0,0.0,0.0,0.0,0.0,0.0,0.0,0.0,0.0,0.0,0.0,0.0,0.0,0.0,0.0,0.0,0.0,0.0,0.0,0.0,0.0,0.0,0.0,0.0,0.0,0.0,0.0,0.0,0.0,0.0,0.0,0.0,0.0,0.0,0.0,0.0,0.0,0.0,0.0,0.0,0.0,0.0,0.0,0.0,0.0,0.0,0.0,0.0,0.0,0.0,0.0,0.0,0.0,0.0,0.0,0.0,0.0,0.0,0.0,0.0,0.0,0.0,0.0,0.0,0.0,0.0,0.0,0.0,0.0,0.0,0.0,0.0,0.0,0.0,0.0,0.0,0.0,0.0,0.0,0.0,0.0,0.0,0.0,0.0,0.0,0.0,0.0,0.0,0.0,0.0,0.0,0.0,0.0,0.0,0.0,0.0,0.0,0.0,0.0,0.0,0.0,0.0,0.0,0.0,0.0,0.0,0.0,0.0,0.0,0.0,0.0,0.0,0.0,0.0,0.0,0.0,0.0,0.0,0.0,0.0,0.0,0.0,0.0,0.0,0.0,0.0,0.0,0.0,0.0,0.0,0.0,0.0,0.0,0.0,0.0,0.0,0.0,0.0,0.0,0.0,0.0,0.0,0.0,0.0,0.0,0.0,0.0,0.0,0.0,0.0,0.0,0.0,0.0,0.0,0.0,0.0,0.0,0.0,0.0,0.0,0.0,0.0,0.0,0.0,0.0,0.0,0.0,0.0,0.0,0.0,0.0,0.0,0.0,0.0,0.0,0.0,0.0,0.0,0.0,0.0,0.0,0.0,0.0,0.0,0.0,0.0,0.0,0.0,0.0,0.0,0.0,0.0,0.0,0.0,0.0,0.0,0.0,0.0,0.0,0.0,0.0,0.0,0.0,0.0,0.0,0.0,0.0,0.0,0.0,0.0,0.0,0.0,0.0,0.0,0.0,0.0,0.0,0.0,0.0,0.0,0.0,0.0,0.0,0.0,0.0,0.0,0.0,0.0,0.0,0.0,0.0,0.0,0.0,0.0,0.0,0.0,0.0,0.0,0.0,0.0,0.0,0.0,0.0,0.0,0.0,0.0,0.0,0.0,0.0,0.0,0.0,0.0,0.0,0.0,0.0,0.0,0.0,0.0,0.0,0.0,0.0,0.0,0.0,0.0,0.0,0.0,0.0,0.0,0.0,0.0,0.0,0.0,0.0,0.0,0.0,0.0,0.0,0.0,0.0,0.0,0.0,0.0,0.0,0.0,0.0,0.0,0.0,0.0,0.0,0.0,0.0,0.0,0.0,0.0,0.0,0.0,0.0,0.0,0.0,0.0,0.0,0.0,0.0,0.0,0.0,0.0,0.0,0.0,0.0,0.0,0.0,0.0,0.0,0.0,0.0,0.0,0.0,0.0,0.0,0.0,0.0,0.0,0.0,0.0,0.0,0.0,0.0,0.0,0.0,0.0,0.0,0.0,0.0,0.0,0.0,0.0,0.0,0.0,0.0,0.0,0.0,0.0,0.0,0.0,0.0,0.0,0.0,0.0,0.0,0.0,0.0,0.0,0.0,0.0,0.0,0.0,0.0,0.0,0.0,0.0,0.0,0.0,0.0,0.0,0.0,0.0,0.0,0.0,0.0,0.0,0.0,0.0,0.0,0.0,0.0,0.0,0.0,0.0,0.0,0.0,0.0,0.0,0.0,0.0,0.0,0.0,0.0,0.0,0.0,0.0,0.0,0.0,0.0,0.0,0.0,0.0,0.0,0.0,0.0,0.0,0.0,0.0,0.0,0.0,0.0,0.0,0.0,0.0,0.0,0.0,0.0,0.0,0.0,0.0,0.0,0.0,0.0,0.0,0.0,0.0,0.0,0.0,0.0,0.0,0.0,0.0,0.0,0.0,0.0,0.0,0.0,0.0,0.0,0.0,0.0,0.0,0.0,0.0,0.0,0.0,0.0,0.0,0.0,0.0,0.0,0.0,0.0,0.0,0.0,0.0,0.0,0.0,0.0,0.0,0.0,0.0,0.0,0.0,0.0,0.0,0.0,0.0,0.0,0.0,0.0,0.0,0.0,0.0,0.0,0.0,0.0,0.0,0.0,0.0,0.0,0.0,0.0,0.0,0.0,0.0,0.0,0.0,0.0,0.0,0.0,0.0,0.0,0.0,0.0,0.0,0.0,0.0,0.0,0.0,0.0,0.0,0.0,0.0,0.0,0.0,0.0,0.0,0.0,0.0,0.0,2.0433,0.0,0.0,0.0,0.0,0.0,0.0,0.0,0.0,0.0,0.0,0.0,0.0,0.0,0.0,0.0,0.0,0.0,0.0,0.0,0.0,0.0,0.0,0.0,0.0,0.0,0.0,0.0,0.0,0.0,0.0,0.0,0.0,0.0,0.0,0.0,0.0,0.0,0.0,0.0,0.0,0.0,0.0,0.0,0.0,0.0,0.0,0.0,0.0,0.0,0.0,0.0,0.0,0.0,0.0,0.0,0.0,0.0,0.0,0.0,0.0,0.0,0.0,0.0,0.0,0.0,0.0,0.0,0.0,0.0,0.0,0.0,0.0,0.0,0.0,0.0,0.0,0.0,0.0,0.0,0.0,0.0,0.0,0.0,0.0,0.0,0.0,0.0,0.0,0.0,0.0,0.0,0.0,0.0,0.0,0.0,0.0,0.0,0.0,0.0,0.0,0.0,0.0,0.0,0.0,0.0,0.0,0.0,0.0,0.0,0.0,2.1326,2.1362,2.1362,2.1272,2.1043,0.0,0.0,0.0,0.0,0.0,0.0,0.0,0.0,0.0,0.0,0.0,0.0,0.0,0.0,0.0,0.0,0.0,0.0,0.0,0.0,0.0,0.0,0.0,0.0,0.0,0.0,0.0,0.0,0.0,0.0,0.0,0.0,0.0,0.0,0.0,0.0,0.0,0.0,0.0,0.0,0.0,0.0,0.0,0.0,0.0,0.0,0.0,0.0,0.0,0.0,0.0,0.0,0.0,0.0,0.0,0.0,0.0,0.0,0.0,0.0,0.0,0.0,0.0,0.0,0.0,0.0,0.0,0.0,0.0,0.0,0.0,0.0,0.0,0.0,0.0,0.0,0.0,0.0,0.0,0.0,0.0,0.0,0.0,0.0,0.0,0.0,0.0,0.0,0.0,0.0,0.0,0.0,0.0,0.0,0.0,0.0,0.0,0.0,0.0,0.0,0.0,0.0,0.0,0.0,0.0,0.0,0.0,0.0,0.0,0.0,0.0,0.0,2.2197,2.1964,2.1464,0.0,0.0,0.0,0.0,0.0,0.0,0.0,0.0,0.0,0.0,0.0,0.0,0.0,0.0,0.0,0.0,0.0,0.0,0.0,0.0,0.0,0.0,0.0,0.0,0.0,0.0,0.0,0.0,0.0,0.0,0.0,0.0,0.0,0.0,0.0,0.0,0.0,0.0,0.0,0.0,0.0,0.0,0.0,0.0,0.0,0.0,0.0,0.0,0.0,0.0,0.0,0.0,0.0,0.0,0.0,0.0,0.0,0.0,0.0,0.0,0.0,0.0,0.0,0.0,0.0,0.0,0.0,0.0,0.0,0.0,0.0,0.0,0.0,0.0,0.0,0.0,0.0,0.0,0.0,0.0,0.0,0.0,0.0,0.0,0.0,0.0,0.0,0.0,0.0,0.0,0.0,0.0,0.0,0.0,0.0,0.0,0.0,0.0,0.0,0.0,0.0,0.0,0.0,0.0,0.0,0.0,0.0,0.0,0.0,0.0,2.2197,2.2197,2.2197,0.0,2.1583,0.0,0.0,0.0,0.0,0.0,0.0,0.0,0.0,0.0,0.0,0.0,0.0,0.0,0.0,0.0,0.0,0.0,0.0,0.0,0.0,0.0,0.0,0.0,0.0,0.0,0.0,0.0,0.0,0.0,0.0,0.0,0.0,0.0,0.0,0.0,0.0,0.0,0.0,0.0,0.0,0.0,0.0,0.0,0.0,0.0,0.0,0.0,0.0,0.0,0.0,0.0,0.0,0.0,0.0,0.0,0.0,0.0,0.0,0.0,0.0,0.0,0.0,0.0,0.0,0.0,0.0,0.0,0.0,0.0,0.0,0.0,0.0,0.0,0.0,0.0,0.0,0.0,0.0,0.0,0.0,0.0,0.0,0.0,0.0,0.0,0.0,0.0,0.0,0.0,0.0,0.0,0.0,0.0,0.0,0.0,0.0,0.0,0.0,0.0,0.0,0.0,0.0,0.0,0.0,0.0,0.0,0.0,0.0,0.0,0.0,2.2541,2.2197,2.2266,2.2231,0.0,0.0,0.0,0.0,0.0,0.0,0.0,0.0,0.0,0.0,0.0,0.0,0.0,0.0,0.0,0.0,0.0,0.0,0.0,0.0,0.0,0.0,0.0,0.0,0.0,0.0,0.0,0.0,0.0,0.0,0.0,0.0,0.0,0.0,0.0,0.0,0.0,0.0,0.0,0.0,0.0,0.0,0.0,0.0,0.0,0.0,0.0,0.0,0.0,0.0,0.0,0.0,0.0,0.0,0.0,0.0,0.0,0.0,0.0,0.0,0.0,0.0,0.0,0.0,0.0,0.0,0.0,0.0,0.0,0.0,0.0,0.0,0.0,0.0,0.0,0.0,0.0,0.0,0.0,0.0,0.0,0.0,0.0,0.0,0.0,0.0,0.0,0.0,0.0,0.0,0.0,0.0,0.0,0.0,0.0,0.0,0.0,0.0,0.0,0.0,0.0,0.0,0.0,0.0,0.0,0.0,0.0,0.0,0.0,0.0,2.2806,2.2903,2.2693,2.2681,2.2732,2.2856,0.0,0.0,0.0,0.0,0.0,0.0,0.0,0.0,0.0,0.0,0.0,0.0,0.0,0.0,0.0,0.0,0.0,0.0,0.0,0.0,0.0,0.0,0.0,0.0,0.0,0.0,0.0,0.0,0.0,0.0,0.0,0.0,0.0,0.0,0.0,0.0,0.0,0.0,0.0,0.0,0.0,0.0,0.0,0.0,0.0,0.0,0.0,0.0,0.0,0.0,0.0,0.0,0.0,0.0,0.0,0.0,0.0,0.0,0.0,0.0,0.0,0.0,0.0,0.0,0.0,0.0,0.0,0.0,0.0,0.0,0.0,0.0,0.0,0.0,0.0,0.0,0.0,0.0,0.0,0.0,0.0,0.0,0.0,0.0,0.0,0.0,0.0,0.0,0.0,0.0,0.0,0.0,0.0,0.0,0.0,0.0,0.0,0.0,0.0,0.0,0.0,0.0,0.0,0.0,0.0,0.0,0.0,0.0,2.2951,2.2999,2.3305,2.3871,2.3626,2.361,0.0,0.0,0.0,0.0,0.0,0.0,0.0,0.0,0.0,0.0,0.0,0.0,0.0,0.0,0.0,0.0,0.0,0.0,0.0,0.0,0.0,0.0,0.0,0.0,0.0,0.0,0.0,0.0,0.0,0.0,0.0,0.0,0.0,0.0,0.0,0.0,0.0,0.0,0.0,0.0,0.0,0.0,0.0,0.0,0.0,0.0,0.0,0.0,0.0,0.0,0.0,0.0,0.0,0.0,0.0,0.0,0.0,0.0,0.0,0.0,0.0,0.0,0.0,0.0,0.0,0.0,0.0,0.0,0.0,0.0,0.0,0.0,0.0,0.0,0.0,0.0,0.0,0.0,0.0,0.0,0.0,0.0,0.0,0.0,0.0,0.0,0.0,0.0,0.0,0.0,0.0,0.0,0.0,0.0,0.0,0.0,0.0,0.0,0.0,0.0,0.0,0.0,0.0,0.0,0.0,0.0,0.0,0.0,0.0,2.3127,2.3466,2.3935,2.4463,2.4065,2.3879,0.0,0.0,0.0,0.0,0.0,0.0,0.0,0.0,0.0,0.0,0.0,0.0,0.0,0.0,0.0,0.0,0.0,0.0,0.0,0.0,0.0,0.0,0.0,0.0,0.0,0.0,0.0,0.0,0.0,0.0,0.0,0.0,0.0,0.0,0.0,0.0,0.0,0.0,0.0,0.0,0.0,0.0,0.0,0.0,0.0,0.0,0.0,0.0,0.0,0.0,0.0,0.0,0.0,0.0,0.0,0.0,0.0,0.0,0.0,0.0,0.0,0.0,0.0,0.0,0.0,0.0,0.0,0.0,0.0,0.0,0.0,0.0,0.0,0.0,0.0,0.0,0.0,0.0,0.0,0.0,0.0,0.0,0.0,0.0,0.0,0.0,0.0,0.0,0.0,0.0,0.0,0.0,0.0,0.0,0.0,0.0,0.0,0.0,0.0,0.0,0.0,0.0,0.0,0.0,0.0,0.0,0.0,0.0,0.0,2.3798,0.0,2.4841,2.5296,2.4788,2.4551,0.0,0.0,0.0,0.0,0.0,0.0,0.0,0.0,0.0,0.0,0.0,0.0,0.0,0.0,0.0,0.0,0.0,0.0,0.0,0.0,0.0,0.0,0.0,0.0,0.0,0.0,0.0,0.0,0.0,0.0,0.0,0.0,0.0,0.0,0.0,0.0,0.0,0.0,0.0,0.0,0.0,0.0,0.0,0.0,0.0,0.0,0.0,0.0,0.0,0.0,0.0,0.0,0.0,0.0,0.0,0.0,0.0,0.0,0.0,0.0,0.0,0.0,0.0,0.0,0.0,0.0,0.0,0.0,0.0,0.0,0.0,0.0,0.0,0.0,0.0,0.0,0.0,0.0,0.0,0.0,0.0,0.0,0.0,0.0,0.0,0.0,0.0,0.0,0.0,0.0,0.0,0.0,0.0,0.0,0.0,0.0,0.0,0.0,0.0,0.0,0.0,0.0,0.0,0.0,0.0,0.0,0.0,0.0,2.405,2.505,2.5615,2.601,2.6355,2.5837,2.5637,0.0,0.0,0.0,0.0,0.0,0.0,0.0,0.0,0.0,0.0,0.0,0.0,0.0,0.0,0.0,0.0,0.0,0.0,0.0,0.0,0.0,0.0,0.0,0.0,0.0,0.0,0.0,0.0,0.0,0.0,0.0,0.0,0.0,0.0,0.0,0.0,0.0,0.0,0.0,0.0,0.0,0.0,0.0,0.0,0.0,0.0,0.0,0.0,0.0,0.0,0.0,0.0,0.0,0.0,0.0,0.0,0.0,0.0,0.0,0.0,0.0,0.0,0.0,0.0,0.0,0.0,0.0,0.0,0.0,0.0,0.0,0.0,0.0,0.0,0.0,0.0,0.0,0.0,0.0,0.0,0.0,0.0,0.0,0.0,0.0,0.0,0.0,0.0,0.0,0.0,0.0,0.0,0.0,0.0,0.0,0.0,0.0,0.0,0.0,0.0,0.0,0.0,0.0,0.0,0.0,0.0,0.0,0.0,0.0,2.5856,2.6261,2.6508,2.6586,2.6447,2.6175,0.0,0.0,0.0,0.0,0.0,0.0,0.0,0.0,0.0,0.0,0.0,0.0,0.0,0.0,0.0,0.0,0.0,0.0,0.0,0.0,0.0,0.0,0.0,0.0,0.0,0.0,0.0,0.0,0.0,0.0,0.0,0.0,0.0,0.0,0.0,0.0,0.0,0.0,0.0,0.0,0.0,0.0,0.0,0.0,0.0,0.0,0.0,0.0,0.0,0.0,0.0,0.0,0.0,0.0,0.0,0.0,0.0,0.0,0.0,0.0,0.0,0.0,0.0,0.0,0.0,0.0,0.0,0.0,0.0,0.0,0.0,0.0,0.0,0.0,0.0,0.0,0.0,0.0,0.0,0.0,0.0,0.0,0.0,0.0,0.0,0.0,0.0,0.0,0.0,0.0,0.0,0.0,0.0,0.0,0.0,0.0,0.0,0.0,0.0,0.0,0.0,0.0,0.0,0.0,0.0,0.0,0.0,0.0,0.0,2.6824,2.6884,2.6952,2.6985,2.7084,2.6795,2.61,0.0,0.0,0.0,0.0,0.0,0.0,0.0,0.0,0.0,0.0,0.0,0.0,0.0,0.0,0.0,0.0,0.0,0.0,0.0,0.0,0.0,0.0,0.0,0.0,0.0,0.0,0.0,0.0,0.0,0.0,0.0,0.0,0.0,0.0,0.0,0.0,0.0,0.0,0.0,0.0,0.0,0.0,0.0,0.0,0.0,0.0,0.0,0.0,0.0,0.0,0.0,0.0,0.0,0.0,0.0,0.0,0.0,0.0,0.0,0.0,0.0,0.0,0.0,0.0,0.0,0.0,0.0,0.0,0.0,0.0,0.0,0.0,0.0,0.0,0.0,0.0,0.0,0.0,0.0,0.0,0.0,0.0,0.0,0.0,0.0,0.0,0.0,0.0,0.0,0.0,0.0,0.0,0.0,0.0,0.0,0.0,0.0,0.0,0.0,0.0,0.0,0.0,0.0,0.0,0.0,0.0,0.0,0.0,2.7822,2.7523,2.739,2.7523,2.7723,2.7429,0.0,0.0,0.0,0.0,0.0,0.0,0.0,0.0,0.0,0.0,0.0,0.0,0.0,0.0,0.0,0.0,0.0,0.0,0.0,0.0,0.0,0.0,0.0,0.0,0.0,0.0,0.0,0.0,0.0,0.0,0.0,0.0,0.0,0.0,0.0,0.0,0.0,0.0,0.0,0.0,0.0,0.0,0.0,0.0,0.0,0.0,0.0,0.0,0.0,0.0,0.0,0.0,0.0,0.0,0.0,0.0,0.0,0.0,0.0,0.0,0.0,0.0,0.0,0.0,0.0,0.0,0.0,0.0,0.0,0.0,0.0,0.0,0.0,0.0,0.0,0.0,0.0,0.0,0.0,0.0,0.0,0.0,0.0,0.0,0.0,0.0,0.0,0.0,0.0,0.0,0.0,0.0,0.0,0.0,0.0,0.0,0.0,0.0,0.0,0.0,0.0,0.0,0.0,0.0,0.0,0.0,0.0,0.0,0.0,2.8046,2.8052,2.802,2.7947,2.8059,2.7932,0.0,0.0,0.0,0.0,0.0,0.0,0.0,0.0,0.0,0.0,0.0,0.0,0.0,0.0,0.0,0.0,0.0,0.0,0.0,0.0,0.0,0.0,0.0,0.0,0.0,0.0,0.0,0.0,0.0,0.0,0.0,0.0,0.0,0.0,0.0,0.0,0.0,0.0,0.0,0.0,0.0,0.0,0.0,0.0,0.0,0.0,0.0,0.0,0.0,0.0,0.0,0.0,0.0,0.0,0.0,0.0,0.0,0.0,0.0,0.0,0.0,0.0,0.0,0.0,0.0,0.0,0.0,0.0,0.0,0.0,0.0,0.0,0.0,0.0,0.0,0.0,0.0,0.0,0.0,0.0,0.0,0.0,0.0,0.0,0.0,0.0,0.0,0.0,0.0,0.0,0.0,0.0,0.0,0.0,0.0,0.0,0.0,0.0,0.0,0.0,0.0,0.0,0.0,0.0,0.0,0.0,0.0,0.0,2.8308,2.8308,2.8444,2.8476,2.8406,2.8476,2.8334,0.0,0.0,0.0,0.0,0.0,0.0,0.0,0.0,0.0,0.0,0.0,0.0,0.0,0.0,0.0,0.0,0.0,0.0,0.0,0.0,0.0,0.0,0.0,0.0,0.0,0.0,0.0,0.0,0.0,0.0,0.0,0.0,0.0,0.0,0.0,0.0,0.0,0.0,0.0,0.0,0.0,0.0,0.0,0.0,0.0,0.0,0.0,0.0,0.0,0.0,0.0,0.0,0.0,0.0,0.0,0.0,0.0,0.0,0.0,0.0,0.0,0.0,0.0,0.0,0.0,0.0,0.0,0.0,0.0,0.0,0.0,0.0,0.0,0.0,0.0,0.0,0.0,0.0,0.0,0.0,0.0,0.0,0.0,0.0,0.0,0.0,0.0,0.0,0.0,0.0,0.0,0.0,0.0,0.0,0.0,0.0,0.0,0.0,0.0,0.0,0.0,0.0,0.0,0.0,0.0,0.0,0.0,0.0,2.866,2.8714,2.8843,2.894,2.8972,2.8885,2.8647,0.0,0.0,0.0,0.0,0.0,0.0,0.0,0.0,0.0,0.0,0.0,0.0,0.0,0.0,0.0,0.0,0.0,0.0,0.0,0.0,0.0,0.0,0.0,0.0,0.0,0.0,0.0,0.0,0.0,0.0,0.0,0.0,0.0,0.0,0.0,0.0,0.0,0.0,0.0,0.0,0.0,0.0,0.0,0.0,0.0,0.0,0.0,0.0,0.0,0.0,0.0,0.0,0.0,0.0,0.0,0.0,0.0,0.0,0.0,0.0,0.0,0.0,0.0,0.0,0.0,0.0,0.0,0.0,0.0,0.0,0.0,0.0,0.0,0.0,0.0,0.0,0.0,0.0,0.0,0.0,0.0,0.0,0.0,0.0,0.0,0.0,0.0,0.0,0.0,0.0,0.0,0.0,0.0,0.0,0.0,0.0,0.0,0.0,0.0,0.0,0.0,0.0,0.0,0.0,0.0,0.0,0.0,0.0,2.9012,2.9542,2.9673,2.9803,2.9965,2.9361,2.9062,0.0,0.0,0.0,0.0,0.0,0.0,0.0,0.0,0.0,0.0,0.0,0.0,0.0,0.0,0.0,0.0,0.0,0.0,0.0,0.0,0.0,0.0,0.0,0.0,0.0,0.0,0.0,0.0,0.0,0.0,0.0,0.0,0.0,0.0,0.0,0.0,0.0,0.0,0.0,0.0,0.0,0.0,0.0,0.0,0.0,0.0,0.0,0.0,2.626,0.0,0.0,0.0,0.0,0.0,0.0,0.0,0.0,0.0,0.0,0.0,0.0,0.0,0.0,0.0,0.0,0.0,0.0,0.0,0.0,0.0,0.0,0.0,0.0,0.0,0.0,0.0,0.0,0.0,0.0,0.0,0.0,0.0,0.0,0.0,0.0,0.0,0.0,0.0,0.0,0.0,0.0,0.0,0.0,0.0,0.0,0.0,0.0,0.0,0.0,0.0,0.0,0.0,0.0,0.0,0.0,0.0,0.0,0.0,2.9563,2.9898,3.0339,3.047,3.029,2.9951,2.9676,0.0,0.0,0.0,0.0,0.0,0.0,0.0,0.0,0.0,0.0,0.0,0.0,0.0,0.0,0.0,0.0,0.0,0.0,0.0,0.0,0.0,0.0,0.0,0.0,0.0,0.0,0.0,0.0,0.0,0.0,0.0,0.0,0.0,0.0,0.0,0.0,0.0,0.0,0.0,0.0,0.0,0.0,0.0,0.0,0.0,0.0,0.0,0.0,0.0,0.0,0.0,0.0,0.0,0.0,0.0,0.0,0.0,0.0,0.0,0.0,0.0,0.0,0.0,0.0,0.0,0.0,0.0,0.0,0.0,0.0,0.0,0.0,0.0,0.0,0.0,0.0,0.0,0.0,0.0,0.0,0.0,0.0,0.0,0.0,0.0,0.0,0.0,0.0,0.0,0.0,0.0,0.0,0.0,0.0,0.0,0.0,0.0,0.0,0.0,0.0,0.0,0.0,0.0,0.0,0.0,0.0,0.0,2.9781,3.0112,3.0334,3.1004,3.1132,3.0629,3.0648,3.0375,2.9788,0.0,0.0,0.0,0.0,0.0,0.0,0.0,0.0,0.0,0.0,0.0,0.0,0.0,0.0,0.0,0.0,0.0,0.0,0.0,0.0,0.0,0.0,0.0,0.0,0.0,0.0,0.0,0.0,0.0,0.0,0.0,0.0,0.0,0.0,0.0,0.0,0.0,0.0,2.548,2.611,0.0,0.0,0.0,0.0,0.0,0.0,0.0,0.0,2.6578,0.0,0.0,0.0,0.0,0.0,0.0,0.0,0.0,0.0,0.0,0.0,0.0,0.0,0.0,0.0,0.0,0.0,0.0,0.0,0.0,0.0,0.0,0.0,0.0,0.0,0.0,0.0,0.0,0.0,0.0,0.0,0.0,0.0,0.0,0.0,0.0,0.0,0.0,0.0,0.0,0.0,0.0,0.0,0.0,0.0,0.0,0.0,0.0,0.0,0.0,0.0,0.0,0.0,0.0,0.0,0.0,2.9831,3.0104,3.0759,3.1728,3.2038,3.2168,3.2055,3.1612,3.1087,3.0538,0.0,0.0,0.0,0.0,0.0,0.0,0.0,0.0,0.0,0.0,0.0,0.0,0.0,0.0,0.0,0.0,0.0,0.0,0.0,0.0,0.0,0.0,0.0,0.0,0.0,0.0,0.0,0.0,0.0,0.0,0.0,0.0,0.0,0.0,0.0,0.0,0.0,0.0,0.0,2.6982,2.7442,0.0,0.0,0.0,0.0,0.0,0.0,0.0,0.0,2.6925,0.0,0.0,0.0,0.0,0.0,0.0,0.0,0.0,0.0,0.0,0.0,0.0,0.0,0.0,0.0,0.0,0.0,0.0,0.0,0.0,0.0,0.0,0.0,0.0,0.0,0.0,0.0,0.0,0.0,0.0,0.0,0.0,0.0,0.0,0.0,0.0,0.0,0.0,0.0,0.0,0.0,0.0,0.0,0.0,0.0,0.0,0.0,0.0,0.0,0.0,0.0,0.0,0.0,0.0,0.0,3.0202,3.069,3.1371,3.2234,3.2673,3.277,3.2563,3.1942,3.1391,0.0,0.0,0.0,0.0,0.0,0.0,0.0,0.0,0.0,0.0,0.0,0.0,0.0,0.0,0.0,0.0,0.0,0.0,0.0,0.0,0.0,0.0,0.0,0.0,0.0,0.0,0.0,0.0,0.0,0.0,0.0,0.0,0.0,0.0,0.0,0.0,0.0,0.0,0.0,0.0,2.7438,2.7784,2.8075,0.0,0.0,0.0,0.0,0.0,0.0,2.7786,2.7604,0.0,0.0,0.0,0.0,0.0,0.0,0.0,0.0,0.0,0.0,0.0,0.0,0.0,0.0,0.0,0.0,0.0,0.0,0.0,0.0,0.0,0.0,0.0,0.0,0.0,0.0,0.0,0.0,0.0,0.0,0.0,0.0,0.0,0.0,0.0,0.0,0.0,0.0,0.0,0.0,0.0,0.0,0.0,0.0,0.0,0.0,0.0,0.0,0.0,0.0,0.0,0.0,0.0,0.0,0.0,3.0652,3.1359,3.201,3.2629,3.3108,3.324,3.2936,3.2278,3.1724,0.0,0.0,0.0,0.0,0.0,0.0,0.0,0.0,0.0,0.0,0.0,0.0,0.0,0.0,0.0,0.0,0.0,0.0,0.0,0.0,0.0,0.0,0.0,0.0,0.0,0.0,0.0,0.0,0.0,0.0,0.0,0.0,0.0,0.0,0.0,0.0,0.0,0.0,0.0,0.0,0.0,2.8241,2.8881,2.9085,0.0,0.0,0.0,0.0,2.9182,2.8764,0.0,0.0,0.0,0.0,0.0,0.0,0.0,0.0,0.0,0.0,0.0,0.0,0.0,0.0,0.0,0.0,0.0,0.0,0.0,0.0,0.0,0.0,0.0,0.0,0.0,0.0,0.0,0.0,0.0,0.0,0.0,0.0,0.0,0.0,0.0,0.0,0.0,0.0,0.0,0.0,0.0,0.0,0.0,0.0,0.0,0.0,0.0,0.0,0.0,0.0,0.0,0.0,0.0,0.0,0.0,0.0,3.1359,3.2005,3.2664,3.3429,3.3542,3.3646,3.3762,3.3106,3.2544,0.0,0.0,0.0,0.0,0.0,0.0,0.0,0.0,0.0,0.0,0.0,0.0,0.0,0.0,0.0,0.0,0.0,0.0,0.0,0.0,0.0,0.0,0.0,0.0,0.0,0.0,0.0,0.0,0.0,0.0,0.0,0.0,0.0,0.0,0.0,0.0,0.0,0.0,0.0,0.0,0.0,2.9189,2.9836,3.0454,3.0631,0.0,0.0,2.9802,2.9436,2.9396,0.0,0.0,0.0,0.0,0.0,0.0,0.0,0.0,0.0,0.0,0.0,0.0,0.0,0.0,0.0,0.0,0.0,0.0,0.0,0.0,0.0,0.0,0.0,0.0,0.0,0.0,0.0,0.0,0.0,0.0,0.0,0.0,0.0,0.0,0.0,0.0,0.0,0.0,0.0,0.0,0.0,0.0,0.0,0.0,0.0,0.0,0.0,0.0,0.0,0.0,0.0,0.0,0.0,0.0,0.0,3.1176,3.1768,3.2364,3.3192,3.4234,3.4019,3.4163,3.4744,3.383,3.3325,0.0,0.0,0.0,0.0,0.0,0.0,0.0,0.0,0.0,0.0,0.0,0.0,0.0,0.0,0.0,0.0,0.0,0.0,0.0,0.0,0.0,0.0,0.0,0.0,0.0,0.0,0.0,0.0,0.0,0.0,0.0,0.0,0.0,0.0,0.0,0.0,0.0,0.0,0.0,0.0,0.0,0.0,3.0686,3.1042,0.0,0.0,0.0,3.0971,3.09,0.0,0.0,0.0,0.0,0.0,0.0,0.0,0.0,0.0,0.0,0.0,0.0,0.0,0.0,0.0,0.0,0.0,0.0,0.0,0.0,0.0,0.0,0.0,0.0,0.0,0.0,0.0,0.0,0.0,0.0,0.0,0.0,0.0,0.0,0.0,0.0,0.0,0.0,0.0,0.0,0.0,0.0,0.0,0.0,0.0,0.0,0.0,0.0,0.0,0.0,0.0,0.0,0.0,0.0,0.0,0.0,0.0,3.2295,3.313,3.3997,3.495,3.4831,3.5096,3.5804,3.4852,0.0,0.0,0.0,0.0,0.0,0.0,0.0,0.0,0.0,0.0,0.0,0.0,0.0,0.0,0.0,0.0,0.0,0.0,0.0,0.0,0.0,0.0,0.0,0.0,0.0,0.0,0.0,2.7865,0.0,0.0,0.0,0.0,0.0,0.0,0.0,0.0,0.0,0.0,0.0,0.0,0.0,0.0,3.0592,3.1362,3.1452,3.1538,0.0,0.0,3.191,3.2107,3.1818,3.1347,0.0,0.0,0.0,0.0,0.0,0.0,0.0,0.0,0.0,0.0,0.0,0.0,0.0,0.0,0.0,0.0,0.0,0.0,0.0,0.0,0.0,0.0,0.0,0.0,0.0,0.0,0.0,0.0,0.0,0.0,0.0,0.0,0.0,0.0,0.0,0.0,0.0,0.0,0.0,0.0,0.0,0.0,0.0,0.0,0.0,0.0,0.0,0.0,0.0,0.0,0.0,0.0,0.0,0.0,0.0,3.3149,3.45,3.5339,3.5565,3.6131,3.6628,3.7035,3.6382,3.5829,0.0,0.0,0.0,0.0,0.0,0.0,0.0,0.0,0.0,0.0,0.0,0.0,0.0,0.0,0.0,0.0,0.0,0.0,0.0,0.0,0.0,0.0,0.0,0.0,0.0,0.0,0.0,0.0,0.0,0.0,0.0,0.0,0.0,0.0,0.0,0.0,0.0,0.0,0.0,0.0,0.0,3.1182,3.1877,3.194,3.2025,0.0,0.0,3.2274,3.252,3.2544,3.235,3.1773,0.0,0.0,0.0,0.0,0.0,0.0,0.0,0.0,0.0,0.0,0.0,0.0,0.0,0.0,0.0,0.0,0.0,0.0,0.0,0.0,0.0,0.0,0.0,0.0,0.0,0.0,0.0,0.0,0.0,0.0,0.0,0.0,0.0,0.0,0.0,0.0,0.0,0.0,0.0,0.0,0.0,0.0,0.0,0.0,0.0,0.0,0.0,0.0,0.0,0.0,0.0,0.0,0.0,3.3677,3.4424,3.5402,3.6364,3.7273,3.7292,3.7579,3.8102,3.7609,3.7047,0.0,0.0,0.0,0.0,0.0,0.0,0.0,0.0,0.0,0.0,0.0,0.0,0.0,0.0,0.0,0.0,0.0,0.0,0.0,0.0,0.0,0.0,0.0,0.0,0.0,0.0,0.0,0.0,2.9465,2.9713,2.9713,0.0,0.0,0.0,0.0,0.0,0.0,0.0,0.0,0.0,0.0,3.267,3.3029,3.3429,0.0,0.0,3.3531,3.328,3.3391,3.3131,3.2654,3.205,3.2029,0.0,0.0,0.0,0.0,0.0,0.0,0.0,0.0,0.0,0.0,0.0,0.0,0.0,0.0,0.0,0.0,0.0,0.0,0.0,0.0,0.0,0.0,0.0,0.0,0.0,0.0,0.0,0.0,0.0,0.0,0.0,0.0,0.0,0.0,0.0,0.0,0.0,0.0,0.0,0.0,0.0,0.0,0.0,0.0,0.0,0.0,0.0,0.0,0.0,0.0,0.0,0.0,3.4842,3.5663,3.6567,3.7567,3.8637,3.8538,3.8732,3.9291,3.8818,3.8338,0.0,0.0,0.0,0.0,0.0,0.0,0.0,0.0,0.0,0.0,0.0,0.0,0.0,0.0,0.0,0.0,0.0,0.0,0.0,0.0,0.0,0.0,0.0,0.0,0.0,0.0,0.0,0.0,3.051,3.0791,3.0791,0.0,0.0,0.0,0.0,0.0,0.0,0.0,0.0,0.0,0.0,3.3968,3.405,3.4454,3.4823,3.4966,3.4588,3.4304,3.4332,3.4038,3.3527,3.283,0.0,0.0,0.0,0.0,0.0,0.0,0.0,0.0,0.0,0.0,0.0,0.0,0.0,0.0,0.0,0.0,0.0,0.0,0.0,0.0,0.0,0.0,0.0,0.0,0.0,0.0,0.0,0.0,0.0,0.0,3.0204,0.0,0.0,0.0,0.0,0.0,0.0,0.0,0.0,0.0,0.0,0.0,0.0,0.0,0.0,0.0,0.0,0.0,0.0,0.0,0.0,0.0,0.0,3.5857,3.6715,3.8152,3.9021,3.9314,3.9864,4.0343,4.0718,4.0132,3.9827,3.9961,0.0,0.0,0.0,0.0,0.0,0.0,0.0,0.0,0.0,0.0,0.0,0.0,0.0,0.0,0.0,0.0,0.0,0.0,0.0,0.0,0.0,0.0,0.0,0.0,0.0,0.0,3.0816,3.0816,3.0822,0.0,0.0,0.0,0.0,0.0,0.0,0.0,0.0,0.0,0.0,3.4441,3.4878,3.4878,3.4909,3.5029,3.52,3.5228,3.5194,3.5335,3.5331,3.511,0.0,0.0,0.0,0.0,0.0,0.0,0.0,0.0,0.0,0.0,0.0,0.0,0.0,0.0,0.0,0.0,0.0,0.0,0.0,0.0,0.0,0.0,0.0,0.0,0.0,0.0,0.0,3.1982,3.2031,0.0,0.0,0.0,0.0,0.0,0.0,0.0,0.0,0.0,0.0,0.0,3.6005,3.6461,0.0,0.0,0.0,0.0,0.0,0.0,0.0,0.0,0.0,0.0,0.0,0.0,3.7157,3.8522,3.9079,3.9924,4.1124,4.1341,4.1534,4.1672,4.1454,4.0925,4.0119,0.0,0.0,0.0,0.0,0.0,0.0,0.0,0.0,0.0,0.0,0.0,0.0,0.0,0.0,0.0,0.0,0.0,0.0,0.0,0.0,0.0,0.0,0.0,0.0,0.0,3.1877,0.0,0.0,0.0,0.0,0.0,0.0,0.0,0.0,0.0,0.0,0.0,3.3979,3.4813,3.5474,3.5886,3.5886,3.6324,3.6636,0.0,0.0,0.0,0.0,0.0,0.0,0.0,0.0,0.0,0.0,0.0,0.0,0.0,0.0,3.4646,3.3986,3.3869,3.3869,3.3869,0.0,0.0,0.0,0.0,0.0,0.0,0.0,0.0,0.0,0.0,0.0,0.0,0.0,0.0,3.383,0.0,3.372,0.0,0.0,0.0,0.0,0.0,0.0,0.0,0.0,3.6783,3.724,3.7536,3.7964,3.8177,0.0,3.8177,3.7262,0.0,0.0,0.0,0.0,0.0,0.0,0.0,0.0,3.8591,4.0003,4.0316,4.1134,4.2469,4.2532,4.2598,4.2667,4.2448,4.1789,4.0661,3.9125,3.8152,0.0,0.0,0.0,0.0,0.0,0.0,0.0,0.0,0.0,0.0,0.0,0.0,0.0,0.0,0.0,0.0,0.0,0.0,0.0,0.0,0.0,0.0,0.0,3.2725,0.0,0.0,0.0,0.0,0.0,0.0,0.0,0.0,0.0,3.3639,3.4337,3.5121,3.5735,3.6429,3.6872,3.6901,0.0,0.0,0.0,0.0,0.0,0.0,0.0,3.6826,3.657,3.673,3.689,3.689,3.7114,3.7306,3.7306,0.0,0.0,3.6162,3.6133,3.6225,3.5943,3.6102,3.6229,3.5975,3.613,3.6413,0.0,0.0,0.0,0.0,0.0,0.0,0.0,0.0,3.6103,3.5913,0.0,3.5435,0.0,0.0,0.0,0.0,0.0,3.678,0.0,0.0,3.8553,3.8797,3.8695,3.8692,3.8662,3.8631,3.8692,3.8725,3.8631,3.8302,0.0,0.0,0.0,0.0,0.0,0.0,4.0099,4.112,4.1741,4.2532,4.3396,4.3427,4.3563,4.3703,4.3074,4.241,4.1683,4.0988,4.0293,3.9566,3.827,0.0,0.0,0.0,0.0,0.0,0.0,0.0,0.0,0.0,0.0,0.0,0.0,0.0,0.0,0.0,0.0,0.0,0.0,0.0,0.0,3.2987,0.0,0.0,0.0,0.0,0.0,0.0,0.0,0.0,0.0,0.0,3.4659,3.5616,3.6495,3.6667,0.0,0.0,0.0,0.0,3.7985,3.7985,3.7985,3.7985,3.7985,3.8558,3.8779,3.8075,0.0,0.0,3.9033,3.961,4.0027,4.0091,4.0027,3.9514,3.7466,3.7626,3.7819,3.7182,3.7598,3.7787,3.7242,3.7598,3.8203,3.9554,0.0,0.0,0.0,0.0,3.7923,3.8084,3.834,3.8153,3.8216,3.8495,3.8275,0.0,0.0,0.0,0.0,0.0,0.0,3.9121,4.0148,4.0335,4.0956,4.1852,4.1852,4.1852,4.1852,4.1852,4.1852,4.1852,4.1783,4.0622,3.8604,0.0,0.0,0.0,0.0,4.1117,4.2006,4.2698,4.3462,4.4331,4.4331,4.4362,4.4397,4.3769,4.3292,4.3105,4.1936,4.1209,4.0988,3.9661,0.0,0.0,0.0,0.0,0.0,0.0,0.0,0.0,0.0,0.0,0.0,0.0,0.0,0.0,0.0,0.0,0.0,0.0,0.0,3.4766,3.4962,3.509,0.0,0.0,0.0,0.0,0.0,0.0,0.0,0.0,0.0,3.7607,3.7514,3.7674,0.0,0.0,3.9423,3.9454,3.9484,3.9484,3.9454,3.9544,0.0,3.9634,3.9884,4.0006,3.978,3.9941,4.007,4.007,4.0232,4.0393,4.0425,4.0813,4.0972,4.0393,3.9794,3.945,3.9228,3.9356,3.942,3.926,3.9388,3.9578,4.1492,4.0344,4.0177,4.0173,4.0242,4.0242,4.0414,4.0718,4.0468,4.0507,4.0704,4.0166,3.9913,3.9818,3.9818,0.0,0.0,0.0,4.1068,4.2003,4.2003,4.2438,4.318,4.3212,4.3212,4.3212,4.3212,4.3212,4.3212,4.3212,4.2369,4.0678,0.0,0.0,4.1408,4.1815,4.2416,4.3312,4.3721,4.4327,4.5092,4.5231,4.5235,4.5235,4.464,4.4325,4.4325,4.328,4.2517,4.2231,4.1182,4.007,0.0,0.0,0.0,0.0,0.0,0.0,0.0,0.0,0.0,0.0,0.0,3.3463,3.3906,0.0,0.0,0.0,3.5193,3.5353,3.5769,3.5801,0.0,0.0,0.0,0.0,0.0,0.0,0.0,3.8075,3.8552,3.9028,3.9445,3.9441,3.9376,3.951,3.9927,4.0214,4.0242,0.0,4.0242,4.0273,4.0333,4.0363,4.0363,4.0679,4.1096,4.1711,4.1776,4.1905,4.2164,4.2197,4.2197,4.2261,4.2553,4.2876,4.2876,4.2363,4.1626,4.0884,4.0918,4.1014,4.0757,4.0886,4.111,4.3305,4.3363,4.2973,4.2839,4.2926,4.2926,4.3109,4.3333,4.2736,4.2588,4.2663,4.143,4.083,4.0894,4.0894,0.0,4.2825,4.2857,4.3071,4.356,4.356,4.3486,4.3439,4.3434,4.3434,4.3497,4.3466,4.3528,4.3622,4.3591,4.3631,4.3776,4.3631,4.3505,4.3396,4.3462,4.3878,4.465,4.4749,4.5128,4.5792,4.604,4.6112,4.608,4.562,4.5373,4.5341,4.4735,4.4063,4.339,4.2686,4.1949,4.1213,0.0,0.0,0.0,0.0,0.0,0.0,0.0,0.0,0.0,0.0,0.0,0.0,0.0,0.0,0.0,3.6085,0.0,3.6176,3.6149,0.0,0.0,0.0,3.7431,3.804,3.871,3.9416,4.0153,0.0,0.0,4.0593,4.1295,4.1551,4.0754,4.0625,4.0591,4.0709,4.0901,4.0867,4.0998,4.0901,4.0869,4.116,4.1612,4.2388,4.3492,4.3848,4.401,4.4529,4.4691,4.4788,4.4659,4.4821,4.4788,4.4788,4.4659,4.4237,4.2291,4.2359,4.2586,4.2099,4.236,4.278,4.4268,4.4699,4.4625,4.4034,4.3141,4.3141,4.3216,4.3364,4.3239,4.328,4.3453,4.3103,4.3047,4.3184,4.3352,4.3611,4.3896,4.393,4.4247,4.4814,4.4675,4.4886,4.5389,4.5246,4.5425,4.5935,4.5966,4.625,4.6786,4.6786,4.6786,4.6823,4.6786,4.5745,4.3731,4.4141,4.4488,4.4717,4.5254,4.5706,4.604,4.6187,4.6259,4.6259,4.6138,4.6042,4.6042,4.5405,4.4992,4.4765,4.3613,4.2654,4.1981,4.1245,0.0,0.0,0.0,0.0,0.0,0.0,0.0,0.0,0.0,3.6196,3.6163,0.0,3.6642,0.0,3.8743,3.9389,3.9389,3.9357,0.0,0.0,3.9551,3.9712,3.9874,4.0035,4.0423,4.1134,4.1716,4.2264,4.2813,4.3557,4.3978,4.3751,4.3234,4.2911,4.2941,4.346,4.3783,4.3719,4.3654,4.3751,4.3718,4.4042,4.4333,4.4724,4.4853,4.4983,4.5146,4.5179,4.5179,4.5179,4.5179,4.5179,4.5212,4.5179,4.5048,4.4526,4.4366,4.4237,4.4075,4.414,4.4302,4.5154,4.5573,4.5573,4.5205,4.4583,4.4333,4.4369,4.4587,4.4587,4.4693,4.4868,4.4551,4.4493,4.4599,4.4701,4.4896,4.5181,4.5216,4.56,4.6205,4.6131,4.6478,4.718,4.7039,4.7188,4.7575,4.7538,4.776,4.8141,4.8141,4.8211,4.8179,4.8141,4.7379,4.5885,4.6099,4.6253,4.6253,4.6421,4.6593,4.6634,4.6529,4.6439,4.6439,4.6509,4.658,4.658,4.6194,4.584,4.5518,4.4812,4.4071,4.3395,4.2655,4.2009,0.0,0.0,0.0,0.0,0.0,0.0,0.0,0.0,0.0,0.0,0.0,3.8702,3.9512,4.0206,4.0631,4.0631,4.0572,4.0513,4.0513,4.0804,4.1096,4.1387,4.1743,4.2197,4.2941,4.3362,4.3751,4.414,4.4528,4.482,4.4919,4.4854,4.4626,4.4269,4.4561,4.482,4.4886,4.4919,4.4951,4.5017,4.5114,4.531,4.5604,4.5701,4.5865,4.6192,4.6258,4.6258,4.6258,4.6258,4.6291,4.6258,4.6258,4.6258,4.6258,4.6126,4.5766,4.5147,4.5017,4.5082,4.6258,4.6402,4.6307,4.6315,4.639,4.5859,4.5828,4.6148,4.6116,4.6223,4.6301,4.5763,4.5576,4.5541,4.564,4.6025,4.6567,4.6664,4.7084,4.7662,4.7658,4.7979,4.8588,4.8551,4.8546,4.8642,4.8642,4.8674,4.877,4.877,4.877,4.877,4.877,4.877,4.8733,4.8621,4.8451,4.8254,4.7801,4.7585,4.7553,4.7123,4.6907,4.6907,4.7082,4.7119,4.7022,4.7022,4.6698,4.5986,4.5856,4.5532,4.4982,4.4269,4.3685,0.0,4.2604,0.0,0.0,0.0,0.0,0.0,0.0,0.0,0.0,4.1176,4.1275,4.1278,4.1324,4.1366,4.1366,4.1214,4.1091,4.1123,4.1673,4.2322,4.2907,4.3523,4.414,4.4788,4.495,4.4983,4.5016,4.5048,4.5244,4.5506,4.593,4.5961,4.5341,4.5211,4.5341,4.5375,4.5408,4.5604,4.5701,4.5668,4.5962,4.6487,4.6684,4.6881,4.7506,4.7605,4.7638,4.7605,4.7572,4.7605,4.7637,4.7605,4.7605,4.7572,4.7539,4.7111,4.6028,4.5668,4.5602,4.7988,4.7992,4.7381,4.7161,4.7165,4.6593,4.6333,4.6262,4.6294,4.6369,4.6547,4.6763,4.6835,4.69,4.7557,4.7952,4.8115,4.8702,4.9029,4.9159,4.905,4.9004,4.8957,4.8812,4.8955,4.9283,4.9315,4.9635,5.0173,5.0173,5.0243,5.0173,5.0173,5.0205,5.0211,0.0,0.0,0.0,4.8496,4.8542,4.8542,4.8562,4.8537,4.8537,4.8573,0.0,4.7831,4.7799,4.7443,4.673,4.6115,0.0,0.0,0.0,0.0,0.0,0.0,0.0,0.0,0.0,0.0,0.0,4.5136,4.4138,4.1506,4.2239,4.2903,4.2815,4.3801,4.4457,4.4457,4.4426,4.4361,4.4394,4.4524,4.4655,4.4786,4.4917,4.508,4.5179,4.5734,4.6094,4.6127,4.6617,4.6977,4.6945,4.7142,4.7174,4.6977,4.6912,4.6977,4.7043,4.6946,4.7044,4.7077,4.7276,4.7373,4.7704,4.7931,4.8093,4.8226,4.8292,4.8292,4.8292,4.8324,4.8292,4.8292,4.8324,4.826,4.8292,4.8292,4.8064,4.7243,4.7077,4.7177,4.8625,0.0,4.8389,4.83,0.0,4.8196,4.8034,4.7893,4.7467,4.757,4.8104,4.8311,4.8417,4.8553,4.9017,4.925,4.9319,4.9714,5.0041,5.03,5.0227,5.0281,5.0428,5.0318,5.0371,5.0654,5.0654,5.0811,5.1167,5.1167,5.1199,5.1167,5.1199,5.1167,5.1167,5.1312,5.0843,4.9839,4.9558,4.9434,4.9434,4.9151,4.8994,4.8994,4.8994,0.0,0.0,0.0,0.0,0.0,0.0,0.0,0.0,4.6127,0.0,4.609,4.5728,4.5625,4.5781,4.5937,4.6029,4.6029,4.6243,4.5637,4.3839,4.4408,4.4809,4.4752,4.5322,4.5689,4.5689,4.5563,4.5436,4.5468,4.5372,4.5406,4.5766,4.5832,4.5963,4.6323,4.6717,4.6979,4.6946,4.7208,4.7571,4.7704,4.7737,4.7803,4.7935,4.7704,4.7537,4.7704,4.7935,4.8001,4.8,4.8098,4.8261,4.826,4.8388,4.8483,4.8483,4.8483,4.8483,4.8483,4.8483,4.8483,4.8483,4.8483,4.8483,4.8483,4.8483,4.842,4.8033,4.7968,4.8033,4.9272,4.9563,4.9433,4.9548,4.9834,4.977,4.9805,4.9941,0.0,0.0,0.0,4.9809,4.988,5.0051,5.0183,5.0353,5.0455,5.0622,5.0917,5.134,5.134,5.1564,5.1944,5.1944,5.1908,5.1871,5.1871,5.1904,5.1871,5.1871,5.1871,5.1871,5.1904,5.1904,5.1835,5.1831,5.1647,5.1317,5.0696,5.0403,5.0403,4.9819,4.9527,4.9491,4.9491,4.9426,4.9332,4.9444,4.9224,4.8507,4.8613,4.8487,4.7965,4.7275,4.7012,4.7303,4.6704,4.6398,4.6675,4.6736,4.6797,4.6858,4.6945,4.6814,4.6371,4.6438,4.6505,4.6508,4.6486,4.6524,4.6524,4.6275,4.6117,4.6117,4.5957,4.6157,4.6716,4.6782,4.7013,4.7539,4.7638,4.7671,4.7671,4.7671,4.7836,4.8199,4.8331,4.8462,4.869,4.8232,4.7902,4.8298,4.856,4.8751,4.8885,4.8984,4.8949,4.9082,4.908,4.9045,4.9076,4.9108,4.9074,4.9241,4.9108,4.9142,4.9142,4.9241,4.9108,4.9108,4.9108,4.9074,4.9074,4.9108,4.9043,5.1357,5.1398,5.0739,5.0588,5.0735,5.0349,5.0656,5.1394,5.0388,5.0089,5.0358,5.0526,5.056,5.0627,5.1228,5.1563,5.1596,5.2232,5.2565,5.2632,5.2632,5.2594,5.2485,5.2485,5.2414,5.2236,5.2236,5.2236,5.2236,5.2236,5.2236,5.2236,5.2236,5.2128,5.198,5.1835,5.1794,5.1721,5.1623,5.1557,5.1557,5.1459,5.1394,5.1394,5.1394,5.1099,5.0478,5.0514,5.0153,4.9466,4.9436,4.9577,4.9788,4.9093,4.8895,4.9156,4.852,4.815,4.8214,4.8464,4.8741,4.9014,4.9074,4.829,4.6502,4.6999,4.7368,4.7309,4.778,4.8182,4.815,4.8052,4.7987,4.802,4.8022,4.8089,4.8124,4.8124,4.819,4.8357,4.8356,4.8357,4.8425,4.8424,4.8691,4.919,4.9389,4.9589,4.9956,4.9189,4.8755,4.9222,4.9422,4.9722,5.0155,5.0523,5.0584,5.0815,5.0875,5.09,5.1026,5.1057,5.106,5.1225,5.1091,5.1125,5.1191,5.1324,5.1125,5.106,5.106,5.1125,5.1091,5.1091,5.0691,5.1908,5.2056,5.1726,5.1773,5.2021,5.1758,5.2031,5.2504,5.2135,5.1865,5.1796,5.1865,5.2034,5.2202,5.2505,5.2809,5.3009,5.3348,5.345,5.3349,5.3247,5.311,5.2904,5.28,5.2729,5.2659,5.2659,5.2659,5.2659,5.259,5.2626,5.2626,5.2626,5.2589,5.2518,5.2412,5.2376,5.2376,5.198,5.1762,5.1762,5.1762,5.1762,5.1762,5.1871,5.1743,5.1415,5.1597,5.1374,5.0646,5.0717,5.0689,5.0459,5.0126,5.0125,5.0419,5.018,5.0042,5.0265,5.0422,5.0577,5.0731,5.0731,5.037,4.9379,4.887,4.8599,4.8538,4.8877,4.8984,4.8892,4.8798,4.8736,4.8675,4.858,4.8483,4.8483,4.8483,4.8649,4.8986,4.9086,4.9286,4.9654,4.9688,4.9821,5.0289,5.0518,5.0815,5.1282,5.0771,5.0304,5.0448,5.0549,5.0813,5.1248,5.138,5.1441,5.1537,5.16,5.1663,5.1791,5.1822,5.1822,5.1822,5.1822,5.1822,5.1822,5.1757,5.1822,5.1822,5.1822,5.1822,5.1822,5.1822,5.1455,5.2161,5.2414,5.2414,5.2626,5.2972,5.3041,5.3179,5.3315,5.345,5.3382,5.3179,5.3144,5.3315,5.3551,5.3551,5.3717,5.398,5.398,5.3915,5.3783,5.3617,5.3484,5.3382,5.3213,5.3144,5.3144,5.3144,5.3144,5.3144,5.3144,5.3144,5.3144,5.311,5.3076,5.3007,5.2972,5.2938,5.2868,5.234,5.2017,5.2053,5.2053,5.2053,5.2053,5.2128,5.22,5.22,5.252,5.2427,5.1894,5.1998,5.1866,5.1329,5.1194,5.1257,5.1517,5.1414,5.1505,5.1822,5.1853,5.1853,5.1881,5.1915,5.1881,5.1813,5.0788,5.0073,5.0013,5.0051,4.9991,4.9869,4.9746,4.9588,4.9494,4.9335,4.9371,4.9241,4.9241,4.9443,5.0015,5.0116,5.0318,5.0789,5.0957,5.1089,5.1388,5.1785,5.2111,5.2272,5.2304,5.2143,5.1947,5.1879,5.1977,5.2204,5.2306,5.2372,5.2335,5.2401,5.2535,5.2532,5.2464,5.2429,5.2563,5.2498,5.2563,5.2464,5.2464,5.2498,5.2598,5.2632,5.2529,5.2598,5.2598,5.2227,5.2659,5.2834,5.2834,5.2972,5.3179,5.3484,5.3617,5.3684,5.3849,5.3915,5.3849,5.3882,5.3882,5.3948,5.3948,5.3948,5.4013,5.398,5.398,5.398,5.3948,5.3915,5.3915,5.3882,5.3882,5.3882,5.3849,5.3816,5.3816,5.3849,5.3882,5.3882,5.3717,5.3517,5.3349,5.3247,5.3076,5.2903,5.2834,5.2799,5.2799,5.2799,5.2799,5.2799,5.2799,5.2834,5.2834,5.2868,5.2835,5.2802,5.2941,5.3112,5.3078,5.2669,5.2526,5.2686,5.2138,5.1822,5.1977,5.1974,5.2073,5.2157,5.2226,5.2261,5.2261,5.2054,5.1829,5.1645,5.1583,5.148,5.1586,5.1486,5.1353,5.1222,5.129,5.1489,5.1359,5.1489,5.1558,5.1592,5.1532,5.1595,5.1736,5.1804,5.2006,5.2588,5.313,5.3502,5.3601,5.3601,5.3633,5.3633,5.3325,5.3092,5.3532,5.3808,5.3667,5.3832,5.3933,5.3862,5.392,5.3986,5.419,5.3748,5.402,5.3986,5.4052,5.4224,5.4121,5.3883,5.3917,5.4155,5.4224,5.4121,5.3576,5.2903,5.3076,5.3076,5.3247,5.3517,5.3651,5.3749,5.3882,5.4045,5.411,5.4143,5.4239,5.4239,5.4143,5.411,5.4175,5.4271,5.4271,5.4303,5.4271,5.4175,5.411,5.411,5.4045,5.398,5.398,5.398,5.398,5.398,5.398,5.398,5.398,5.3915,5.3816,5.375,5.3684,5.3617,5.3551,5.3551,5.3551,5.3517,5.3247,5.3076,5.311,5.3281,5.3382,5.3382,5.3484,5.3551,5.3551,5.3617,5.3717,5.375,5.3543,5.347,5.3631,5.3518,5.3407,5.3504,5.347,5.3501,5.3563,5.3532,5.3563,5.3563,5.3563,5.3501,5.3338,5.2585,5.2004,5.1946,5.1946,5.1915,5.1788,5.1822,5.1822,5.1822,5.1822,5.1928,5.2372,5.2475,5.2646,5.2987,5.309,5.3259,5.3631,5.3973,5.4108,5.4239,5.4271,5.4303,5.4301,5.4029,5.3994,5.4237,5.4271,5.4303,5.4367,5.4367,5.4431,5.4463,5.4494,5.4494,5.4494,5.4494,5.4494,5.4394,5.4494,5.4494,5.4494,5.4494,5.4494,5.4494,5.4494,5.4118,5.3076,5.328,5.3315,5.3517,5.3783,5.3816,5.3915,5.4078,5.4207,5.4271,5.4303,5.4431,5.4399,5.4303,5.4271,5.4367,5.4463,5.4494,5.4494,5.4463,5.4335,5.4271,5.4271,5.4175,5.4143,5.411,5.4143,5.4143,5.4143,5.4143,5.4143,5.4143,5.4143,5.411,5.4045,5.4045,5.4045,5.398,5.398,5.398,5.3948,5.3651,5.345,5.345,5.3651,5.3783,5.3783,5.3915,5.398,5.398,5.4045,5.4045,5.4045,5.411,5.4175,5.4271,5.4399,5.4494,5.4494,5.4494,5.4494,5.4494,5.4494,5.4494,5.4494,5.4494,5.4494,5.4391,5.3463,5.2846,5.2685,5.2685,5.2623,5.2529,5.2563,5.2563,5.2598,5.2532,5.2803,5.3252,5.3386,5.3526,5.4006,5.4074,5.4139,5.4203,5.4303,5.4335,5.4497,5.4463,5.4463,5.4494,5.4494,5.4494,5.4494,5.4463,5.4494,5.4494,5.4463,5.4463,5.4494,5.4494,5.4494,5.4494,5.4494,5.4494,5.4494,5.4494,5.4494,5.4494,5.4494,5.4494,5.4494,5.4494,5.4494,5.3314,5.3484,5.3617,5.3783,5.398,5.411,5.4175,5.4207,5.4367,5.4463,5.4463,5.4463,5.4494,5.4463,5.4463,5.4463,5.4494,5.4494,5.4494,5.4494,5.4463,5.4497,5.4494,5.4463,5.4463,5.4431,5.4465,5.4465,5.4431,5.4431,5.4463,5.4463,5.4431,5.4367,5.4239,5.4207,5.4143,5.4045,5.4013,5.4013,5.4013,5.411,5.4078,5.3948,5.398,5.398,5.398,5.398,5.4013,5.398,5.4143,5.4207,5.4207,5.4367,5.4463,5.4497,5.4494,5.4494,5.4494,5.4494,5.4494,5.4494,5.4494,5.4494,5.4494,5.4494,5.4494,5.4494,5.4356,5.4221,5.4221,5.4083,5.4187,5.4155,5.429,5.4224,5.429,5.4121,5.4359,5.4328,5.4293,5.4296,5.4431,5.4463,5.4431,5.4463,5.4463,5.4463,5.4463,5.4494,5.4494,5.4494,5.4494,5.4494,5.4494,5.4494,5.4494,5.4494,5.4494,5.4494,5.4494,5.4494,5.4494,5.4494,5.4494,5.4494,5.4494,5.4494,5.4494,5.4494,5.4494,5.4494,5.4494,5.4494,5.4494,5.3484,5.3617,5.3816,5.398,5.4143,5.4175,5.4271,5.4434,5.4463,5.4494,5.4494,5.4494,5.4494,5.4494,5.4494,5.4494,5.4494,5.4494,5.4494,5.4494,5.4494,5.4494,5.4494,5.4494,5.4494,5.4494,5.4494,5.4494,5.4494,5.4494,5.4494,5.4494,5.4494,5.4463,5.4399,5.4399,5.4367,5.4303,5.4303,5.4303,5.4303,5.4367,5.4367,5.4303,5.4303,5.4303,5.4303,5.4303,5.4303,5.4303,5.4367,5.4367,5.4399,5.4431,5.4494,5.4494,5.4494,5.4494,5.4494,5.4494,5.4494,5.4494,5.4494,5.4494,5.4494,5.4494,5.4494,5.4494,5.4494,5.4494,5.4494,5.4494,5.4494,5.4494,5.4494,5.4494,5.4494,5.4494,5.4494,5.4494,5.4494,5.4494,5.4494,5.4494,5.4494,5.4494,5.4494,5.4494,5.4494,5.4494,5.4494,5.4494,5.4494,5.4494,5.4494,5.4494,5.4494,5.4494,5.4494,5.4494,5.4494,5.4494,5.4494,5.4494,5.4494,5.4494,5.4494,5.4494,5.4494,5.4494,5.4494,5.4494,5.4494,5.4494,5.4494,5.3751,5.3882,5.4013,5.4143,5.4303,5.4303,5.4367,5.4494,5.4494,5.4494,5.4494,5.4494,5.4494,5.4494,5.4494,5.4494,5.4494,5.4494,5.4494,5.4494,5.4494,5.4494,5.4494,5.4494,5.4494,5.4494,5.4494,5.4494,5.4494,5.4494,5.4494,5.4494,5.4494,5.4494,5.4494,5.4494,5.4494,5.4494,5.4494,5.4529,5.4494,5.4494,5.4494,5.4494,5.4494,5.4494,5.4494,5.4494,5.4494,5.4494,5.4494,5.4494,5.4494,5.4494,5.4494,5.4494,5.4494,5.4494,5.4494,5.4494,5.4494,5.4494,5.4494,5.4494,5.4494,5.4494,5.4494,5.4494,5.4494,5.4494,5.4494,5.4494,5.4494,5.4494,5.4494,5.4494,5.4494,5.4494,5.4494,5.4494,5.4494,5.4494,5.4494,5.4494,5.4494,5.4494,5.4494,5.4494,5.4494,5.4494,5.4494,5.4494,5.4494,5.4494,5.4494,5.4494,5.4494,5.4494,5.4494,5.4494,5.4494,5.4494,5.4494,5.4494,5.4494,5.4494,5.4494,5.4494,5.4494,5.4494,5.4494,5.4494,5.4494,5.4494,5.4494,5.4078,5.4175,5.4207,5.4303,5.4497,5.4463,5.4494,5.4494,5.4494,5.4494,5.4494,5.4494,5.4494,5.4494,5.4494,5.4494,5.4494,5.4494,5.4494,5.4494,5.4494,5.4494,5.4494,5.4494,5.4494,5.4494,5.4494,5.4494,5.4494,5.4494,5.4494,5.4494,5.4494,5.4494,5.4494,5.4494,5.4494,5.4494,5.4494,5.4494,5.4494,5.4494,5.4494,5.4494,5.4494,5.4494,5.4494,5.4494,5.4494,5.4494,5.4494,5.4494,5.4494,5.4494,5.4494,5.4494,5.4494,5.4494,5.4494,5.4494,5.4494,5.4494,5.4494,5.4494,5.4494,5.4494,5.4494,5.4494,5.4494,5.4494,5.4494,5.4494,5.4494,5.4494,5.4494,5.4494,5.4494,5.4494,5.4494,5.4494,5.4494,5.4494,5.4494,5.4494,5.4494,5.4494,5.4494,5.4494,5.4494,5.4494,5.4494,5.4494,5.4494,5.4494,5.4494,5.4494,5.4494,5.4494,5.4494,5.4494,5.4494,5.4494,5.4494,5.4494,5.4494,5.4494,5.4494,5.4494,5.4494,5.4494,5.4494,5.4494,5.4494,5.4494,5.4494,5.4175,5.4239,5.4335,5.4431,5.4529,5.4494,5.4494,5.4494,5.4494,5.4494,5.4494,5.4494,5.4494,5.4494,5.4494,5.4494,5.4494,5.4494,5.4494,5.4494,5.4494,5.4494,5.4494,5.4494,5.4494,5.4494,5.4494,5.4494,5.4494,5.4494,5.4494,5.4494,5.4494,5.4494,5.4494,5.4494,5.4494,5.4494,5.4494,5.4494,5.4494,5.4494,5.4494,5.4494,5.4494,5.4494,5.4494,5.4494,5.4494,5.4494,5.4494,5.4494,5.4494,5.4494,5.4494,5.4494,5.4494,5.4494,5.4494,5.4494,5.4494,5.4494,5.4494,5.4494,5.4494,5.4494,5.4494,5.4494,5.4494,5.4494,5.4494,5.4494,5.4494,5.4494,5.4494,5.4494,5.4494,5.4494,5.4494,5.4494,5.4494,5.4494,5.4494,5.4494,5.4494,5.4494,5.4494,5.4494,5.4494,5.4494,5.4494,5.4494,5.4494,5.4494,5.4494,5.4494,5.4494,5.4494,5.4494,5.4494,5.4494,5.4494,5.4494,5.4494,5.4494,5.4494,5.4494,5.4494,5.4494,5.4494,5.4494,5.4494,5.4494,5.4494,5.4494,5.4303,5.4335,5.4431,5.4494,5.4494,5.4494,5.4494,5.4494,5.4494,5.4494,5.4494,5.4494,5.4494,5.4494,5.4494,5.4494,5.4494,5.4494,5.4494,5.4494,5.4494,5.4494,5.4494,5.4494,5.4494,5.4494,5.4494,5.4494,5.4494,5.4494,5.4494,5.4494,5.4494,5.4494,5.4494,5.4494,5.4494,5.4494,5.4494,5.4494,5.4494,5.4494,5.4494,5.4494,5.4494,5.4494,5.4494,5.4494,5.4494,5.4494,5.4494,5.4494,5.4494,5.4494,5.4494,5.4494,5.4494,5.4494,5.4494,5.4494,5.4494,5.4494,5.4494,5.4494,5.4494,5.4494,5.4494,5.4494,5.4494,5.4494,5.4494,5.4494,5.4494,5.4494,5.4494,5.4494,5.4494,5.4494,5.4494,5.4494,5.4494,5.4494,5.4494,5.4494,5.4494,5.4494,5.4494,5.4494,5.4494,5.4494,5.4494,5.4494,5.4494,5.4494,5.4494,5.4494,5.4494,5.4494,5.4494,5.4494,5.4494,5.4494,5.4494,5.4494,5.4494,5.4494,5.4494,5.4494,5.4494,5.4494,5.4494,5.4494,5.4494,5.4494,5.4494,5.4529,5.4494,5.4494,5.4494,5.4494,5.4494,5.4494,5.4494,5.4494,5.4494,5.4494,5.4494,5.4494,5.4494,5.4494,5.4494,5.4494,5.4494,5.4494,5.4494,5.4494,5.4494,5.4494,5.4494,5.4494,5.4494,5.4494,5.4494,5.4494,5.4494,5.4494,5.4494,5.4494,5.4494,5.4494,5.4494,5.4494,5.4494,5.4494,5.4494,5.4494,5.4494,5.4494,5.4494,5.4494,5.4494,5.4494,5.4494,5.4494,5.4494,5.4494,5.4494,5.4494,5.4494,5.4494,5.4494,5.4494,5.4494,5.4494,5.4494,5.4494,5.4494,5.4494,5.4494,5.4494,5.4494,5.4494,5.4494,5.4494,5.4494,5.4494,5.4494,5.4494,5.4494,5.4494,5.4494,5.4494,5.4494,5.4494,5.4494,5.4494,5.4494,5.4494,5.4494,5.4494,5.4494,5.4494,5.4494,5.4494,5.4494,5.4494,5.4494,5.4494,5.4494,5.4494,5.4494,5.4494,5.4494,5.4494,5.4494,5.4494,5.4494,5.4494,5.4494,5.4494,5.4494,5.4494,5.4494,5.4494,5.4494,5.4494,5.4494,5.4494,5.4494,5.4494,5.4494,5.4494,5.4494,5.4494,5.4494,5.4494,5.4494,5.4494,5.4494,5.4494,5.4494,5.4494,5.4494,5.4494,5.4494,5.4494,5.4494,5.4494,5.4494,5.4494,5.4494,5.4494,5.4494,5.4494,5.4494,5.4494,5.4494,5.4494,5.4494,5.4494,5.4494,5.4494,5.4494,5.4494,5.4494,5.4494,5.4494,5.4494,5.4494,5.4494,5.4494,5.4494,5.4494,5.4494,5.4494,5.4494,5.4494,5.4494,5.4494,5.4494,5.4494,5.4494,5.4494,5.4494,5.4494,5.4494,5.4494,5.4494,5.4494,5.4494,5.4494,5.4494,5.4494,5.4494,5.4494,5.4494,5.4494,5.4494,5.4494,5.4494,5.4494,5.4494,5.4494,5.4494,5.4494,5.4494,5.4494,5.4494,5.4494,5.4494,5.4494,5.4494,5.4494,5.4494,5.4494,5.4494,5.4494,5.4494,5.4494,5.4494,5.4494,5.4494,5.4494,5.4494,5.4494,5.4494,5.4494,5.4494,5.4494,5.4494,5.4494,5.4494,5.4494,5.4494,5.4494,5.4494,5.4494,5.4494,5.4494,5.4494,5.4494,5.4494,5.4494,5.4494,5.4494,5.4494,5.4494,5.4494,5.4494,5.4494,5.4494,5.4494,5.4494,5.4494,5.4494,5.4494,5.4494,5.4494,5.4494,5.4494,5.4494,5.4494,5.4494,5.4494,5.4494,5.4494,5.4494,5.4494,5.4494,5.4494,5.4494,5.4494,5.4494,5.4494,5.4494,5.4494,5.4494,5.4494,5.4494,5.4494,5.4494,5.4494,5.4494,5.4494,5.4494,5.4494,5.4494,5.4494,5.4494,5.4494,5.4494,5.4494,5.4494,5.4494,5.4494,5.4494,5.4494,5.4494,5.4494,5.4494,5.4494,5.4494,5.4494,5.4494,5.4494,5.4494,5.4494,5.4494,5.4494,5.4494,5.4494,5.4494,5.4494,5.4494,5.4494,5.4494,5.4494,5.4494,5.4494,5.4494,5.4494,5.4494,5.4494,5.4494,5.4494,5.4494,5.4494,5.4494,5.4494,5.4494,5.4494,5.4494,5.4494,5.4494,5.4494,5.4494,5.4494,5.4494,5.4494,5.4494,5.4494,5.4494,5.4494,5.4494,5.4494,5.4494,5.4494,5.4494,5.4494,5.4494,5.4494,5.4494,5.4494,5.4494,5.4494,5.4494,5.4494,5.4494,5.456,5.456,5.4494,5.4494,5.4494,5.4494,5.456,5.4526,5.4592,5.4557,5.4557,5.4589,5.4557,5.4557,5.4589,5.4526,5.4592,5.4526,5.456,5.4494,5.4494,5.4494,5.4494,5.4494,5.4494,5.4494,5.4494,5.4494,5.4494,5.4494,5.4494,5.4494,5.4494,5.4494,5.4494,5.4494,5.4494,5.4494,5.4494,5.4494,5.4494,5.4494,5.4494,5.4494,5.4494,5.4494,5.4494,5.4494,5.4494,5.4494,5.4494,5.4494,5.4494,5.4494,5.4494,5.4494,5.4494,5.4494,5.4494,5.4494,5.4494,5.4494,5.4494,5.4494,5.4494,5.4494,5.4494,5.4494,5.4494,5.4494,5.4494,5.4494,5.4494,5.4494,5.4494,5.4494,5.4494,5.4494,5.4494,5.4494,5.4494,5.4494,5.4494,5.4494,5.4494,5.4494,5.4494,5.4494,5.4494,5.4494,5.4494,5.4494,5.4494,5.4494,5.4494,5.4494,5.4494,5.4494,5.4494,5.4494,5.4494,5.4494,5.4494,5.4494,5.4494,5.4494,5.4494,5.4494,5.4494,5.4494,5.4494,5.4494,5.4494,5.4494,5.4526,5.4623,5.4623,5.4494,5.4494,5.4494,5.4592,5.4717,5.4749,5.4811,5.4869,5.49,5.4869,5.4869,5.49,5.4869,5.4869,5.478,5.4717,5.4717,5.4623,5.4494,5.4494,5.4494,5.4494,5.4494,5.4494,5.4494,5.4494,5.4494,5.4494,5.4494,5.4494,5.4494,5.4494,5.4494,5.4494,5.4494,5.4494,5.4494,5.4494,5.4494,5.4494,5.4494,5.4494,5.4494,5.4494,5.4494,5.4494,5.4494,5.4494,5.4494,5.4494,5.4494,5.4494,5.4494,5.4494,5.4494,5.4494,5.4494,5.4494,5.4494,5.4494,5.4494,5.4494,5.4494,5.4494,5.4494,5.4494,5.4494,5.4494,5.4494,5.4494,5.4494,5.4494,5.4494,5.4494,5.4494,5.4494,5.4494,5.4494,5.4494,5.4494,5.4494,5.4494,5.4494,5.4494,5.4494,5.4494,5.4494,5.4494,5.4494,5.4494,5.4494,5.4494,5.4494,5.4494,5.4494,5.4494,5.4494,5.4494,5.4494,5.4494,5.4494,5.456,5.456,5.456,5.4494,5.4494,5.4494,5.4526,5.4526,5.4526,5.4526,5.4589,5.4686,5.4717,5.4749,5.4745,5.4745,5.4745,5.4776,5.4904,5.4904,5.493,5.4992,5.4992,5.4992,5.4992,5.4992,5.4992,5.4992,5.4965,5.4904,5.4869,5.4776,5.4717,5.4686,5.4655,5.4592,5.4494,5.4494,5.4494,5.4494,5.4494,5.4494,5.4494,5.4494,5.4494,5.4494,5.4494,5.4494,5.4494,5.4494,5.4494,5.4494,5.4494,5.4494,5.4494,5.4494,5.4494,5.4494,5.4494,5.4494,5.4494,5.4494,5.4494,5.4494,5.4494,5.4494,5.4494,5.4494,5.4494,5.4494,5.4494,5.4494,5.4494,5.4494,5.4494,5.4494,5.4494,5.4494,5.4494,5.4494,5.4494,5.4494,5.4494,5.4494,5.4494,5.4494,5.4494,5.4494,5.4494,5.4494,5.4494,5.4494,5.4494,5.4494,5.4494,5.4494,5.4494,5.4494,5.4494,5.4494,5.4494,5.4494,5.4494,5.4494,5.4494,5.4494,5.4494,5.4494,5.4494,5.4494,5.4494,5.4494,5.4494,5.4494,5.4494,5.456,5.4623,5.4592,5.4526,5.4494,5.4494,5.4526,5.462,5.4686,5.4717,5.4811,5.4807,5.4869,5.4869,5.4992,5.4992,5.4992,5.5022,5.5022,5.5018,5.5053,5.5083,5.5083,5.5113,5.5083,5.5083,5.5113,5.5083,5.5053,5.5022,5.4992,5.4992,5.49,5.4842,5.4776,5.4714,5.4652,5.462,5.462,5.4592,5.4529,5.4494,5.4494,5.4494,5.4494,5.4494,5.4494,5.4494,5.4494,5.4494,5.4494,5.4494,5.4494,5.4494,5.4494,5.4494,5.4494,5.4494,5.4494,5.4494,5.4494,5.4494,5.4494,5.4494,5.4494,5.4494,5.4494,5.4494,5.4494,5.4494,5.4494,5.4494,5.4494,5.4494,5.4494,5.4494,5.4494,5.4494,5.4494,5.4494,5.4494,5.4494,5.4494,5.4494,5.4494,5.4494,5.4494,5.4494,5.4494,5.4494,5.4494,5.4494,5.4494,5.4494,5.4494,5.4494,5.4494,5.4494,5.4494,5.4494,5.4494,5.4494,5.4494,5.4494,5.4494,5.4494,5.4494,5.4592,5.4623,5.4689,5.4658,5.4793,5.4727,5.4831,5.4831,5.5063,5.5161,5.4689,5.4589,5.4658,5.4689,5.4714,5.4811,5.4842,5.4904,5.49,5.4961,5.5022,5.5122,5.4992,5.4992,5.4992,5.5083,5.5169,5.5169,5.5294,5.5419,5.5419,5.5419,5.5419,5.5419,5.5419,5.5354,5.5234,5.5109,5.5083,5.5053,5.5022,5.4961,5.4961,5.493,5.4869,5.4869,5.4869,5.4838,5.4683,5.4526,5.4494,5.4494,5.4494,5.4494,5.4494,5.4494,5.4494,5.4494,5.4494,5.456,5.4526,5.4526,5.4557,5.4526,5.4557,5.4557,5.4557,5.4526,5.4526,5.4494,5.4494,5.4494,5.4494,5.4494,5.4526,5.4526,5.4526,5.4494,5.4494,5.4494,5.4494,5.4494,5.4494,5.4494,5.4494,5.4494,5.4494,5.4494,5.4494,5.4494,5.4494,5.4494,5.4494,5.4494,5.4494,5.4494,5.4494,5.4494,5.4494,5.4494,5.4494,5.4494,5.4494,5.4494,5.4494,5.4494,5.4494,5.4494,5.4494,5.4494,5.4494,5.4494,5.4526,5.4494,5.4494,5.4623,5.4717,5.4849,5.4918,5.522,5.5355,5.5598,5.5668,5.5869,5.5768,5.5532,5.5223,5.5185,5.5178,5.5174,5.5274,5.5549,5.5336,5.5122,5.5493,5.5863,5.5679,5.5234,5.5234,5.5234,5.5324,5.5437,5.5472,5.5561,5.5677,5.5706,5.5706,5.5706,5.5706,5.5683,5.559,5.5502,5.5383,5.5264,5.5269,5.5204,5.5109,5.5079,5.5048,5.5022,5.5022,5.4992,5.4961,5.4838,5.4714,5.4686,5.4655,5.4623,5.4494,5.4494,5.4494,5.4494,5.4494,5.4557,5.4623,5.4655,5.4683,5.4745,5.4745,5.4745,5.4745,5.4745,5.4745,5.4745,5.4745,5.4745,5.4776,5.4776,5.4745,5.4745,5.4745,5.4683,5.4526,5.4529,5.4494,5.4494,5.4494,5.4494,5.4494,5.4494,5.4494,5.4494,5.4494,5.4494,5.4494,5.4494,5.4494,5.4494,5.4494,5.4494,5.4494,5.4494,5.4494,5.4494,5.4494,5.4526,5.4526,5.4526,5.4526,5.4494,5.4494,5.4494,5.4494,5.4494,5.4526,5.4526,5.4695,5.4793,5.4928,5.5032,5.523,5.5425,5.5529,5.5626,5.5858,5.6059,5.6303,5.6582,5.6823,5.6823,5.6621,5.6338,5.633,5.6237,5.6481,5.6373,5.6295,5.6423,5.6549,5.658,5.6606,5.6521,5.5596,5.5596,5.5596,5.5619,5.5735,5.5735,5.5793,5.5872,5.5908,5.5872,5.5901,5.5872,5.585,5.5764,5.5735,5.5677,5.5596,5.5596,5.5472,5.5348,5.5319,5.5229,5.5144,5.5083,5.5113,5.5144,5.5113,5.4992,5.4838,5.4842,5.4714,5.4683,5.462,5.4589,5.462,5.4652,5.4714,5.478,5.4842,5.4934,5.4961,5.4992,5.4992,5.4992,5.4992,5.4992,5.4961,5.4961,5.4961,5.4961,5.4992,5.4992,5.4992,5.4992,5.4869,5.4652,5.4592,5.456,5.4494,5.4494,5.4494,5.4494,5.4494,5.4494,5.4494,5.4494,5.4494,5.4526,5.4557,5.4589,5.462,5.462,5.462,5.462,5.462,5.4589,5.462,5.4652,5.4686,5.4652,5.4623,5.4626,5.4629,5.4623,5.4655,5.4686,5.4686,5.4714,5.4814,5.5192,5.5362,5.5532,5.5734,5.6005,5.6241,5.6481,5.6648,5.6916,5.7017,5.7192,5.7506,5.7817,5.7814,5.7915,5.8188,5.8184,5.7989,5.7545,5.7285,5.7272,5.768,5.7776,5.755,5.751,5.7499,5.5879,5.5815,5.5879,5.5844,5.5872,5.5872,5.5872,5.5929,5.5957,5.5901,5.5957,5.5929,5.5929,5.5872,5.5879,5.5844,5.5815,5.5822,5.5735,5.5584,5.5619,5.5531,5.5478,5.5448,5.5448,5.5483,5.5483,5.5269,5.5153,5.5092,5.4961,5.49,5.49,5.493,5.4869,5.4869,5.4961,5.4961,5.5061,5.5096,5.5162,5.5192,5.5192,5.5162,5.5192,5.5262,5.5362,5.5397,5.5297,5.5227,5.5127,5.5057,5.4992,5.4992,5.4992,5.49,5.4842,5.4686,5.4592,5.4557,5.4557,5.4557,5.4526,5.4494,5.4557,5.4557,5.4589,5.4749,5.4749,5.4811,5.4838,5.493,5.493,5.49,5.4869,5.4934,5.4969,5.5154,5.5119,5.5324,5.5432,5.5098,5.4897,5.4821,5.478,5.4811,5.4907,5.5008,5.5243,5.573,5.6137,5.6377,5.6547,5.6819,5.7227,5.7402,5.7744,5.7977,5.8149,5.8219,5.8562,5.894,5.9284,5.9487,5.9695,5.9417,5.873,5.8277,5.8053,5.8219,5.8633,5.8512,5.8208,5.8308,5.8621,5.6209,5.5901,5.5901,5.6021,5.6189,5.6189,5.6265,5.6374,5.6402,5.6402,5.6402,5.6402,5.632,5.6154,5.5986,5.5901,5.5936,5.5964,5.5908,5.5921,5.5892,5.5828,5.5735,5.5735,5.5735,5.5918,5.6165,5.6353,5.6004,5.5444,5.5113,5.5092,5.5057,5.4992,5.5192,5.5057,5.5331,5.5807,5.6252,5.6558,5.6558,5.6558,5.6558,5.6523,5.6523,5.6523,5.6523,5.6558,5.6593,5.6593,5.6558,5.6593,5.6593,5.6593,5.6563,5.6505,5.6443,5.59,5.5012,5.4845,5.4849,5.4811,5.4811,5.4807,5.4776,5.4845,5.4845,5.4869,5.4934,5.5,5.5061,5.4992,5.4992,5.5057,5.5297,5.5506,5.5614,5.5653,5.5796,5.6036,5.6241,5.5942,5.5775,5.5803,5.5831,5.573,5.597,5.6311,5.6481,5.6756,5.7095,5.7359,5.7499,5.767,5.8114,5.8461,5.8905,5.9179,5.9514,5.962,5.9757,6.0101,6.0203,6.0304,6.0269,5.9854,5.9333,5.9329,5.939,5.9456,5.9557,5.9466,5.9408,5.9781,6.0054,5.6537,5.6126,5.6126,5.6265,5.6492,5.6492,5.66,5.675,5.6786,5.6812,5.6812,5.6786,5.668,5.6492,5.63,5.6324,5.6474,5.641,5.6532,5.6574,5.6617,5.6631,5.668,5.658,5.658,5.6467,5.7111,5.73,5.7005,5.6545,5.612,5.5737,5.5977,5.5842,5.5772,5.5907,5.6248,5.6786,5.7429,5.7736,5.7771,5.7806,5.7806,5.7842,5.7912,5.7912,5.7912,5.7842,5.7842,5.7806,5.7736,5.7701,5.7701,5.7666,5.764,5.7517,5.7456,5.7044,5.6226,5.5819,5.5614,5.5579,5.5579,5.5761,5.5688,5.5579,5.5645,5.5819,5.5819,5.5815,5.5706,5.5807,5.5942,5.6012,5.5942,5.6191,5.6435,5.6571,5.6706,5.6846,5.7052,5.7196,5.7028,5.7056,5.6955,5.6687,5.6997,5.7482,5.7751,5.7884,5.8254,5.8519,5.8761,5.8897,5.9139,5.9554,6.0004,6.0203,6.0508,6.0574,6.0437,6.0498,6.0595,6.0666,6.0732,6.0711,6.0374,6.0575,6.0732,6.0509,6.0421,6.0665,6.0826,6.1093,6.1176,5.675,5.676,5.6724,5.6724,5.6786,5.6786,5.6786,5.6803,5.6839,5.6839,5.6973,5.6884,5.7028,5.6903,5.703,5.7254,5.781,5.7873,5.8005,5.8231,5.846,5.8167,5.801,5.7923,5.8036,5.8036,5.8307,5.8313,5.8231,5.8237,5.7857,5.7645,5.7303,5.7513,5.7478,5.7338,5.7504,5.7902,5.8335,5.8466,5.8461,5.8425,5.8425,5.842,5.8314,5.8273,5.8308,5.8425,5.8496,5.8532,5.8537,5.8537,5.8608,5.8572,5.8517,5.8426,5.833,5.8057,5.7653,5.7157,5.707,5.7108,5.7039,5.6896,5.6823,5.7004,5.714,5.7157,5.6978,5.718,5.7346,5.7548,5.7232,5.7127,5.7022,5.7267,5.7513,5.7618,5.7754,5.7759,5.7934,5.825,5.8386,5.8417,5.8008,5.7771,5.8079,5.8597,5.8866,5.9069,5.9479,5.9819,6.0128,6.0234,6.03,6.0508,6.0498,6.056,6.0757,6.0762,6.0696,6.0757,6.0938,6.1034,6.1093,6.1299,6.1386,6.1241,6.1152,6.1188,6.1218,6.1211,6.1299,6.1415,6.1537,5.7087,5.7163,5.7163,5.7061,5.6907,5.6907,5.6959,5.7036,5.7036,5.7361,5.7831,5.8185,5.8385,5.8349,5.8313,5.8394,5.8718,5.8718,5.8887,5.8932,5.8956,5.8936,5.8852,5.8895,5.8844,5.903,5.9316,5.9452,5.9306,5.9627,5.9744,5.9421,5.8689,5.8164,5.8164,5.8588,5.8794,5.9032,5.9375,5.9689,5.9724,5.9724,5.9689,5.9724,5.9724,5.9724,5.9724,5.9724,5.9724,5.9719,5.9648,5.9643,5.9638,5.9643,5.9613,5.9522,5.9456,5.943,5.9126,5.8386,5.7635,5.7604,5.7569,5.7674,5.7779,5.7639,5.7635,5.7662,5.7895,5.8092,5.7947,5.8033,5.7988,5.8094,5.8235,5.8416,5.8562,5.8703,5.8879,5.8924,5.9303,5.9682,5.9752,5.9819,5.9303,5.8862,5.9236,5.9576,5.9809,5.9977,6.0286,6.0519,6.0691,6.0732,6.0732,6.0823,6.0884,6.0974,6.1034,6.1034,6.1034,6.1211,6.1357,6.1415,6.1415,6.1501,6.1559,6.1559,6.1501,6.148,6.1509,6.153,6.1651,6.1764,6.1784,5.7363,5.7473,5.7716,5.7556,5.7224,5.7416,5.7576,5.7724,5.8003,5.8293,5.8911,5.9387,5.9552,5.9526,5.942,5.9547,5.9655,5.9736,5.9862,5.9987,6.0104,5.996,5.9932,5.9941,6.0037,6.0048,6.0336,6.059,6.0418,6.099,6.0944,6.0505,5.9918,5.9461,5.9223,5.9561,5.9911,6.0088,6.0463,6.0884,6.0878,6.0843,6.0843,6.0837,6.0831,6.0831,6.076,6.0754,6.0796,6.0831,6.0802,6.0873,6.0878,6.0884,6.0823,6.0793,6.0732,6.0701,6.026,5.9611,5.8646,5.8858,5.8787,5.8752,5.8646,5.8611,5.8858,5.8787,5.8809,5.8764,5.8729,5.9067,5.9168,5.9279,5.9274,5.9421,5.9562,5.9703,5.9951,6.0163,6.0401,6.0401,6.0427,6.0357,6.0215,5.9774,5.9854,6.022,6.0473,6.061,6.0741,6.0903,6.0998,6.1004,6.0944,6.1093,6.1211,6.1241,6.1328,6.1415,6.1473,6.1615,6.1644,6.1615,6.1615,6.1672,6.1756,6.184,6.1784,6.168,6.1728,6.184,6.1978,6.2087,6.2087,5.7619,5.7692,5.8422,5.8288,5.785,5.8434,5.8737,5.8846,5.9466,5.9855,5.9903,6.0085,6.0158,6.0133,6.016,6.0399,6.0772,6.0837,6.101,6.1362,6.1362,6.1504,6.142,6.1312,6.116,6.1479,6.1472,6.14,6.1422,6.1494,6.1501,6.1473,6.1035,6.0818,6.056,6.0873,6.1028,6.1087,6.1357,6.1415,6.148,6.1415,6.1386,6.1386,6.1386,6.1357,6.1357,6.1357,6.1357,6.1357,6.1386,6.1386,6.1386,6.1415,6.1328,6.1123,6.1093,6.0944,6.0635,6.0503,6.0326,6.0128,5.9885,6.0026,6.03,6.0371,6.0163,5.9849,6.0154,6.0326,6.0432,6.0463,6.0382,6.0372,6.0331,6.0331,6.0468,6.0539,6.0741,6.0878,6.0696,6.064,6.0762,6.0823,6.0818,6.0686,6.0605,6.0762,6.1004,6.1123,6.1152,6.1211,6.127,6.127,6.127,6.1444,6.153,6.1559,6.1615,6.1728,6.1756,6.1784,6.1812,6.1784,6.1868,6.195,6.2051,6.2158,6.2087,6.2005,6.2087,6.2195,6.2328,6.2354,6.2265,5.7959,5.8543,5.8835,5.914,5.9408,5.9554,5.9589,5.9734,6.0391,6.0792,6.0938,6.1303,6.1594,6.1568,6.1496,6.1589,6.1808,6.1891,6.2112,6.2122,6.2168,6.2114,6.2033,6.195,6.195,6.1904,6.1876,6.1784,6.1664,6.1792,6.1708,6.1651,6.1644,6.1473,6.1328,6.1386,6.1415,6.1415,6.153,6.1559,6.1587,6.1587,6.1615,6.1615,6.1615,6.1644,6.1644,6.1644,6.1644,6.1644,6.1644,6.1615,6.1615,6.1615,6.153,6.1415,6.1451,6.1422,6.127,6.1205,6.0998,6.0823,6.0671,6.0671,6.0609,6.0609,6.0609,6.0671,6.0854,6.0884,6.0908,6.1117,6.1163,6.1192,6.1185,6.1185,6.1257,6.1257,6.1328,6.1357,6.127,6.1211,6.1241,6.1211,6.1211,6.1299,6.1211,6.1182,6.1386,6.1451,6.148,6.1444,6.1501,6.153,6.1587,6.1728,6.1784,6.1784,6.1895,6.206,6.206,6.2005,6.2087,6.2141,6.2195,6.2248,6.2265,6.2344,6.237,6.2344,6.237,6.2381,6.2433,6.2433,6.2381,5.8664,5.9468,5.9785,6.0274,6.0762,6.0616,6.0688,6.1017,6.1503,6.1759,6.1894,6.2307,6.249,6.249,6.2475,6.2449,6.2449,6.2397,6.237,6.2433,6.2407,6.2328,6.2301,6.2238,6.2222,6.2141,6.2141,6.2087,6.2033,6.2005,6.1978,6.195,6.1868,6.1923,6.184,6.1784,6.1644,6.1644,6.17,6.1784,6.1812,6.184,6.184,6.1895,6.1923,6.1895,6.1895,6.1868,6.1868,6.184,6.1812,6.1812,6.1784,6.1756,6.17,6.1708,6.1623,6.1623,6.153,6.153,6.1299,6.1064,6.0944,6.0944,6.0944,6.1034,6.1004,6.1064,6.1152,6.1211,6.1299,6.1595,6.1595,6.1623,6.1623,6.1595,6.1595,6.1566,6.1566,6.1623,6.1651,6.1615,6.1672,6.1644,6.1615,6.17,6.1784,6.1756,6.17,6.1736,6.1764,6.1756,6.1812,6.1868,6.195,6.2033,6.206,6.2005,6.2141,6.2238,6.2238,6.2248,6.2354,6.2433,6.2381,6.2344,6.2423,6.25,6.2526,6.2578,6.2578,6.2552,6.2526,6.2537,6.2537,5.9698,6.0493,6.1263,6.1557,6.163,6.1606,6.201,6.2707,6.2743,6.2743,6.278,6.2718,6.273,6.2755,6.2654,6.2603,6.2603,6.2475,6.2449,6.2485,6.2511,6.2459,6.2433,6.2397,6.2381,6.2407,6.2381,6.2328,6.2344,6.2301,6.2301,6.2318,6.2275,6.2275,6.2168,6.2033,6.1895,6.1923,6.1978,6.206,6.2114,6.2168,6.2195,6.2248,6.2275,6.2275,6.2275,6.2301,6.2328,6.2301,6.2212,6.2222,6.2168,6.2087,6.195,6.184,6.1728,6.17,6.1672,6.17,6.1644,6.1501,6.153,6.1595,6.1537,6.1386,6.1357,6.1386,6.1509,6.153,6.1587,6.1615,6.1644,6.168,6.168,6.168,6.168,6.168,6.168,6.168,6.17,6.1756,6.1868,6.1895,6.195,6.2033,6.2087,6.2033,6.1978,6.1923,6.1978,6.2114,6.2132,6.2212,6.2238,6.2238,6.2248,6.2195,6.2265,6.2397,6.2397,6.2423,6.25,6.2526,6.2485,6.2475,6.2578,6.2654,6.273,6.2755,6.2705,6.2705,6.2654,6.2679,6.2705,6.0529,6.1263,6.152,6.1924,6.2438,6.2475,6.256,6.2805,6.2805,6.2805,6.2805,6.2805,6.2805,6.278,6.2755,6.273,6.273,6.2705,6.2679,6.2654,6.2629,6.2603,6.2578,6.2526,6.2511,6.2459,6.2433,6.2459,6.2433,6.2433,6.2433,6.2407,6.2459,6.2459,6.2407,6.2301,6.2248,6.2222,6.2248,6.2301,6.2318,6.2354,6.2407,6.2433,6.2459,6.2459,6.2423,6.2459,6.2459,6.2407,6.2381,6.2354,6.2354,6.2301,6.2248,6.2248,6.2195,6.2132,6.206,6.1996,6.1978,6.1895,6.1868,6.1764,6.1644,6.1615,6.1644,6.17,6.1792,6.1784,6.1812,6.184,6.1868,6.1868,6.1868,6.1868,6.1868,6.1868,6.1868,6.1895,6.1923,6.2005,6.2114,6.2168,6.2222,6.2328,6.2354,6.2301,6.2248,6.2195,6.2195,6.2328,6.2344,6.237,6.237,6.2344,6.2407,6.2407,6.2475,6.2552,6.2552,6.2578,6.2654,6.2654,6.2603,6.2629,6.273,6.278,6.2805,6.2805,6.278,6.278,6.2805,6.2805,6.2805,6.1337,6.2034,6.2071,6.2365,6.2768,6.2805,6.2805,6.2805,6.2805,6.2805,6.2805,6.2805,6.2805,6.2805,6.278,6.278,6.278,6.278,6.278,6.2755,6.2805,6.273,6.2705,6.2679,6.2629,6.2589,6.2552,6.2578,6.2526,6.2552,6.2552,6.2589,6.2552,6.2552,6.2552,6.2552,6.2552,6.25,6.2449,6.2459,6.2449,6.2475,6.25,6.2526,6.2563,6.2526,6.2526,6.2563,6.2563,6.2563,6.2526,6.2475,6.2449,6.2423,6.2407,6.2381,6.2381,6.2328,6.2275,6.2275,6.2248,6.2195,6.2141,6.2087,6.1978,6.1914,6.195,6.1978,6.2033,6.206,6.2087,6.2114,6.2141,6.2168,6.2168,6.2168,6.2168,6.2168,6.2168,6.2168,6.2222,6.2265,6.2344,6.2407,6.2423,6.2449,6.25,6.25,6.2423,6.2407,6.2407,6.2449,6.2475,6.25,6.25,6.25,6.2526,6.2578,6.2629,6.2679,6.2705,6.2705,6.273,6.2755,6.278,6.278,6.278,6.278,6.2805,6.2805,6.2805,6.2805,6.2805,6.2805,6.2805,6.2108,6.278,6.2805,6.2768,6.2805,6.2805,6.2805,6.2805,6.2805,6.2805,6.2805,6.2805,6.2805,6.2805,6.2805,6.2805,6.2805,6.2805,6.2805,6.2805,6.2805,6.278,6.278,6.278,6.273,6.278,6.278,6.2705,6.2755,6.2755,6.273,6.2817,6.2755,6.273,6.273,6.273,6.2705,6.2679,6.2578,6.2526,6.2603,6.2629,6.2679,6.2755,6.278,6.278,6.278,6.278,6.2805,6.2755,6.2705,6.2629,6.2578,6.2526,6.2475,6.2485,6.2511,6.2485,6.2423,6.2397,6.237,6.237,6.2407,6.2344,6.2238,6.2158,6.2195,6.2195,6.2248,6.2248,6.2275,6.2275,6.2301,6.2301,6.2301,6.2301,6.2301,6.2301,6.2328,6.2354,6.237,6.2449,6.25,6.2552,6.2614,6.2603,6.2629,6.2654,6.2629,6.2589,6.2552,6.2603,6.2603,6.2629,6.2679,6.2679,6.273,6.278,6.278,6.278,6.2755,6.2755,6.278,6.2805,6.2805,6.2805,6.2805,6.2805,6.2805,6.2805,6.2805,6.2805,6.2805,6.2805,6.2805,6.2622,6.2805,6.2805,6.2805,6.2805,6.2805,6.2805,6.2805,6.2805,6.2805,6.2805,6.2805,6.2805,6.2805,6.2805,6.2805,6.2805,6.2805,6.2805,6.2805,6.2805,6.2805,6.2805,6.2805,6.2805,6.2805,6.2805,6.2805,6.2805,6.2805,6.2805,6.2805,6.2805,6.2805,6.2805,6.2805,6.278,6.278,6.273,6.2654,6.2705,6.2755,6.278,6.2805,6.2805,6.2805,6.2805,6.2805,6.2805,6.278,6.278,6.2755,6.2755,6.2705,6.2705,6.2705,6.2654,6.264,6.2578,6.2552,6.25,6.2423,6.2459,6.2475,6.2449,6.237,6.237,6.2433,6.2433,6.2433,6.2459,6.2459,6.2459,6.2459,6.2459,6.2459,6.2459,6.2423,6.2449,6.25,6.2526,6.2578,6.2654,6.2679,6.2705,6.273,6.273,6.2792,6.2755,6.2705,6.2679,6.2705,6.273,6.2755,6.2805,6.2805,6.2805,6.2805,6.278,6.278,6.2805,6.2805,6.2805,6.2805,6.2805,6.2805,6.2805,6.2805,6.2805,6.2805,6.2805,6.2805,6.2805,6.2805,6.2805,6.2805,6.2805,6.2805,6.2805,6.2805,6.2805,6.2805,6.2805,6.2805,6.2805,6.2805,6.2805,6.2805,6.2805,6.2805,6.2805,6.2805,6.2805,6.2805,6.2805,6.2805,6.2805,6.2805,6.2805,6.2805,6.2805,6.2805,6.2805,6.2805,6.2805,6.2805,6.2805,6.2805,6.2805,6.2805,6.2805,6.2805,6.2805,6.2805,6.2805,6.2805,6.2805,6.2805,6.2805,6.2805,6.2805,6.2805,6.2805,6.2805,6.2805,6.278,6.278,6.278,6.278,6.278,6.278,6.278,6.2755,6.2705,6.2654,6.2629,6.2578,6.2552,6.2654,6.2654,6.2603,6.2603,6.2629,6.2629,6.2629,6.2629,6.2629,6.2629,6.2629,6.2629,6.2629,6.2629,6.2629,6.2629,6.2654,6.2679,6.2705,6.273,6.273,6.2755,6.2755,6.278,6.278,6.2805,6.2989,6.2952,6.2989,6.3099,6.2915,6.2805,6.2805,6.2805,6.2805,6.2805,6.2805,6.2805,6.2805,6.2805,6.2915,6.2915,6.2805,6.2805,6.3087,6.2879,6.2805,6.2805,6.2805,6.2842,6.294,6.2903,6.2805,6.2805,6.2805,6.2805,6.2805,6.2805,6.2805,6.2805,6.2805,6.2805,6.2805,6.2805,6.2805,6.2805,6.2805,6.2805,6.2805,6.2805,6.2805,6.2805,6.2805,6.2805,6.2805,6.2805,6.2805,6.2805,6.2805,6.2805,6.2805,6.2805,6.2805,6.2805,6.2805,6.2805,6.2805,6.2805,6.2805,6.2805,6.2805,6.2805,6.2805,6.2805,6.2805,6.2805,6.2805,6.2805,6.2805,6.2805,6.2805,6.2805,6.2805,6.2805,6.2805,6.2805,6.2805,6.2805,6.2805,6.278,6.278,6.2755,6.278,6.278,6.2842,6.2879,6.289,6.3,6.3,6.311,6.311,6.2853,6.2853,6.2828,6.2828,6.2828,6.2828,6.2828,6.2828,6.2828,6.2853,6.2853,6.2853,6.2853,6.2853,6.2879,6.2879,6.2879,6.2842,6.2842,6.2915,6.3209,6.3356,6.3503,6.3686,6.3429,6.2989,6.2952,6.2989,6.2805,6.2805,6.2805,6.2805,6.2805,6.2915,6.3135,6.3099,6.3296,6.3468,6.375,6.3468,6.3259,6.364,6.3836,6.337,6.3395,6.3125,6.2805,6.2805,6.2805,6.2805,6.2805,6.2805,6.2805,6.2805,6.2805,6.2805,6.2805,6.2805,6.2805,6.2805,6.2805,6.2805,6.2805,6.2805,6.2805,6.2805,6.2805,6.2805,6.2805,6.2805,6.2805,6.2805,6.2805,6.2805,6.2805,6.2805,6.2805,6.2805,6.2805,6.2805,6.2805,6.2842,6.2952,6.2989,6.3062,6.3099,6.2964,6.2927,6.2842,6.2805,6.2805,6.2805,6.2805,6.2805,6.2805,6.2805,6.2952,6.3025,6.3099,6.3135,6.3135,6.322,6.3209,6.3172,6.3209,6.3209,6.3257,6.3209,6.3282,6.3429,6.3576,6.387,6.398,6.4248,6.4064,6.3257,6.311,6.311,6.311,6.311,6.311,6.311,6.311,6.311,6.311,6.311,6.311,6.311,6.3147,6.3172,6.3172,6.3172,6.3209,6.3172,6.3319,6.3539,6.3858,6.4079,6.4299,6.3686,6.3135,6.3234,6.3234,6.2989,6.3014,6.3357,6.3357,6.2842,6.2989,6.3688,6.4032,6.4266,6.4438,6.4512,6.4746,6.4734,6.5078,6.514,6.4463,6.4033,6.3911]}]]